GFSGBSN_250_spd_000.txt.gz
Wind_Speed
43 35 29 23 24 26 29 30 32 30 29 24 22 22 22 22 20 20 22 24 25 25 24 26 28 32 35 37 37 39 40 41 48 51 54 54 55 59 62 68 77 82 88 88 88 88 86
43 28 25 22 25 27 28 31 31 25 22 20 18 21 21 20 19 21 22 24 24 22 23 23 26 28 31 33 33 35 37 39 42 46 47 48 49 53 57 62 67 71 77 82 82 81 81
37 25 21 24 24 25 29 31 26 20 17 17 21 22 21 20 21 21 21 22 21 19 19 20 20 22 25 27 29 31 32 34 37 40 42 43 44 46 50 55 60 65 70 71 74 77 71
34 26 22 22 22 28 29 28 18 14 14 17 22 21 21 20 21 21 20 20 19 18 18 19 19 19 22 23 25 26 28 30 32 35 37 39 41 42 44 48 52 54 57 58 59 61 68
31 24 25 19 23 29 27 20 13 11 13 15 19 22 23 22 21 21 20 20 20 20 21 21 20 19 19 21 22 24 25 28 29 31 34 34 33 34 36 38 40 44 46 50 52 55 55
26 26 21 20 26 28 22 15 10 12 14 18 21 24 26 26 25 24 25 26 24 22 21 22 21 19 21 20 21 21 22 24 25 26 27 28 29 31 33 36 34 36 41 44 47 44 43
32 27 20 24 27 23 18 12 13 19 23 26 29 30 31 29 28 29 27 28 28 28 28 20 21 24 19 18 18 18 19 19 20 21 23 24 25 27 27 28 31 35 38 37 36 35 32
31 26 23 24 25 19 18 18 22 28 33 33 33 32 31 31 30 30 30 27 26 25 24 23 19 20 18 19 17 16 15 14 16 18 19 20 23 24 24 25 26 25 23 23 23 24 23
31 26 24 24 19 21 24 28 31 34 35 34 35 34 32 31 31 31 29 29 24 23 22 21 20 16 15 12 10 11 10 10 8 8 10 12 14 16 17 18 19 20 21 21 22 24 23
31 25 25 22 20 27 33 33 35 35 37 36 34 34 33 32 31 29 27 26 21 18 18 17 17 15 14 12 11 8 7 5 6 7 8 10 12 14 17 19 19 20 20 21 23 23 21
29 27 25 20 27 35 36 36 37 36 34 34 34 34 33 31 27 27 21 19 18 18 19 18 18 17 16 12 9 8 8 8 7 6 8 11 14 16 18 19 18 21 20 22 22 24 25
29 27 26 24 35 39 39 41 36 35 35 35 34 34 31 30 30 23 22 20 21 21 22 20 17 14 12 9 7 4 2 1 1 3 5 8 11 14 16 20 22 22 23 23 24 26 30
30 29 27 34 41 41 40 43 34 37 35 35 34 32 30 29 23 25 25 24 23 21 20 17 15 12 9 8 5 3 2 2 2 3 4 4 6 7 9 13 17 21 23 24 28 30 33
32 31 31 43 44 46 42 40 34 38 35 34 33 33 28 25 27 26 26 24 21 18 15 13 11 9 7 5 3 3 4 2 1 0 1 2 4 5 7 7 8 10 13 17 20 25 27
36 33 36 48 49 47 44 43 35 38 37 35 34 32 27 27 25 27 25 22 18 16 15 14 12 10 8 6 5 7 4 3 3 5 7 7 8 8 10 9 9 8 9 11 15 18 22
40 36 41 48 53 51 44 41 39 40 37 37 37 31 29 28 26 27 24 22 19 17 15 14 10 8 6 6 8 6 6 4 4 3 2 3 5 7 8 10 13 15 17 19 21 23 25
42 39 46 50 57 51 44 43 43 41 38 38 35 30 29 28 26 26 24 22 17 18 16 14 10 9 8 7 7 6 5 3 1 1 2 4 7 9 12 13 15 17 20 23 24 27 29
43 43 46 51 59 50 44 45 44 42 40 35 33 32 29 29 28 28 23 19 16 19 18 14 11 9 9 9 7 7 5 4 3 4 5 7 9 10 13 15 16 17 18 23 26 29 32
44 45 47 51 59 53 48 46 45 43 42 38 34 32 30 30 31 29 23 21 18 19 18 14 11 10 10 9 9 7 7 7 8 9 11 13 16 17 18 21 25 26 29 30 35 36 37
46 47 48 51 60 57 50 49 45 44 40 38 37 33 30 31 31 31 27 24 23 20 16 14 13 13 14 13 11 11 11 11 12 14 16 19 21 22 23 24 25 28 31 33 34 40 44
50 52 51 55 59 56 51 51 47 44 39 37 36 34 33 34 33 33 30 26 24 23 20 16 15 16 18 17 16 16 16 15 15 18 20 22 25 26 27 29 32 34 35 36 40 42 42
54 54 54 59 59 57 52 49 49 44 39 36 37 37 38 38 34 33 32 30 28 25 23 20 19 20 22 22 22 21 21 19 19 20 23 26 28 32 33 34 36 38 40 42 45 47 45
55 55 58 60 61 58 56 52 51 46 41 37 38 40 39 38 37 33 33 32 31 29 26 24 23 23 26 26 25 25 24 24 25 26 28 31 34 37 40 42 42 43 44 47 50 50 49
54 55 57 60 62 62 60 57 53 50 45 42 37 36 38 40 40 37 32 31 30 28 27 26 25 27 27 28 29 30 29 30 30 32 34 36 40 41 43 46 50 49 50 50 49 51 53
54 55 53 59 60 63 64 61 58 56 50 46 40 35 39 41 39 39 38 35 36 36 32 33 31 30 31 32 33 33 33 34 36 39 42 44 46 47 48 49 53 53 50 55 51 54 54
55 53 55 55 58 63 65 65 62 58 54 52 47 41 38 36 39 39 34 35 34 33 35 34 34 34 34 36 38 38 39 41 44 46 47 47 49 52 53 53 54 55 54 56 54 57 55
58 55 55 55 57 59 63 65 64 61 58 53 53 48 45 42 38 35 32 34 34 34 30 32 33 36 40 42 41 39 39 41 43 47 51 52 54 55 54 55 56 57 58 62 60 61 61
61 60 58 59 56 57 61 62 68 64 60 58 54 52 51 49 48 40 37 34 35 33 36 36 38 37 38 39 41 44 46 49 52 54 58 60 64 62 61 62 60 59 60 63 65 63 62
64 63 60 61 60 59 60 61 62 67 67 62 60 58 56 55 54 53 49 44 44 42 41 44 41 46 47 49 52 53 55 58 60 62 65 69 70 64 63 64 66 63 62 64 65 64 64

GFSGBSN_250_spd_003.txt.gz
Wind_Speed
57 61 50 37 37 31 25 24 28 28 29 29 31 30 27 25 21 20 19 21 22 22 21 20 22 24 26 28 31 33 34 37 39 40 42 46 47 51 54 58 62 67 73 78 77 79 76
52 56 41 35 30 26 25 28 26 27 30 28 28 25 22 20 17 18 19 18 19 20 19 18 18 21 24 27 29 29 31 31 33 36 38 43 48 47 50 53 56 66 70 72 73 77 82
49 48 37 32 31 28 26 25 25 28 27 26 24 21 19 18 18 18 17 18 17 17 17 18 19 21 22 24 24 25 26 27 31 33 37 41 43 48 49 52 56 60 66 68 68 74 82
50 42 33 29 30 27 22 24 29 26 22 21 18 17 18 18 17 17 16 17 17 16 16 16 17 17 18 19 21 23 23 25 27 30 32 36 40 44 47 50 48 52 56 63 67 68 69
48 39 29 27 28 23 22 25 31 21 18 16 15 18 19 18 18 17 17 17 18 16 16 16 17 17 16 18 19 20 22 24 25 26 28 31 32 34 38 41 42 43 47 49 52 56 57
44 34 25 26 26 22 21 28 30 17 13 12 16 20 21 20 21 20 18 17 16 16 15 15 16 14 17 17 17 18 20 20 21 23 24 25 27 29 31 36 39 39 41 42 48 48 48
35 30 25 30 25 20 23 30 22 11 10 14 18 21 25 23 21 18 17 18 21 24 24 20 17 20 14 13 14 15 15 15 16 18 21 23 27 30 31 31 32 34 35 33 35 33 34
32 31 30 29 24 20 26 28 14 11 14 20 23 24 25 25 26 27 26 24 21 20 22 21 14 18 14 14 14 14 13 12 11 14 16 17 17 18 18 21 23 24 26 26 28 30 31
31 34 32 31 23 23 27 21 17 19 24 26 27 28 29 30 31 30 29 27 22 23 23 24 18 17 15 13 13 12 12 11 13 13 13 14 16 20 23 24 24 24 25 24 28 28 28
34 36 36 33 22 25 24 20 23 30 30 29 30 29 28 29 28 28 29 29 24 22 20 19 18 18 17 16 14 14 13 13 13 11 10 11 12 13 14 12 14 15 17 20 23 24 26
42 40 40 30 20 24 21 26 31 36 32 31 31 29 30 30 30 29 28 30 25 22 22 22 20 19 19 16 15 14 11 8 6 5 4 5 8 10 11 11 16 16 17 20 23 26 28
47 42 39 27 23 22 27 34 38 35 33 34 32 32 32 32 31 29 26 25 25 23 23 21 21 20 17 15 13 12 10 8 7 5 6 9 10 13 14 15 18 21 21 20 22 24 28
51 44 38 26 26 26 37 39 37 37 35 34 34 33 32 32 30 26 25 23 23 23 24 22 20 18 14 12 10 8 6 5 5 4 5 5 5 5 5 6 9 12 16 20 23 25 24
52 45 37 27 27 35 43 40 39 38 36 36 35 34 33 30 27 25 25 24 23 22 20 17 16 14 12 11 8 6 7 6 5 4 6 8 8 6 3 2 1 4 6 7 12 17 21
52 47 35 31 31 42 47 43 41 38 38 36 36 33 29 27 27 27 26 24 22 20 18 18 16 12 9 7 6 8 8 8 8 10 11 11 10 8 7 7 7 8 9 11 14 18 22
53 47 36 34 40 47 47 45 42 40 38 37 35 32 29 28 30 28 27 25 22 20 18 15 12 10 8 6 9 9 9 9 9 10 9 6 5 4 4 7 9 11 13 15 18 22 28
53 46 38 38 48 51 50 46 42 42 40 37 36 35 30 30 30 30 28 24 20 19 17 15 13 11 10 10 10 10 9 8 7 7 5 3 2 2 4 7 9 12 16 15 17 20 24
57 45 39 43 53 53 50 49 41 44 40 39 37 36 30 29 27 29 27 23 20 19 17 14 13 13 12 11 11 10 9 7 5 4 4 4 5 8 10 10 13 16 17 18 21 25 29
58 47 41 48 55 56 51 46 45 45 42 40 38 37 31 29 27 28 26 24 20 18 17 14 14 13 12 12 10 9 8 8 7 7 7 7 10 14 17 19 19 19 23 28 31 32 30
57 49 44 52 56 59 53 47 43 46 44 42 38 35 29 29 29 29 28 26 21 18 17 17 16 13 12 11 10 10 10 10 10 11 11 12 15 17 19 21 23 24 27 27 29 33 40
56 52 46 54 57 61 57 49 45 50 45 41 39 37 34 32 32 34 31 27 24 20 18 18 15 14 14 13 14 14 13 12 13 15 15 17 19 20 22 25 28 30 33 34 35 37 40
56 53 50 55 54 62 58 49 45 49 46 45 40 36 33 32 29 32 32 29 25 24 22 20 16 15 16 18 21 20 17 16 17 18 19 22 24 25 28 31 34 36 38 40 42 44 48
57 52 52 53 57 60 59 50 47 49 47 44 40 41 37 36 31 33 35 33 29 28 22 21 21 21 24 23 20 22 21 20 20 23 24 26 28 31 35 38 40 42 46 48 50 50 50
57 53 52 54 57 58 61 52 49 50 45 46 46 39 36 34 32 35 37 34 31 29 25 25 25 26 26 22 24 23 23 24 25 27 28 30 33 37 40 41 41 42 47 51 52 53 56
57 55 51 53 56 58 63 56 51 51 51 49 42 36 35 37 36 35 36 34 31 29 25 28 29 27 27 27 27 27 27 27 28 30 32 36 37 38 39 44 48 49 54 60 58 59 61
58 56 51 53 55 58 61 59 54 53 52 47 42 42 38 33 33 34 36 34 31 31 30 29 31 32 33 33 31 30 31 33 34 35 35 33 37 44 47 52 56 56 61 62 59 60 62
60 57 53 52 54 58 60 58 58 53 52 50 47 44 40 36 31 32 33 36 39 37 36 34 33 31 31 32 33 34 35 34 31 35 40 43 46 51 54 57 61 63 60 59 58 58 61
61 59 55 54 55 56 58 59 58 59 57 54 52 49 46 44 38 32 30 35 36 37 36 33 32 32 33 33 34 36 38 39 41 45 49 50 54 59 61 63 63 62 59 60 59 58 59
61 60 60 56 54 56 57 55 58 59 60 59 56 54 54 51 48 42 39 37 34 34 38 37 33 36 36 38 40 43 43 47 50 52 57 58 62 65 67 68 67 60 61 60 58 59 58

GFSGBSN_250_spd_006.txt.gz
Wind_Speed
61 62 67 61 66 63 60 41 27 25 28 31 32 33 30 30 27 24 23 19 17 17 19 20 21 24 29 31 31 30 29 35 37 37 39 42 43 43 40 42 46 55 62 66 69 70 79
60 60 62 58 63 58 51 36 30 30 29 30 30 31 29 25 21 19 14 14 15 16 16 19 22 23 23 23 23 26 27 32 33 33 32 36 40 43 42 38 43 55 55 60 63 69 72
57 61 61 62 61 50 45 33 28 32 30 27 29 30 24 20 17 14 13 14 13 15 17 19 20 21 23 25 27 30 31 31 32 35 35 37 38 38 43 44 48 50 50 55 63 65 66
57 58 57 62 57 47 36 25 26 32 29 27 25 22 17 15 15 15 15 15 15 16 16 17 18 19 21 23 24 26 26 26 28 29 32 35 38 41 43 44 44 43 46 47 50 56 61
60 59 58 59 55 42 31 21 27 29 25 23 20 16 14 15 16 16 15 16 16 16 17 18 19 20 22 21 21 22 23 24 26 27 29 30 32 35 35 35 39 43 44 45 47 49 54
56 61 63 59 52 37 26 21 26 26 23 19 18 15 17 16 16 17 17 18 18 19 20 19 18 20 20 21 19 20 21 23 23 24 25 26 26 30 33 35 37 39 42 47 47 46 47
58 62 65 61 46 33 23 24 23 23 25 15 13 18 18 17 19 19 18 19 19 21 23 23 20 19 19 20 19 18 18 20 20 23 24 24 26 28 29 28 31 33 38 42 42 45 43
61 60 57 58 42 31 22 23 21 23 19 11 15 20 21 23 22 22 20 18 18 19 21 22 22 23 21 19 17 17 18 18 19 18 19 19 20 23 25 25 27 29 32 34 31 33 32
61 63 60 52 37 29 25 23 19 21 13 12 18 23 27 27 24 22 24 24 23 23 22 24 21 20 19 17 15 14 13 14 15 13 13 15 15 16 17 20 21 19 25 29 27 32 29
65 60 61 45 36 29 28 21 19 17 16 21 24 27 26 26 27 28 27 24 22 21 18 19 18 18 16 17 17 15 13 12 12 13 14 15 15 15 18 21 21 23 26 26 27 26 26
67 64 49 40 36 32 28 19 19 19 25 28 27 27 28 30 29 28 28 27 23 21 17 19 18 21 19 20 18 19 17 16 15 14 13 13 14 14 19 21 17 17 17 19 21 23 26
68 50 42 40 37 35 27 19 22 27 31 29 29 30 31 29 28 28 27 27 24 22 21 22 23 22 21 20 20 19 17 15 15 15 14 13 12 13 14 14 15 17 18 21 23 25 25
57 40 43 42 40 38 24 22 27 34 33 30 31 31 31 30 31 30 28 27 26 23 24 24 23 23 20 19 18 16 14 11 10 8 7 8 8 7 8 9 11 14 16 17 18 22 17
43 39 41 45 44 37 23 27 37 36 33 33 33 32 31 32 31 30 29 28 26 24 25 24 22 20 19 17 15 12 10 9 8 6 8 8 9 7 6 4 3 3 3 4 5 7 7
43 45 45 47 47 34 25 35 42 37 35 36 34 33 34 34 31 29 27 26 25 25 25 23 20 16 15 12 10 9 9 10 10 12 15 15 13 11 8 5 2 3 4 7 10 11 13
44 45 51 50 48 33 31 44 44 39 39 38 36 37 37 33 30 28 28 26 26 25 21 19 17 15 13 10 10 13 12 13 16 17 14 11 8 5 4 3 4 6 7 10 12 14 14
46 50 55 52 47 34 40 49 42 42 41 39 39 38 36 32 31 29 26 25 24 21 20 18 16 13 10 11 14 13 14 14 14 11 9 7 5 2 1 4 8 9 11 15 19 22 25
50 58 58 53 45 37 50 49 43 45 42 40 40 38 36 34 32 29 27 24 23 21 20 18 15 13 13 13 13 14 14 13 12 10 9 8 7 6 6 8 12 15 17 19 21 24 29
57 62 59 53 45 41 54 50 46 46 44 42 42 39 37 35 34 31 28 25 22 20 20 17 15 15 14 14 15 14 12 11 10 11 11 10 10 10 11 12 13 16 20 23 26 27 31
64 64 59 53 45 47 54 50 48 48 46 43 40 38 35 33 33 31 31 26 22 21 20 17 16 16 15 15 14 13 12 12 12 11 11 12 13 13 14 15 17 21 24 28 30 34 36
68 65 59 51 46 53 56 51 50 47 47 41 42 39 38 36 33 33 31 27 24 21 20 17 16 16 16 17 15 14 14 14 14 13 14 15 16 16 18 20 22 26 29 30 34 36 39
71 66 59 51 49 59 57 53 50 49 48 42 43 40 39 36 29 29 29 28 26 22 18 17 17 19 19 21 19 17 16 15 15 15 18 18 19 20 22 23 27 31 35 35 38 43 46
71 63 58 51 50 61 58 53 50 48 49 46 45 42 40 34 31 29 29 30 29 25 22 21 22 20 19 18 17 18 19 19 20 20 21 22 23 25 26 29 33 35 36 39 43 49 52
65 63 57 51 52 62 59 53 50 47 43 47 46 44 41 37 33 32 31 31 32 29 26 25 23 22 20 20 21 20 21 21 22 23 25 26 28 28 31 34 34 35 42 45 49 54 56
66 63 57 52 53 62 60 56 52 45 45 50 47 45 41 38 33 31 25 29 33 34 31 28 24 24 24 24 25 24 24 24 26 27 28 30 32 34 35 34 38 42 47 51 54 60 58
66 62 56 50 54 62 60 60 55 48 47 49 48 46 42 38 33 31 29 29 31 32 32 31 30 26 26 27 26 28 29 30 30 32 33 34 34 35 37 42 44 48 53 56 61 64 63
66 61 54 48 52 61 59 60 59 51 48 49 49 46 42 39 35 31 31 31 35 36 32 30 32 31 30 30 30 29 29 29 28 31 34 34 38 42 48 50 53 54 58 62 66 63 62
64 58 54 53 51 55 59 59 60 54 49 47 50 47 43 42 39 32 26 28 33 35 36 36 35 35 34 34 33 32 31 31 32 34 38 40 43 49 53 57 58 62 65 68 67 66 66
64 60 56 54 52 51 58 61 62 58 52 48 47 48 48 41 39 37 37 32 28 30 32 35 38 40 39 38 36 35 33 35 37 39 45 47 52 56 57 60 65 68 71 72 70 70 72

GFSGBSN_250_spd_009.txt.gz
Wind_Speed
82 79 77 75 66 58 64 68 69 61 60 57 40 34 35 36 34 31 30 27 26 21 19 23 26 30 32 30 32 33 36 36 35 36 33 32 31 36 36 31 32 40 49 56 62 68 70
86 79 69 70 62 59 62 64 65 58 55 52 34 33 34 36 35 28 24 22 17 15 16 19 24 28 29 30 30 31 30 31 34 32 30 29 28 32 33 32 34 40 42 48 56 61 65
90 83 66 61 59 58 59 58 58 53 52 46 33 32 33 35 30 23 20 17 14 15 17 21 22 23 23 25 26 28 30 29 27 30 32 33 30 31 33 36 43 37 37 41 47 52 56
87 75 61 59 53 55 51 53 54 49 49 43 29 30 34 30 23 19 16 14 14 14 17 19 21 22 23 26 28 29 28 28 30 31 33 31 30 30 31 36 39 36 35 35 38 42 47
82 74 51 57 51 52 48 48 49 45 45 34 28 30 28 22 17 15 15 15 16 17 18 19 20 22 25 26 27 27 26 27 25 25 25 27 28 29 30 31 35 38 37 38 38 41 42
80 65 43 50 52 49 42 47 44 41 41 27 32 24 20 16 13 14 15 18 19 19 18 18 19 20 21 23 24 24 26 28 28 28 28 30 29 31 34 35 35 36 38 40 42 40 38
75 59 46 48 48 44 41 46 41 38 34 28 27 16 16 14 13 17 19 21 21 21 20 20 20 21 21 22 24 25 24 24 24 25 24 25 26 26 26 28 34 36 37 37 37 35 38
68 58 46 46 50 43 37 37 39 34 29 26 19 14 15 16 19 21 20 21 21 22 22 22 21 22 22 22 22 23 24 24 23 25 24 25 24 25 25 26 30 32 31 30 27 28 32
65 53 51 48 49 48 38 36 38 32 27 20 16 14 20 21 21 20 19 19 21 21 20 20 20 20 22 22 19 20 20 21 21 19 20 24 24 24 22 23 24 25 24 24 23 24 27
67 61 52 53 46 44 39 35 35 33 25 17 15 16 24 22 23 24 23 22 20 18 19 19 18 18 18 19 19 16 15 15 16 18 20 19 17 17 16 18 21 22 23 22 21 21 21
65 62 52 50 46 47 39 34 35 31 19 16 17 20 22 25 25 25 24 24 23 22 18 18 15 20 18 16 17 17 17 19 17 17 18 17 18 14 16 18 18 21 21 22 20 18 16
74 67 57 52 48 49 38 33 37 29 18 21 22 25 27 28 27 27 25 24 24 22 20 18 15 18 18 17 17 18 16 15 16 15 14 16 16 15 15 15 17 18 17 18 18 18 13
69 65 56 51 49 48 36 37 40 28 22 28 27 29 29 29 28 26 25 25 24 21 18 18 18 18 18 17 18 17 18 17 17 17 16 15 14 14 14 14 15 15 14 12 9 5 7
67 63 54 53 53 45 35 42 40 28 30 33 33 33 32 30 28 26 25 24 24 22 22 21 20 22 23 21 20 18 19 19 17 15 14 14 14 14 12 9 7 4 2 2 2 2 4
66 56 54 52 54 39 44 45 39 29 37 33 34 36 33 30 29 28 27 24 24 24 23 25 26 24 21 17 16 14 13 13 12 12 12 11 12 11 10 10 7 4 2 1 3 5 8
52 45 50 54 47 45 49 48 36 37 41 39 38 36 34 33 32 31 29 25 23 22 26 27 22 19 18 16 13 13 13 12 14 16 17 16 14 11 9 6 3 1 4 6 8 11 14
46 50 53 47 48 53 52 49 37 44 42 40 38 36 36 36 35 33 28 25 23 27 26 23 20 19 17 12 12 13 12 16 19 17 15 13 11 8 4 1 2 5 8 10 13 15 18
49 50 51 50 51 57 55 46 41 49 43 39 38 37 39 38 35 32 28 27 28 26 23 21 20 17 13 12 14 14 15 17 17 15 14 10 7 5 4 4 6 8 10 13 16 17 19
53 53 52 52 59 58 55 45 48 51 43 41 40 41 41 37 34 32 30 29 27 24 23 22 19 14 14 15 15 16 17 16 15 14 11 9 8 8 9 10 11 11 13 16 20 22 24
57 61 57 61 63 59 52 47 54 50 45 44 43 42 41 37 34 32 30 27 24 23 23 21 17 16 16 14 15 17 16 16 14 11 11 11 12 13 13 13 14 16 18 22 26 28 28
63 62 63 67 64 60 51 51 56 49 46 44 42 43 42 34 35 34 30 27 24 24 23 21 18 18 18 16 17 18 18 18 15 13 14 15 16 16 17 18 18 20 23 27 28 27 32
65 64 72 68 63 59 52 55 56 48 47 45 44 45 42 41 39 35 32 28 25 24 23 22 20 20 20 18 16 16 15 13 13 14 16 18 19 20 22 23 24 26 28 30 29 31 37
68 71 74 68 62 59 53 58 54 48 48 46 45 44 43 39 37 35 34 31 28 25 25 24 22 21 19 17 17 16 15 17 19 19 20 22 23 23 26 25 26 31 34 31 33 39 43
70 76 74 67 61 60 54 57 54 48 51 50 47 44 43 39 39 38 33 33 31 28 26 25 24 21 19 18 19 19 19 21 19 20 23 26 27 28 29 29 30 36 38 34 39 46 48
74 78 74 66 62 58 55 57 55 50 51 52 46 44 43 42 42 36 32 31 31 32 30 30 26 24 24 24 24 23 22 24 24 24 27 29 30 32 33 35 33 38 39 43 47 51 54
73 77 70 64 61 57 56 58 55 52 53 50 47 46 44 44 40 34 32 28 30 33 34 33 32 29 27 25 25 26 26 26 27 29 32 33 34 35 34 34 36 42 46 49 52 56 59
76 74 66 62 58 57 58 58 55 51 50 52 52 50 47 45 41 34 33 33 33 34 34 34 34 34 33 31 29 29 30 31 31 33 35 33 32 34 38 38 37 46 51 56 59 61 65
76 68 65 57 56 56 59 60 56 51 47 48 49 50 48 46 42 38 37 33 36 35 33 34 34 35 34 35 35 35 33 34 34 35 36 37 38 40 42 45 44 53 55 60 64 65 69
69 65 63 56 56 56 58 59 56 51 49 47 50 48 49 48 45 42 39 36 34 37 35 33 36 39 39 39 39 39 39 38 38 38 42 40 43 45 51 54 56 59 61 65 66 69 72

GFSGBSN_250_spd_012.txt.gz
Wind_Speed
74 77 82 82 82 79 82 85 74 72 72 70 70 68 65 52 42 38 37 35 32 29 29 29 29 32 34 34 33 35 33 32 33 33 30 26 25 26 29 31 31 32 37 42 42 46 48
76 79 84 84 82 79 84 85 72 65 69 69 64 58 56 44 37 37 37 33 29 25 25 24 26 26 26 28 31 31 30 30 32 31 28 26 21 20 21 28 31 29 30 33 43 45 47
79 81 85 87 82 82 82 87 67 65 66 66 65 57 48 39 35 38 36 29 24 22 19 18 19 18 20 24 27 27 27 27 28 30 27 26 24 25 24 28 32 31 28 28 30 35 42
80 83 85 84 84 82 78 81 63 59 62 60 61 49 40 35 39 37 31 25 20 16 14 14 15 17 22 25 25 26 26 28 29 27 29 28 28 26 27 30 31 31 27 28 26 26 30
89 91 92 90 91 87 77 74 61 57 56 53 57 46 34 34 38 30 23 17 14 11 11 14 16 19 20 23 26 27 28 28 29 29 25 27 27 27 28 30 25 22 27 27 28 29 30
95 97 96 94 97 91 77 68 59 52 52 48 48 37 34 33 30 21 15 12 12 12 12 13 16 18 17 19 20 24 27 28 27 23 23 24 25 26 25 26 25 24 26 30 32 34 34
102 98 99 100 96 78 67 61 57 52 42 40 43 32 34 30 20 15 13 13 14 16 15 15 17 18 20 20 18 17 18 19 20 23 24 24 25 26 27 29 27 26 27 29 33 35 35
108 107 100 96 80 63 61 56 55 46 38 34 35 29 35 23 14 12 11 15 19 17 18 18 17 18 20 22 22 21 21 22 22 25 24 24 25 27 27 28 28 27 24 26 30 32 32
112 108 99 81 70 59 56 51 52 40 31 32 30 27 32 18 14 13 14 18 17 16 16 16 16 17 18 19 20 20 21 21 23 23 23 22 22 22 23 23 22 19 22 26 28 26 24
95 89 80 70 66 53 52 51 46 32 27 28 26 27 25 16 13 15 18 17 16 17 16 14 15 15 17 17 17 16 16 17 19 20 19 18 21 22 22 21 20 17 17 18 18 19 19
70 75 70 68 61 50 51 47 42 29 26 25 25 26 17 17 16 17 17 17 18 17 17 17 16 17 18 18 18 18 17 17 16 14 15 16 17 19 19 16 16 17 17 13 10 11 13
70 72 67 65 57 51 47 42 41 24 22 22 25 23 16 19 19 20 21 22 21 20 19 18 13 16 16 15 15 15 15 15 17 15 14 16 18 16 14 12 12 10 9 8 8 9 12
73 73 71 65 59 57 49 44 34 26 20 23 29 23 21 22 23 22 22 22 21 21 19 16 16 18 18 17 15 13 12 13 13 14 16 16 14 16 15 11 9 7 7 9 9 12 16
74 76 71 65 63 59 46 42 32 28 23 26 31 24 28 26 26 24 23 22 23 21 20 17 17 16 13 12 12 13 13 14 15 15 12 10 12 13 11 9 8 8 7 8 7 6 5
81 74 74 67 64 59 46 40 32 32 27 31 33 31 30 29 27 25 24 25 24 21 20 17 17 17 17 16 16 15 14 13 12 12 13 15 14 11 10 8 10 11 8 6 6 6 6
87 72 78 69 66 59 50 40 34 34 31 37 36 38 34 32 29 27 26 25 23 20 19 20 20 18 18 16 15 14 14 15 16 15 14 13 14 15 15 13 10 7 4 3 3 6 10
80 69 74 69 65 57 53 42 38 36 37 38 42 40 36 32 31 30 28 24 22 21 22 24 21 19 18 15 13 13 14 13 13 14 15 16 16 15 12 8 4 3 3 4 6 9 12
76 71 66 70 60 59 53 47 44 42 44 39 46 40 38 35 33 33 30 27 25 25 26 25 21 20 17 13 11 13 13 14 16 17 17 15 12 10 8 5 4 6 6 8 10 12 15
69 65 67 59 58 58 53 45 49 46 48 48 47 40 39 36 37 35 32 31 28 28 28 25 23 20 18 15 15 14 15 17 19 18 16 14 12 8 6 7 9 11 11 12 15 18 20
63 61 56 61 64 61 56 54 54 54 50 54 50 42 39 41 40 37 35 32 31 30 27 25 23 21 18 15 16 17 18 17 17 16 14 12 9 8 9 11 13 15 16 17 20 22 25
53 54 62 65 62 58 55 57 59 56 53 55 46 41 40 42 39 38 34 33 31 28 26 27 24 21 18 16 17 19 20 19 17 15 14 12 12 12 13 16 17 19 22 24 26 28 30
56 59 60 60 59 57 60 61 61 55 56 53 44 43 43 47 43 40 36 34 31 27 26 27 23 21 19 18 16 15 15 15 14 14 14 15 17 17 17 18 20 23 28 28 30 34 34
57 59 58 60 59 58 60 63 59 55 59 49 47 47 48 47 41 37 37 35 30 28 27 26 24 20 19 19 18 16 15 14 16 18 19 20 19 20 22 23 23 29 31 32 34 38 36
61 60 61 59 60 60 64 63 55 59 58 52 51 50 48 45 41 41 39 34 31 29 27 26 25 22 22 21 21 21 21 21 22 23 24 25 26 25 27 28 26 34 37 36 36 37 38
63 62 62 62 63 66 65 60 55 62 56 54 52 50 49 48 45 42 38 36 33 30 29 27 24 25 25 24 25 24 23 23 23 25 28 29 30 30 29 33 32 35 40 40 37 38 46
64 64 64 64 67 66 64 57 57 60 54 54 52 51 51 48 43 43 40 37 36 35 32 29 27 27 27 27 27 26 26 27 27 30 32 33 33 34 36 36 34 37 43 43 42 41 52
65 66 64 71 70 63 62 57 59 57 54 56 52 51 50 48 43 42 42 40 38 36 34 31 31 29 30 30 29 29 30 30 31 33 34 35 37 39 39 38 35 41 42 45 49 51 56
68 64 71 71 67 63 59 55 60 56 56 58 55 50 49 46 44 41 42 40 38 36 33 31 31 33 34 33 33 34 33 35 36 38 40 41 41 42 43 44 40 44 45 51 57 60 62
65 69 74 70 66 61 57 56 60 57 54 55 53 52 49 47 44 44 44 42 39 35 33 31 32 34 35 36 36 36 36 38 40 41 43 44 47 47 48 49 48 48 54 59 63 66 69

GFSGBSN_250_spd_015.txt.gz
Wind_Speed
73 75 79 81 79 78 66 62 62 70 78 83 85 87 82 74 71 66 62 44 39 40 37 34 31 30 27 26 25 25 27 32 34 34 31 31 30 28 26 25 26 28 28 33 33 32 35
77 80 83 84 81 78 72 67 66 69 80 83 88 85 85 76 73 65 49 39 42 37 33 29 28 25 24 23 24 24 27 30 32 30 30 29 27 23 22 27 30 29 28 28 31 31 33
82 84 84 88 84 81 75 73 71 71 81 85 90 85 83 73 72 58 42 41 38 35 28 26 22 18 19 18 21 25 29 30 30 29 28 27 24 24 22 23 25 28 26 24 21 23 26
90 88 85 93 83 81 73 79 74 75 84 86 89 81 78 71 62 53 41 39 32 28 22 17 13 13 10 13 17 20 25 27 26 27 30 30 29 25 22 19 21 23 26 24 21 21 19
90 91 94 88 78 78 76 78 73 79 87 88 84 73 74 71 59 46 38 34 26 18 14 12 11 9 8 12 16 19 23 25 26 27 28 31 28 22 24 22 20 21 23 24 23 23 23
96 97 91 78 76 77 78 80 78 80 89 90 76 70 70 62 60 38 32 27 18 14 11 10 11 11 11 13 17 19 21 23 26 30 32 29 26 26 26 22 18 19 22 22 26 29 28
102 93 83 82 79 77 80 84 83 82 91 87 71 67 67 58 47 30 24 19 15 13 10 11 11 13 14 14 15 18 19 20 23 23 25 24 23 25 22 22 22 22 24 25 27 28 29
98 86 84 83 78 82 85 86 84 83 88 76 65 63 62 55 33 23 19 15 15 11 13 11 11 13 14 16 19 17 16 15 17 22 23 22 23 25 25 24 24 24 24 24 26 27 27
94 94 85 90 87 88 88 92 89 89 81 66 58 55 55 41 28 18 16 13 12 14 13 11 11 12 14 16 18 18 20 21 21 20 20 21 22 22 22 22 21 23 23 23 22 22 22
101 97 92 95 97 97 95 93 90 86 77 63 52 47 45 31 22 16 14 13 14 14 11 11 11 12 14 15 16 16 18 18 19 18 17 19 21 22 21 19 20 21 19 18 19 20 20
117 113 109 108 103 100 97 95 91 80 71 57 46 43 37 25 17 17 14 13 15 13 12 11 11 11 13 15 16 16 15 14 15 16 19 19 18 18 19 19 18 18 18 16 14 12 15
129 121 116 112 104 99 95 94 88 68 65 48 39 38 31 19 14 17 16 17 15 14 14 15 14 13 14 15 16 17 18 18 18 18 18 18 16 14 15 16 18 17 12 12 15 17 19
130 127 118 114 105 88 87 86 75 65 58 41 32 35 27 16 18 19 17 18 17 17 16 17 16 17 17 17 16 15 16 15 16 16 15 15 14 16 17 18 18 14 16 15 12 11 13
123 121 112 106 93 74 75 77 63 59 50 38 31 32 21 16 20 20 20 18 19 20 20 18 18 18 18 19 18 16 16 17 16 16 16 15 14 12 12 13 12 11 10 8 7 5 4
108 106 98 92 82 72 76 73 61 54 42 31 31 32 23 18 23 22 22 21 22 23 22 20 20 18 18 18 18 15 14 13 14 14 14 15 14 12 11 11 11 10 11 10 9 5 2
96 97 93 88 79 76 77 70 62 53 38 35 35 36 26 25 27 26 23 22 24 23 21 18 18 16 16 14 12 11 10 11 11 11 11 10 10 10 12 15 16 15 13 9 7 7 7
92 95 93 84 79 82 76 72 65 52 42 36 37 37 27 31 31 28 25 25 25 23 21 19 19 17 16 15 13 12 11 11 10 10 10 11 13 16 19 18 15 11 9 7 7 7 7
83 84 79 74 79 82 76 73 66 54 41 37 38 40 30 34 32 30 28 28 27 23 22 22 20 19 17 14 12 11 11 11 11 12 15 19 20 19 17 13 10 8 6 7 8 8 10
76 75 72 70 77 81 78 73 63 55 43 43 41 44 35 38 34 33 33 31 27 25 23 24 22 20 17 15 13 12 13 13 15 18 21 20 19 16 12 8 7 7 8 10 12 14 15
73 72 72 69 75 75 80 72 64 54 49 48 47 45 37 42 41 37 37 32 29 26 27 27 24 21 20 18 15 16 15 15 18 18 17 16 15 11 9 8 8 9 11 14 16 18 21
72 75 69 66 70 78 76 72 65 58 51 52 50 42 42 42 40 39 40 34 31 30 31 30 25 23 22 18 17 17 16 17 17 16 16 15 13 12 11 12 11 13 15 19 21 25 27
60 62 64 62 69 73 74 69 65 62 57 52 52 43 47 50 46 44 40 36 34 34 34 30 28 26 22 20 20 18 18 18 17 17 15 14 15 16 15 14 16 19 22 25 27 30 30
59 60 62 59 62 69 73 74 68 60 57 54 51 51 52 51 47 43 42 39 38 38 35 32 29 27 24 23 21 19 18 19 18 18 19 19 21 19 18 19 19 24 30 30 32 33 34
61 59 58 57 62 66 70 66 65 60 61 60 52 56 55 51 48 46 43 39 39 39 35 32 30 28 24 24 23 22 22 22 22 22 22 23 24 22 23 25 23 32 36 36 35 38 38
63 57 56 62 66 67 67 64 63 63 63 57 59 60 57 53 51 47 43 40 42 38 36 32 30 29 26 25 26 25 25 25 25 25 25 27 26 26 27 29 29 36 39 41 41 40 42
59 59 62 65 64 65 61 62 65 65 63 59 63 59 56 54 50 50 45 41 41 39 35 33 32 30 28 26 26 26 26 25 26 28 29 29 30 31 33 32 33 39 43 44 43 40 45
62 64 63 62 62 62 63 67 66 64 58 64 62 60 56 54 52 49 44 43 43 39 36 33 30 29 29 28 28 28 27 26 29 31 32 34 34 36 37 37 37 42 44 44 47 47 48
62 61 61 63 64 65 65 65 63 59 62 61 61 57 55 55 52 48 44 44 43 40 37 33 31 31 30 30 29 29 29 31 33 34 36 37 38 40 42 43 43 46 47 48 48 50 53
61 63 63 62 62 60 62 61 62 58 65 59 58 56 54 53 52 49 46 44 43 40 38 36 35 35 35 33 33 32 34 35 37 38 40 41 43 44 48 50 50 48 50 51 53 58 61

GFSGBSN_250_spd_018.txt.gz
Wind_Speed
70 71 67 62 62 64 66 71 71 74 78 75 69 70 72 76 80 88 93 78 73 69 59 47 38 31 28 23 22 23 22 27 29 31 33 33 35 32 30 25 25 26 27 27 28 31 30
71 72 68 66 66 67 70 71 70 73 79 76 68 68 72 77 83 89 90 80 73 64 58 43 34 28 24 22 20 20 22 25 28 31 28 28 27 24 22 25 27 27 27 25 23 27 27
74 73 71 71 72 71 71 73 71 75 77 75 66 69 71 80 82 88 86 78 71 61 49 35 30 23 19 17 17 17 22 22 24 26 25 22 22 26 30 27 27 26 27 27 23 21 23
79 76 75 74 74 76 73 73 73 76 77 72 65 72 74 81 84 88 84 76 64 57 40 31 23 18 13 12 11 16 21 22 23 23 24 27 32 33 30 27 25 26 27 26 25 21 18
81 79 76 76 80 82 74 77 75 80 77 70 64 68 74 79 84 87 80 70 61 50 32 23 20 14 9 7 9 15 21 23 24 24 25 30 34 32 28 27 26 27 27 28 27 24 23
83 83 82 82 82 83 80 79 81 79 77 68 67 69 74 77 81 86 75 63 55 38 24 19 15 9 6 6 10 15 19 22 25 27 30 34 34 31 29 26 24 22 21 26 28 28 27
90 90 87 86 83 85 87 82 83 80 76 68 68 71 74 76 77 83 77 62 49 28 20 16 11 10 7 8 11 13 17 20 23 27 33 34 33 31 28 26 24 23 23 25 27 27 28
96 97 94 91 89 86 83 87 82 77 71 71 72 71 77 79 79 79 71 55 39 24 18 13 10 10 10 10 11 12 19 20 24 27 32 33 33 29 25 26 27 25 24 22 22 23 25
97 94 95 92 91 88 90 87 83 77 72 75 72 75 80 80 79 79 64 49 30 20 15 12 11 9 11 12 16 18 18 18 19 24 27 30 28 26 24 27 27 25 22 22 24 24 25
100 97 93 93 97 94 90 85 82 78 75 78 75 76 78 81 78 77 55 41 25 18 14 13 11 10 12 13 15 18 21 23 25 23 24 24 23 23 24 26 25 25 25 24 24 24 22
102 101 99 99 97 89 89 89 84 80 77 80 77 83 76 77 78 73 50 34 23 19 16 15 12 11 12 15 17 20 20 21 21 22 23 22 21 21 22 24 25 25 24 21 18 17 21
110 106 97 93 90 90 87 86 84 86 78 82 81 83 82 80 78 66 45 30 20 18 18 16 14 13 15 17 19 20 21 22 22 22 21 19 19 21 23 23 22 21 20 19 20 21 22
122 122 115 103 98 100 95 87 87 87 84 85 84 85 82 82 73 57 45 23 20 19 17 16 15 15 14 15 16 19 21 22 21 21 20 20 19 20 19 19 19 18 17 19 19 18 16
132 131 128 117 109 105 99 94 90 90 86 88 84 87 82 74 65 48 36 20 19 17 17 16 17 18 18 18 17 16 16 17 18 19 20 21 21 19 17 16 16 18 19 18 17 16 13
129 130 128 122 115 110 104 99 95 92 89 90 91 88 73 64 54 39 29 20 18 19 18 18 17 17 17 17 18 18 18 18 18 18 18 19 18 16 16 19 21 20 18 17 15 13 10
117 119 123 123 119 115 112 105 100 96 92 85 87 77 60 52 48 36 25 22 23 23 20 19 19 17 16 16 15 16 17 15 15 14 14 17 18 19 21 20 18 15 13 14 12 9 7
96 100 114 118 120 119 114 111 107 100 87 78 73 53 52 45 41 34 26 25 27 24 20 21 21 21 20 18 18 17 16 15 15 14 13 14 16 16 17 15 15 16 15 12 10 9 9
88 90 94 101 110 113 114 115 110 103 82 73 61 52 52 47 36 35 29 28 28 24 24 26 23 20 18 18 17 16 15 14 13 14 14 16 17 18 20 20 20 17 13 11 10 11 12
78 82 91 95 98 96 98 102 99 89 75 75 55 51 50 44 38 38 32 31 29 26 27 27 23 20 20 19 16 14 14 14 13 14 18 19 22 24 22 19 15 13 14 14 14 16 17
69 76 83 90 94 93 92 89 85 81 76 72 58 55 49 41 41 41 35 33 32 30 28 27 24 23 23 21 18 16 15 14 14 18 21 22 23 21 18 17 16 14 15 16 16 17 20
67 73 81 87 88 86 83 80 77 76 78 70 57 55 47 43 43 44 37 37 34 31 29 28 25 25 24 21 18 16 14 15 20 22 23 23 22 20 18 16 15 16 16 18 20 21 25
65 69 78 74 74 73 75 77 79 79 75 65 62 55 45 49 49 48 39 39 35 34 32 29 27 28 25 21 19 18 18 18 22 22 22 23 22 21 21 20 18 17 20 22 24 26 30
67 70 66 60 65 69 73 76 78 76 70 64 65 55 48 55 52 49 42 42 37 37 34 31 30 30 26 24 23 23 22 22 24 24 24 24 24 25 25 21 20 23 26 26 29 31 33
63 62 62 65 67 66 66 71 72 72 70 71 66 58 52 56 50 50 48 45 42 40 37 32 34 32 29 26 26 25 25 26 26 27 28 28 28 27 27 25 24 30 31 33 33 36 36
58 61 63 65 64 68 71 70 70 72 72 75 66 59 60 55 55 52 51 47 44 40 37 35 36 34 32 29 28 27 28 28 29 29 29 29 29 29 29 30 30 33 36 39 38 39 39
58 62 63 62 61 63 65 68 70 75 78 73 69 63 62 56 57 56 53 48 45 41 39 38 37 35 34 32 30 30 30 30 31 31 31 31 31 32 33 32 34 38 40 41 42 42 45
63 63 62 59 59 62 66 69 74 76 77 71 66 67 64 61 59 57 52 48 45 43 41 41 38 37 35 35 33 32 32 32 33 33 33 33 33 35 35 36 39 41 42 43 45 46 49
58 56 58 57 61 65 69 71 72 76 76 69 67 69 63 61 57 57 54 49 47 44 43 44 40 38 37 37 35 33 31 33 35 35 35 35 35 37 39 41 41 43 45 47 50 53 55
57 58 58 60 62 64 66 67 70 71 70 73 70 64 65 59 58 56 54 51 49 46 44 43 39 37 37 38 37 34 34 34 35 36 37 38 39 41 44 46 46 45 47 48 49 52 55

GFSGBSN_250_spd_021.txt.gz
Wind_Speed
60 60 63 67 61 62 57 57 61 61 60 63 64 62 63 73 76 77 74 74 78 83 83 79 64 55 43 36 31 26 24 21 22 25 25 31 37 40 37 35 29 28 23 24 27 30 34
66 67 69 68 65 63 60 61 63 62 63 64 66 64 65 74 79 78 76 74 79 81 84 76 64 54 40 31 28 21 19 17 18 20 23 24 30 33 32 24 26 24 28 28 28 25 26
71 72 74 73 73 67 66 64 66 63 62 65 65 65 69 75 78 78 77 76 79 81 80 73 59 47 35 27 23 17 16 16 19 22 25 26 26 24 26 27 28 27 29 30 25 24 20
76 78 76 70 71 71 69 68 66 65 63 66 67 69 67 76 79 74 73 75 80 79 80 66 51 41 32 25 21 15 14 18 20 25 26 27 30 31 29 31 31 30 32 31 27 23 22
80 78 76 74 75 76 73 71 66 63 64 67 67 69 69 74 78 73 72 73 79 77 71 58 47 35 28 22 18 11 13 18 19 24 28 29 29 30 33 32 30 30 31 30 28 27 22
80 78 80 79 76 72 71 69 65 66 67 69 69 70 72 74 76 75 72 73 76 77 63 52 42 30 25 18 13 5 13 20 21 25 26 28 28 34 33 32 33 30 27 25 28 29 29
82 83 82 76 72 73 71 72 72 70 70 70 71 73 72 75 74 75 73 72 73 75 66 50 38 25 22 15 9 4 13 20 26 26 25 25 32 37 35 32 28 27 26 25 25 27 31
84 83 81 79 80 76 76 75 77 74 72 71 72 73 72 78 72 76 71 72 73 73 70 48 33 22 20 14 8 6 12 19 25 27 28 31 34 34 31 30 29 25 25 24 25 27 29
89 90 86 85 84 82 82 79 79 76 74 74 72 73 74 76 73 75 71 72 74 73 63 43 29 21 19 13 10 9 13 18 23 27 31 35 34 33 31 29 26 25 26 25 24 23 23
95 91 86 88 88 90 88 85 82 80 77 76 74 76 70 74 71 71 72 69 74 72 60 45 28 21 19 13 12 14 15 15 20 26 31 36 34 33 31 27 25 26 27 25 23 22 24
97 98 96 94 91 94 93 90 86 84 80 77 76 77 69 71 72 69 72 72 75 72 61 42 27 22 19 15 13 16 19 23 23 24 29 32 32 31 30 27 25 28 27 26 25 24 29
108 104 102 101 95 90 96 94 86 85 82 79 77 72 69 70 70 68 69 75 74 70 60 41 26 22 20 16 17 16 17 21 24 25 26 30 28 26 25 25 26 27 27 29 29 27 26
109 107 100 94 95 90 94 91 83 83 82 76 73 73 73 70 71 70 71 74 73 72 53 38 26 23 20 17 17 19 20 20 23 25 25 24 25 24 25 26 27 28 28 26 25 24 19
120 116 109 103 99 92 93 91 81 80 79 79 78 76 76 75 72 68 67 71 71 69 48 32 24 22 22 19 19 21 24 24 25 26 26 25 25 27 26 25 25 25 23 22 20 19 17
122 118 115 110 100 95 91 99 86 80 84 84 83 82 79 77 72 69 67 70 68 67 43 28 24 23 22 20 19 19 19 20 22 24 27 26 26 25 23 23 22 21 20 19 18 16 15
120 123 122 118 112 107 102 100 96 88 87 87 88 87 85 77 72 69 66 71 68 56 37 26 24 22 21 20 19 19 19 19 19 19 20 23 22 21 22 22 21 19 18 17 17 16 15
119 121 126 128 123 120 113 107 103 97 93 94 92 87 82 76 72 69 66 70 72 45 36 26 25 21 21 18 17 18 17 18 18 19 20 20 22 23 22 20 18 19 20 19 17 17 18
104 109 117 122 125 123 122 117 111 103 100 95 93 89 80 77 73 73 69 71 64 42 34 29 26 22 21 21 22 21 20 20 21 22 21 22 22 22 22 22 21 21 21 19 17 17 15
93 95 101 105 115 121 120 119 113 107 100 98 93 89 85 80 79 77 75 78 52 42 35 32 25 24 24 25 24 23 22 22 21 21 21 21 23 22 22 22 23 22 20 20 19 19 17
82 86 91 92 98 107 116 115 113 109 105 100 100 92 87 85 79 74 75 68 50 42 36 32 28 28 28 27 25 23 22 21 20 19 20 23 24 24 24 23 23 22 22 21 21 20 20
72 77 80 82 88 92 100 105 106 107 103 103 96 88 91 81 72 68 61 54 49 41 37 33 31 31 28 26 26 24 22 21 20 21 22 24 25 27 25 25 23 22 22 24 24 23 25
62 66 69 74 84 87 86 88 97 97 99 95 85 85 81 73 65 57 56 50 46 43 40 36 35 32 29 29 28 24 22 20 20 22 23 26 27 27 27 25 24 24 27 26 26 27 28
57 60 65 71 78 84 82 78 82 86 78 83 82 81 74 60 48 58 56 51 46 43 41 38 35 32 32 33 29 27 24 21 23 26 27 27 27 28 28 27 27 28 28 27 29 31 31
56 58 63 70 74 76 73 74 76 71 70 77 74 69 61 55 50 59 56 52 47 44 42 41 37 34 35 33 30 28 25 22 24 29 30 30 29 30 31 29 29 33 31 32 33 35 36
55 60 62 67 72 69 65 72 71 65 68 68 67 66 61 52 66 65 57 52 51 46 43 43 39 37 36 33 31 29 26 25 27 31 32 32 32 33 33 34 35 36 36 37 37 40 38
56 59 60 59 52 55 63 62 65 70 66 67 61 60 56 67 67 63 55 55 51 45 44 45 39 39 37 35 33 30 28 27 29 31 32 33 34 36 37 37 38 39 39 40 42 42 45
53 53 52 52 54 60 63 60 62 64 62 66 61 63 65 72 70 64 52 54 53 49 47 47 42 40 39 37 34 33 31 31 32 33 34 35 36 37 38 39 41 41 41 43 44 47 49
46 51 57 62 66 70 68 67 66 65 69 68 62 67 77 76 67 59 57 55 54 51 48 48 44 39 41 39 37 36 35 34 35 35 36 36 37 39 40 42 41 43 42 46 48 49 52
56 60 62 63 63 62 64 63 65 66 67 66 63 73 78 74 64 58 53 55 53 56 53 51 47 43 42 37 39 37 38 38 37 38 38 39 39 41 43 44 42 44 47 48 51 54 54

GFSGBSN_250_spd_027.txt.gz
Wind_Speed
65 66 67 66 63 62 59 64 63 51 54 56 56 59 59 63 64 64 64 61 59 62 64 67 67 67 74 68 56 45 40 35 28 19 13 13 20 22 32 42 41 43 35 31 33 53 49
72 73 72 67 64 64 63 60 61 54 51 54 56 57 59 63 63 64 63 60 59 62 64 67 69 70 75 65 54 43 40 34 25 15 12 9 15 20 31 39 37 32 30 31 41 48 45
78 75 71 69 67 66 65 63 62 55 55 59 55 56 57 63 63 62 64 58 59 61 62 66 68 71 71 59 46 40 38 34 24 11 9 10 13 18 28 36 29 25 32 31 35 43 44
73 74 76 70 67 67 67 63 58 57 58 64 58 58 64 63 65 61 62 58 58 60 62 66 67 67 74 58 45 37 35 34 22 8 6 8 15 25 32 36 35 35 33 31 32 43 47
72 72 71 69 68 68 67 59 60 60 58 54 56 59 63 66 65 59 60 58 57 57 62 65 65 66 70 59 46 37 33 32 18 6 7 8 18 31 34 31 33 32 35 36 36 34 38
77 75 73 70 67 68 68 66 69 62 56 58 60 62 65 64 62 59 60 57 57 58 61 62 66 64 65 59 43 34 31 30 15 7 7 8 18 31 29 31 32 35 42 39 37 33 30
78 78 78 71 72 67 68 65 68 66 63 64 64 69 63 62 60 61 59 58 55 58 58 62 63 61 61 60 43 35 30 28 19 11 6 11 17 27 31 35 33 35 36 34 34 30 26
81 77 78 76 77 74 72 70 70 70 67 66 68 68 66 64 61 59 57 57 57 56 58 62 59 57 60 60 41 33 27 24 19 13 10 12 22 26 31 31 29 35 30 29 29 30 29
91 87 78 80 77 77 78 75 72 72 70 65 67 67 68 64 60 57 59 58 56 55 58 59 56 53 56 60 43 34 25 20 18 10 11 12 15 22 23 26 25 27 26 22 21 23 24
105 101 94 87 82 78 82 84 80 77 75 68 65 65 67 59 61 61 57 60 56 56 55 59 53 52 53 58 44 33 24 18 14 11 15 14 15 18 21 20 18 20 19 21 21 21 25
111 112 103 92 92 88 82 87 87 82 76 70 69 71 67 62 65 61 63 56 55 56 56 54 51 48 49 52 44 33 28 17 13 11 11 16 16 17 17 18 20 21 20 21 21 23 26
111 109 107 101 98 92 87 87 89 81 80 72 74 75 68 67 66 62 63 59 57 55 59 51 47 45 49 48 42 28 25 18 14 15 15 12 16 19 21 23 23 23 22 22 22 22 24
118 115 112 106 102 98 97 88 91 86 83 78 77 77 73 71 73 64 66 60 54 57 57 51 47 45 43 44 42 31 23 24 14 17 18 15 14 19 20 23 23 22 25 22 22 24 30
117 118 119 113 109 104 101 96 94 93 89 84 81 79 79 77 75 71 67 64 53 60 61 51 48 43 42 40 43 42 24 22 21 16 19 18 15 17 23 24 24 29 27 24 25 27 29
114 118 115 117 110 110 105 101 99 96 95 91 85 83 81 81 77 73 68 59 57 66 55 50 48 42 38 40 41 48 32 22 22 21 19 26 23 24 26 26 29 29 27 27 28 30 26
116 116 113 113 111 110 107 104 104 101 99 95 90 85 84 85 77 77 67 53 58 61 53 53 49 40 41 40 38 47 34 26 18 19 20 26 31 29 28 26 28 27 29 28 26 26 28
109 113 115 117 111 109 107 108 107 107 104 99 94 86 88 89 81 75 62 60 64 62 57 55 55 46 44 43 38 40 30 27 20 18 21 27 32 35 28 27 33 33 31 29 26 26 27
98 105 109 116 120 113 106 103 108 110 107 102 96 87 92 90 84 76 67 65 68 60 55 55 57 52 46 44 40 33 26 25 23 19 22 23 24 26 25 25 26 30 27 25 23 23 26
95 95 101 106 116 118 110 104 101 105 102 102 97 97 96 94 85 71 67 68 69 59 56 55 55 53 50 50 42 35 29 27 25 22 24 25 26 25 23 26 23 24 24 24 25 27 28
85 85 90 95 103 113 113 110 109 109 101 98 95 101 101 93 79 71 68 66 68 61 52 54 56 50 50 51 46 41 31 28 27 25 25 27 28 28 28 28 25 28 26 28 28 31 27
75 77 81 88 93 99 111 112 113 110 110 101 97 92 85 82 71 66 68 65 67 54 54 56 56 53 51 51 43 35 30 31 30 25 24 27 29 28 29 30 28 28 28 30 30 33 27
67 70 75 78 84 94 103 101 105 111 116 111 93 89 86 84 82 72 68 61 62 56 57 58 57 58 55 50 47 44 30 35 32 27 28 28 28 28 29 29 28 30 32 33 33 30 27
60 64 68 73 78 84 89 97 97 104 110 104 93 98 93 88 81 77 65 69 62 59 60 62 61 59 56 55 48 49 34 35 33 31 28 28 29 29 31 32 32 35 34 32 31 27 28
54 58 62 66 71 74 81 89 92 92 98 92 96 102 98 93 83 71 74 73 66 60 64 65 67 63 58 56 55 47 35 36 36 34 29 30 26 28 30 29 30 33 33 31 30 26 28
49 54 57 60 64 68 74 80 85 78 79 87 100 103 101 94 85 82 79 71 72 69 68 67 64 66 59 60 57 47 36 38 38 37 33 29 26 28 28 28 29 29 30 30 30 30 33
47 50 52 54 58 63 67 72 74 71 70 81 86 91 95 93 80 80 82 78 76 74 73 67 66 66 62 59 51 42 39 40 39 39 35 31 26 27 29 29 29 29 33 34 33 33 39
42 45 49 53 56 58 63 67 66 66 64 67 71 80 88 83 83 83 81 75 78 77 71 67 66 64 62 56 45 40 42 42 42 41 36 33 30 29 30 32 33 32 37 36 38 40 44
44 44 46 50 54 58 59 61 62 60 57 59 62 69 79 80 79 84 86 79 79 75 68 70 67 60 52 47 41 43 45 43 42 41 39 38 34 30 32 34 37 38 37 40 41 44 48
40 42 47 50 53 55 57 59 57 54 59 60 59 65 73 70 64 70 79 77 72 67 62 65 61 49 49 45 45 46 47 45 43 42 41 41 37 35 34 35 36 37 38 41 43 49 47

GFSGBSN_250_spd_030.txt.gz
Wind_Speed
71 65 67 68 59 63 62 65 63 60 58 56 56 55 62 57 53 53 54 56 58 60 61 61 59 62 66 66 69 71 62 50 45 36 23 17 16 18 17 18 38 39 39 30 22 27 33
67 68 67 60 64 68 64 64 60 60 60 57 57 58 56 59 54 54 49 51 56 60 61 59 58 61 64 66 66 70 59 47 41 30 18 15 11 14 17 24 37 39 35 33 23 31 39
69 69 71 71 68 68 64 64 66 63 60 60 59 57 56 54 54 53 51 55 55 58 61 57 57 59 64 65 63 67 56 45 37 26 18 13 10 10 16 35 32 33 24 24 27 33 37
69 68 69 72 70 68 68 67 66 65 61 61 63 58 58 60 57 52 51 53 55 57 56 55 56 58 62 62 61 64 53 41 35 26 21 13 8 9 19 36 31 30 29 29 38 39 36
68 71 69 69 70 74 72 67 67 67 65 61 63 58 54 57 52 47 50 51 55 58 56 53 54 56 60 60 58 62 50 38 33 27 23 14 12 10 18 36 31 32 30 32 40 41 40
76 72 74 72 70 66 66 63 63 60 61 63 62 62 62 54 52 51 52 54 57 60 54 51 51 54 56 58 56 57 48 38 34 27 23 16 9 12 22 33 28 28 34 36 37 41 42
91 77 73 71 71 71 70 65 63 64 60 60 62 64 61 59 57 56 56 55 59 56 53 49 49 52 54 56 52 53 45 34 30 24 21 19 8 18 24 29 29 29 28 32 33 36 43
95 87 76 75 71 69 66 66 68 63 63 60 60 59 59 60 58 59 57 54 57 54 50 50 48 49 53 52 49 52 45 34 26 22 19 18 12 16 21 20 22 26 27 30 35 30 34
105 99 91 85 79 78 74 69 67 68 64 61 58 58 62 61 60 58 55 54 54 52 49 49 49 49 52 49 47 45 44 32 23 19 18 15 13 10 18 20 21 22 26 28 28 28 30
105 106 98 91 84 82 83 78 70 72 68 64 62 63 65 63 62 61 60 55 54 51 50 48 49 49 49 46 45 39 42 34 22 17 14 14 13 8 12 18 22 25 25 32 31 29 32
110 113 106 103 95 93 89 90 76 73 73 70 69 68 68 67 68 65 58 56 54 51 47 50 48 47 49 43 44 39 39 31 21 17 13 10 11 15 13 18 23 24 24 26 27 25 26
110 114 117 115 111 100 96 95 91 85 81 73 74 73 72 70 72 65 62 60 58 51 51 53 51 49 50 48 40 37 39 37 22 17 16 12 10 10 14 17 19 23 24 23 24 27 25
111 113 115 115 116 115 107 102 99 93 88 83 77 76 75 72 74 68 67 61 58 51 54 53 50 49 48 45 36 35 37 40 25 20 18 15 9 9 13 16 17 19 22 21 23 27 26
112 111 109 111 114 115 119 113 109 109 102 93 88 83 80 77 75 71 70 65 55 54 59 54 47 48 49 42 34 35 35 35 33 24 21 20 13 12 11 16 17 23 22 25 26 26 25
111 114 111 106 107 107 108 106 107 103 98 95 96 87 82 85 76 74 71 61 55 58 63 54 47 47 46 42 36 37 37 35 31 24 24 23 23 15 18 18 23 23 28 27 26 29 29
105 109 114 115 113 108 107 106 102 103 100 95 95 88 87 90 80 80 74 58 55 64 65 55 49 48 48 43 38 40 39 34 34 30 22 23 24 23 20 22 23 25 28 28 28 30 31
95 101 106 113 116 116 112 108 107 107 104 101 96 92 89 94 84 83 67 58 57 67 65 57 51 50 48 45 38 31 38 36 38 34 24 23 21 22 22 21 25 28 29 28 30 33 33
88 93 99 103 112 118 119 114 114 111 108 105 100 96 92 93 88 80 70 64 65 71 67 61 56 53 50 43 34 36 35 37 35 33 26 23 23 20 19 21 26 31 34 31 33 32 32
82 87 89 96 102 110 116 120 119 115 118 116 108 104 97 98 88 78 72 69 70 75 65 58 58 58 46 43 42 36 34 35 33 27 27 24 29 20 18 19 19 22 22 22 25 26 28
76 80 83 85 93 100 107 116 122 119 115 115 116 112 103 103 84 83 78 76 73 74 66 59 59 57 51 46 45 38 37 38 31 28 25 24 28 24 21 19 19 22 22 24 23 28 30
70 75 77 79 84 91 98 108 115 117 120 120 117 111 99 94 83 83 79 74 71 73 65 60 60 54 52 44 45 38 37 37 37 33 25 24 28 26 25 23 21 24 29 29 29 31 31
67 68 70 71 75 84 91 100 106 112 115 122 115 106 99 93 95 91 86 74 76 76 67 58 60 56 52 49 41 36 39 41 38 37 27 24 28 27 26 25 23 26 30 27 28 29 30
63 63 65 66 68 73 85 93 96 105 114 110 105 104 100 99 99 92 82 77 74 75 66 63 59 55 50 48 42 46 48 46 42 39 29 26 30 28 28 26 25 28 31 29 32 31 30
60 61 60 60 63 69 77 83 89 98 101 94 100 102 95 94 96 87 83 77 76 73 68 65 61 54 48 48 44 45 48 47 47 42 31 30 29 30 30 26 27 32 30 32 32 32 30
56 57 57 57 61 65 70 77 82 92 85 84 90 97 97 94 93 89 80 75 82 79 69 66 60 56 52 48 48 46 49 49 47 43 35 32 32 31 28 28 28 30 30 29 27 27 27
49 51 52 55 57 60 66 72 79 77 78 78 82 88 91 91 89 87 84 82 79 76 71 65 59 56 50 51 52 50 53 52 47 48 35 34 35 34 33 30 28 31 31 26 24 24 31
46 49 53 55 55 58 63 68 71 71 74 75 77 81 86 87 91 91 83 81 84 82 73 63 60 56 53 54 57 62 59 53 46 43 36 35 37 36 35 32 31 34 30 29 27 32 35
44 46 47 49 50 53 57 62 64 65 70 70 71 76 84 90 91 89 88 86 84 81 72 66 64 57 60 59 61 63 60 54 50 42 35 35 39 40 38 36 35 34 33 33 34 38 40
39 41 42 44 47 51 53 57 60 64 66 65 67 71 84 88 88 89 91 89 81 78 74 68 63 62 62 61 62 64 64 57 50 42 34 38 41 41 40 40 38 36 37 38 41 42 43

GFSGBSN_250_spd_033.txt.gz
Wind_Speed
61 61 61 67 67 71 67 64 61 59 55 54 57 59 61 60 56 54 52 51 53 56 53 57 61 61 59 68 69 67 74 74 73 57 48 36 27 19 15 18 15 26 27 22 22 18 19
63 62 62 63 63 64 73 74 68 61 64 59 59 61 59 59 56 55 55 48 51 55 57 57 59 58 61 66 66 65 71 73 68 51 44 31 26 17 11 14 15 30 33 27 20 23 22
62 68 67 64 63 61 58 59 64 68 58 58 61 58 58 55 57 56 56 50 52 57 51 50 52 54 62 65 61 64 69 69 64 48 43 28 27 15 10 12 16 30 32 25 27 27 20
69 61 67 63 63 62 62 61 61 61 64 63 64 61 61 62 58 56 54 52 50 50 46 46 51 54 61 62 59 62 66 65 62 46 42 28 26 18 10 11 20 33 31 31 32 22 22
77 64 65 69 63 59 63 63 60 63 66 67 66 65 62 61 59 58 56 55 53 47 49 47 51 54 56 56 55 60 64 63 60 42 40 25 28 20 10 11 25 30 26 28 33 25 25
81 75 74 74 69 66 58 63 60 59 57 60 60 60 58 57 57 58 55 53 54 54 48 50 51 51 51 51 53 57 61 60 60 38 36 23 24 22 7 20 19 17 20 20 23 23 26
87 84 83 74 77 68 72 66 64 65 62 60 59 61 56 54 52 54 55 53 52 50 48 49 51 53 49 49 49 54 56 57 58 39 35 24 24 21 7 22 21 19 22 23 25 28 31
103 107 96 84 80 79 77 78 67 62 65 64 62 61 57 54 52 52 51 51 49 50 49 45 47 48 47 45 47 51 56 58 54 39 33 24 21 20 6 9 22 18 19 22 25 29 28
119 107 106 103 98 93 89 87 82 79 66 67 62 56 58 57 53 52 51 50 51 52 46 41 47 45 43 41 46 49 55 57 52 41 27 23 15 17 9 7 12 16 20 24 27 27 31
110 120 122 116 106 99 98 91 92 88 80 67 63 60 54 53 54 55 51 51 52 51 46 45 43 43 41 43 47 48 51 50 51 42 25 20 12 12 11 10 16 15 19 19 24 30 30
107 105 110 116 117 113 109 104 102 100 93 85 73 65 60 55 57 57 55 56 55 53 45 47 44 45 43 44 45 44 47 45 49 41 25 17 12 8 14 11 12 13 21 21 22 32 32
113 108 104 106 103 103 108 106 94 96 95 96 82 76 66 62 63 60 59 60 57 54 48 48 47 45 45 43 44 41 45 40 43 43 29 19 11 8 10 9 14 14 18 21 23 29 28
110 110 106 104 104 102 98 101 99 95 91 94 88 81 77 70 66 64 65 65 60 54 52 52 49 46 44 45 43 42 43 41 41 44 35 20 14 11 9 10 12 17 20 23 24 27 25
105 108 108 106 106 105 102 99 99 97 93 97 92 87 81 79 72 68 68 66 58 51 55 54 54 47 47 45 42 41 43 44 39 37 40 23 16 15 16 11 13 16 20 26 26 23 22
98 99 103 107 106 107 102 101 99 105 100 99 100 93 87 84 82 79 74 68 57 59 61 55 55 45 49 48 44 43 42 45 35 35 37 29 19 15 19 19 16 18 21 26 28 27 24
92 93 94 99 103 105 103 102 106 106 106 106 105 102 92 94 90 86 75 65 62 63 63 57 51 45 49 47 46 43 42 42 32 30 34 31 23 18 19 24 21 17 20 23 27 25 23
85 87 88 92 96 101 102 104 107 106 106 109 111 110 102 103 98 93 77 69 67 73 69 62 54 45 49 46 48 46 47 41 32 30 29 31 22 21 19 22 22 20 20 21 23 28 26
77 81 83 88 90 96 101 103 105 111 109 112 109 109 103 109 104 90 80 73 73 78 73 65 56 49 50 50 49 46 49 43 34 29 30 30 27 21 18 18 22 26 26 26 28 28 30
73 78 79 83 86 90 95 104 107 107 113 114 112 106 106 113 109 90 84 80 77 78 72 68 60 49 50 49 48 48 47 45 40 30 28 29 30 25 19 18 21 22 24 24 27 30 27
71 73 76 78 82 86 90 98 106 108 111 116 116 115 106 113 96 90 86 80 76 79 74 68 63 54 52 53 48 50 50 47 43 35 27 28 29 27 23 19 18 23 24 23 22 23 21
71 71 74 75 76 81 85 92 101 108 109 115 117 115 104 96 87 82 79 79 80 80 69 64 60 54 54 55 50 52 51 48 41 35 31 30 31 27 25 21 21 23 26 25 23 23 21
68 69 71 72 72 76 81 86 95 102 108 114 112 107 102 93 93 87 84 76 76 79 71 64 60 59 60 57 54 54 53 50 43 37 38 35 31 29 25 22 23 26 27 27 20 21 23
63 66 68 69 70 72 77 83 90 99 105 103 97 105 102 95 94 89 78 78 78 83 76 68 66 62 61 54 54 55 52 48 44 39 36 35 34 30 28 22 21 26 30 24 23 23 25
57 63 65 65 67 70 74 79 86 95 96 91 93 103 103 97 95 84 83 81 79 79 77 73 69 63 61 59 54 54 52 48 44 41 40 36 33 30 32 26 21 31 29 29 27 26 26
54 58 61 61 63 64 67 73 80 87 85 86 90 90 97 99 96 96 90 83 86 85 79 75 68 66 71 66 58 53 50 49 42 43 42 42 38 33 31 29 25 32 31 31 28 27 27
50 54 57 58 58 59 63 68 76 79 82 80 85 86 85 96 99 102 98 90 83 83 85 77 73 72 67 62 56 54 49 48 43 49 47 49 46 37 32 32 27 35 30 33 30 28 30
47 50 52 53 53 56 60 65 70 74 75 77 79 83 84 82 98 106 95 92 91 91 81 78 71 66 62 56 54 53 49 50 45 49 52 51 47 41 38 33 30 37 30 34 33 37 32
44 45 47 49 51 54 60 62 66 70 70 72 75 76 77 80 92 97 101 98 94 89 77 70 68 66 58 53 55 55 54 49 50 55 58 56 48 48 41 36 33 37 36 37 40 39 37
39 42 45 47 51 54 57 58 62 62 63 66 69 71 74 80 80 88 88 90 85 86 79 72 64 59 54 54 54 58 52 53 52 56 60 56 50 51 45 39 37 39 40 40 41 41 42

GFSGBSN_250_spd_036.txt.gz
Wind_Speed
55 48 49 55 61 57 56 60 63 65 68 66 53 54 49 53 54 47 48 51 53 58 53 55 50 52 57 59 61 66 69 74 77 77 72 61 53 42 34 19 13 7 12 12 13 16 14
63 55 53 51 56 56 53 56 56 58 61 66 65 61 61 57 59 56 55 53 53 54 52 53 49 50 48 51 57 64 68 70 74 74 70 61 53 38 26 11 5 11 17 15 16 17 22
64 62 59 52 50 50 51 56 59 55 54 57 59 64 69 67 49 55 58 56 57 53 52 51 47 51 49 53 56 63 66 68 69 70 67 60 52 36 23 11 3 11 19 20 19 23 21
71 68 67 59 56 56 59 54 57 58 57 56 59 58 52 54 59 58 58 56 57 55 52 51 50 50 53 52 54 61 62 63 66 68 66 58 48 34 26 15 10 17 22 18 17 13 11
72 74 73 69 63 67 63 61 56 57 55 56 53 54 53 54 56 55 56 55 53 53 53 49 47 50 49 48 54 57 57 59 62 67 67 54 42 30 23 11 4 19 20 16 18 18 15
73 76 75 80 77 76 69 67 62 63 60 56 55 50 54 56 57 57 56 54 53 49 52 48 45 43 44 49 51 53 53 55 60 63 66 51 38 27 19 7 1 6 12 14 20 21 12
102 99 99 99 93 91 91 82 77 66 62 61 58 52 47 48 53 53 51 52 47 46 49 44 44 42 44 45 48 50 50 51 57 61 62 50 35 28 19 8 4 3 5 11 8 19 17
109 107 105 104 105 102 99 92 90 77 70 66 64 58 56 53 53 53 52 53 47 48 42 40 40 38 39 40 44 46 48 50 55 59 60 50 33 29 18 13 10 8 7 10 12 14 17
119 116 116 113 108 103 105 101 92 87 81 77 67 65 62 58 50 52 52 53 51 46 33 44 40 38 38 39 44 44 47 48 51 56 55 47 33 29 18 13 7 12 12 13 15 16 19
124 122 117 115 114 112 108 100 102 87 87 85 76 74 66 66 61 54 53 54 53 45 41 43 40 37 40 40 43 43 46 47 48 53 53 48 34 26 21 9 10 10 10 13 14 15 19
130 129 125 116 114 110 107 109 106 101 100 94 90 81 71 68 70 64 57 55 50 44 39 44 40 39 39 39 41 42 44 44 45 49 50 49 40 25 22 12 5 11 12 16 16 18 20
117 117 114 116 112 108 106 105 102 99 107 108 96 88 81 81 74 71 65 59 53 47 43 47 42 41 38 37 39 42 44 42 43 48 50 50 43 29 23 17 11 10 14 15 21 17 19
108 107 106 108 106 108 107 102 100 93 98 105 103 102 98 92 90 78 71 69 61 47 51 47 45 43 40 39 43 42 44 41 43 48 47 50 45 33 23 20 14 12 15 18 20 20 20
101 102 104 105 103 104 105 101 99 93 93 95 103 103 105 94 92 81 76 72 62 52 54 50 48 49 47 40 40 41 44 41 41 44 44 48 46 34 21 20 18 14 15 17 20 19 20
93 96 98 99 98 100 102 102 99 95 94 93 102 99 95 98 106 100 95 82 66 63 60 58 56 49 44 41 41 40 43 41 37 42 44 46 44 37 24 19 20 16 13 16 20 21 19
84 85 89 94 94 95 98 101 99 99 95 96 99 101 94 98 101 95 92 73 71 71 66 60 56 49 45 42 41 39 41 41 40 43 44 44 43 39 29 21 18 17 16 15 19 22 25
82 81 81 86 88 90 93 98 100 102 98 98 101 98 94 100 102 96 77 70 70 72 72 64 58 51 47 43 45 42 43 43 41 41 44 40 43 42 34 23 18 17 22 21 17 20 25
80 81 80 80 84 86 90 94 99 103 102 102 99 92 97 101 104 88 77 72 72 76 72 68 60 55 51 50 48 48 45 44 41 44 47 42 43 42 39 26 22 19 21 23 27 29 30
79 78 78 79 81 84 86 91 95 101 101 101 99 94 101 105 102 83 81 79 80 79 75 70 64 60 57 53 51 52 49 45 41 43 46 44 44 41 41 30 23 18 19 20 24 28 30
72 75 76 77 80 81 83 86 92 97 99 101 101 102 104 103 91 89 87 83 80 82 79 72 67 65 62 55 55 52 49 48 45 45 44 45 43 38 37 31 23 19 20 21 20 21 23
64 69 74 72 76 77 79 85 88 93 95 102 101 101 96 89 87 85 88 84 82 83 81 78 72 67 64 58 56 54 50 51 48 46 45 44 44 42 40 33 27 22 20 20 22 25 25
59 64 68 72 74 71 74 82 86 91 95 102 95 92 92 85 93 93 89 84 82 84 82 77 73 70 64 57 57 58 53 53 49 45 45 43 46 40 39 34 29 22 25 24 24 23 23
52 57 63 68 70 66 70 78 83 89 93 91 84 86 86 83 90 94 81 82 81 85 81 77 73 69 62 60 63 60 54 51 49 45 44 45 46 45 41 35 28 25 29 23 20 21 23
47 51 56 62 65 62 66 73 79 80 80 85 81 84 83 79 86 86 84 81 82 81 80 75 71 68 62 68 66 61 55 53 47 42 44 45 45 45 41 33 29 33 32 29 22 23 22
41 44 51 57 60 58 61 67 72 74 79 82 78 80 82 82 86 95 90 86 80 82 76 74 72 68 69 68 67 62 57 54 42 42 47 44 46 45 42 40 33 36 36 32 28 24 27
37 42 48 52 53 54 57 63 67 69 76 78 76 77 81 84 87 95 94 89 82 81 78 70 74 75 72 70 68 61 56 50 47 46 48 48 47 44 47 45 37 41 40 34 31 28 35
35 41 44 46 49 51 54 58 63 66 71 74 74 74 78 79 87 91 88 90 85 84 80 77 72 72 74 70 65 61 57 52 49 46 48 48 50 45 46 46 44 44 43 36 34 40 32
34 38 41 43 46 49 51 53 59 64 67 70 73 72 75 78 84 88 90 90 88 85 80 78 81 75 71 70 66 58 55 48 46 47 47 49 50 48 50 48 48 47 46 39 36 41 37
33 35 37 38 41 45 48 51 56 58 61 65 70 73 74 76 80 89 87 91 89 88 90 83 77 70 63 61 58 56 54 50 43 48 49 51 54 49 48 50 51 50 47 43 37 38 40

GFSGBSN_250_spd_042.txt.gz
Wind_Speed
65 64 65 62 58 58 60 61 54 51 48 48 44 43 46 44 44 42 44 50 47 50 49 48 41 44 46 50 49 47 49 51 55 61 58 56 60 64 69 58 54 43 23 10 5 9 10
67 65 66 65 64 60 57 61 57 52 52 53 45 42 40 41 39 44 48 48 46 44 43 46 48 53 54 51 47 47 46 50 54 57 53 52 56 62 64 55 52 37 15 4 2 6 9
68 68 68 67 66 62 60 61 63 58 54 54 53 50 43 43 39 40 36 39 43 43 41 44 51 48 49 47 44 46 46 50 52 53 49 49 52 59 62 55 50 31 6 2 4 5 5
76 75 73 68 67 66 58 63 64 66 61 56 57 51 48 42 34 31 34 35 38 42 44 44 48 45 37 40 43 45 45 49 47 46 45 45 49 56 57 53 46 32 1 8 6 3 8
81 79 75 74 76 70 69 64 69 68 70 65 61 58 47 43 39 36 32 32 38 39 44 44 44 38 38 40 44 44 45 44 40 39 42 43 47 52 54 48 41 34 5 7 5 5 8
82 81 75 76 81 80 76 74 71 73 72 70 65 65 56 48 45 41 38 37 38 40 39 39 40 40 40 38 41 39 41 36 32 37 39 40 46 48 52 45 36 31 7 3 5 6 9
87 88 82 82 85 87 80 81 76 64 67 77 68 66 58 54 53 56 45 42 37 38 37 36 37 37 38 36 37 40 37 33 28 34 39 39 45 46 48 43 36 29 11 3 4 11 10
86 89 92 92 89 87 79 71 74 69 65 73 74 68 66 65 62 58 56 43 43 37 41 38 39 38 36 35 36 34 36 36 28 33 36 38 44 43 45 43 39 24 14 4 2 4 14
90 90 89 89 90 89 86 91 83 85 78 73 78 74 72 69 70 64 65 61 51 45 43 47 41 40 38 36 36 36 36 28 26 32 35 35 41 40 42 43 41 24 18 10 5 4 7
101 98 99 98 100 100 94 97 96 90 89 92 83 83 80 76 74 74 72 71 65 60 53 53 53 42 32 33 34 35 34 30 23 30 34 34 37 38 39 42 35 26 19 14 10 11 13
109 109 110 110 106 108 107 103 100 99 94 94 92 96 92 86 84 84 82 78 71 71 64 55 54 46 45 36 38 35 32 30 22 30 32 33 34 36 37 40 36 37 22 18 13 12 11
113 112 114 115 114 114 115 115 114 111 106 103 99 100 99 95 93 95 91 87 82 77 68 60 59 57 51 41 38 37 33 32 21 29 33 33 33 34 37 39 38 32 28 18 17 15 15
103 105 108 109 114 118 120 122 120 119 118 117 114 111 110 107 103 102 101 96 93 80 71 60 60 60 59 46 40 41 36 30 25 29 34 31 29 31 35 38 36 32 33 22 17 17 17
96 97 98 99 102 104 108 109 110 110 111 112 113 114 112 107 117 112 111 108 98 80 69 64 62 63 58 49 42 43 40 33 33 31 37 31 28 28 33 36 40 35 29 28 20 18 19
93 94 96 96 98 98 100 102 105 105 109 110 111 108 108 105 108 118 113 107 86 77 70 64 63 64 61 52 48 45 44 38 37 34 38 34 26 27 31 35 39 38 31 32 26 22 19
88 90 92 93 95 96 96 98 101 102 104 107 106 108 103 107 109 111 112 94 82 74 72 72 71 67 64 56 52 48 48 42 40 33 41 37 29 27 30 33 36 38 33 29 31 24 23
83 84 84 85 87 89 92 94 96 99 100 104 106 105 101 109 115 117 107 83 84 78 80 75 75 73 73 62 58 47 48 47 44 37 37 37 32 28 30 33 36 38 35 34 29 28 25
80 83 85 86 87 85 85 85 88 94 97 99 101 100 98 111 120 108 94 81 80 80 86 82 81 79 71 67 63 56 53 54 49 44 38 39 36 31 30 32 35 37 39 36 29 28 25
76 77 79 83 86 85 84 83 83 85 89 92 93 96 102 113 113 98 84 87 84 82 83 81 83 83 76 73 67 59 61 62 51 47 45 48 40 36 31 34 35 37 36 38 34 26 28
70 71 72 75 76 78 84 84 82 83 85 86 87 94 101 106 97 91 85 87 85 83 86 84 86 89 80 75 72 68 67 63 58 53 50 51 43 41 34 34 36 35 37 36 36 30 29
65 66 68 69 71 72 75 78 81 80 81 82 80 85 87 89 93 85 85 81 83 83 84 83 88 86 83 80 74 69 70 65 63 57 52 54 44 44 39 36 36 35 37 35 34 29 29
58 58 61 62 64 67 68 70 74 76 76 75 71 73 76 81 89 85 84 79 81 84 87 81 85 87 84 80 79 75 72 67 65 59 55 54 45 46 42 37 38 36 40 35 34 31 28
49 50 53 55 58 62 63 64 68 71 71 61 59 69 71 73 83 82 80 81 81 85 88 84 87 89 83 79 84 79 77 71 64 60 58 54 47 47 43 38 38 39 39 37 38 33 30
41 44 46 50 55 59 59 60 64 63 56 51 62 68 65 65 73 79 77 84 88 86 89 87 86 84 80 80 82 79 77 73 68 64 62 57 51 48 43 39 36 45 36 40 38 37 30
35 37 39 44 50 53 55 55 57 56 51 56 59 62 63 66 75 80 82 86 94 93 91 88 87 84 83 83 81 78 76 72 70 68 64 60 54 48 42 40 40 43 42 41 35 40 32
30 33 34 38 41 44 47 49 52 51 49 54 58 64 63 63 69 80 83 90 94 93 95 94 92 89 86 82 81 76 74 73 74 70 66 60 55 51 44 41 37 51 46 43 39 41 35
26 28 28 32 36 39 43 46 48 49 50 56 60 62 56 64 68 75 82 91 96 98 97 97 94 88 85 83 77 75 76 77 71 68 64 59 54 50 46 43 43 52 44 43 38 40 38
20 23 26 32 36 39 42 45 46 48 51 58 60 55 56 60 69 76 82 91 100 102 101 95 97 89 86 83 78 73 75 76 73 68 64 58 55 48 47 44 41 53 46 45 44 39 39
18 22 27 32 37 40 41 44 47 48 54 55 52 53 54 58 69 76 83 92 97 102 101 95 86 85 82 77 77 74 72 73 72 66 58 57 55 53 49 46 49 49 46 46 44 42 40

GFSGBSN_250_spd_045.txt.gz
Wind_Speed
67 68 67 68 70 68 64 62 59 57 60 58 54 51 48 47 39 38 38 42 41 41 38 44 45 43 40 41 41 42 45 44 39 43 48 53 53 53 52 57 58 48 47 29 15 11 4
68 69 71 73 73 72 71 69 67 63 61 58 57 55 53 48 43 41 33 35 36 40 41 42 41 39 36 35 42 43 43 36 40 44 47 49 46 48 49 56 54 43 42 22 10 6 5
70 71 71 73 76 75 70 70 69 68 66 61 60 58 52 47 48 43 40 37 39 37 37 39 36 35 34 37 40 40 36 35 40 43 46 47 43 43 48 53 52 39 38 16 7 9 11
75 74 76 76 73 72 74 72 70 69 66 64 64 61 57 54 51 48 47 39 38 37 30 33 34 35 34 35 39 34 34 35 38 41 43 41 40 42 47 49 50 37 31 5 8 8 9
80 76 76 83 82 80 77 73 73 71 70 64 64 65 59 58 57 52 50 43 38 33 29 27 29 25 34 36 34 34 35 37 37 37 37 36 37 40 45 45 48 35 26 9 5 2 5
86 84 90 83 80 82 81 79 78 78 73 67 67 62 61 61 62 57 54 47 43 37 34 27 26 25 29 28 30 32 31 30 34 35 35 33 34 37 43 44 47 33 24 15 6 3 2
87 89 90 90 80 80 80 83 83 81 75 74 71 73 69 62 64 66 61 56 50 43 42 33 31 26 26 25 24 28 28 30 31 34 34 29 34 38 40 42 44 36 21 14 11 13 13
92 89 87 91 87 85 77 82 82 87 85 81 78 77 78 69 66 70 67 62 56 50 44 43 35 33 30 23 25 30 31 33 34 33 33 28 32 34 38 39 41 34 22 16 10 10 16
91 88 82 89 85 85 80 85 86 87 85 85 85 83 83 79 72 70 70 66 62 56 53 50 44 36 31 25 31 32 33 31 32 31 33 27 32 33 37 36 38 36 31 14 14 10 6
94 96 93 93 95 91 84 81 84 91 89 87 87 82 81 78 75 63 69 69 65 62 58 55 50 40 37 37 36 35 27 26 27 29 29 26 33 34 37 34 35 38 29 20 12 13 16
98 98 95 97 93 87 85 87 87 86 89 91 94 89 82 80 75 78 66 75 70 66 62 65 54 51 44 46 36 42 40 33 30 29 30 27 29 36 37 32 33 36 34 24 14 12 16
99 101 102 104 103 101 99 98 100 95 92 90 90 88 88 90 87 85 83 81 81 76 62 59 64 58 53 48 43 47 41 40 33 29 30 26 29 35 37 33 32 34 36 28 22 14 12
103 105 106 106 108 107 106 106 106 107 106 105 100 97 96 99 98 98 95 89 90 75 70 71 70 63 58 53 51 46 47 46 43 35 34 27 29 35 38 34 31 33 35 34 28 22 16
94 96 98 101 103 105 107 109 111 112 111 112 113 108 107 103 108 104 104 102 96 73 78 77 76 70 62 55 53 47 53 52 47 40 39 33 29 34 38 35 33 31 34 35 35 28 22
89 91 92 94 95 96 98 99 103 106 109 115 115 115 112 112 115 112 111 114 85 80 84 80 76 73 68 58 56 54 54 53 52 47 40 39 32 34 38 36 34 31 33 35 33 35 28
86 88 89 91 92 93 94 97 99 101 105 108 109 111 112 116 121 126 125 115 92 92 91 85 84 80 77 69 67 57 55 56 50 47 48 43 39 34 38 36 32 30 32 34 37 35 34
81 83 85 86 87 89 90 92 94 97 101 105 106 104 107 113 123 134 126 112 99 100 98 94 92 85 86 76 67 70 66 59 54 50 50 47 37 35 32 33 32 32 30 34 38 36 35
78 80 80 81 82 84 87 89 91 93 96 99 101 98 104 111 119 121 119 104 104 109 110 106 102 91 84 77 75 71 67 61 54 52 50 50 50 38 38 36 36 33 33 35 36 38 36
73 75 76 78 79 80 82 84 85 87 90 93 93 96 99 110 107 105 104 98 99 99 102 100 101 95 87 79 80 69 69 68 61 53 63 53 51 48 41 37 40 35 36 38 36 37 38
72 74 77 79 80 81 83 83 84 84 84 86 85 88 94 94 93 96 99 90 95 98 99 98 91 93 88 82 77 73 72 73 67 54 60 58 54 47 42 41 43 35 39 40 34 38 40
71 71 73 76 78 78 78 79 82 85 84 87 80 73 75 76 79 81 88 85 89 91 92 93 89 87 85 84 82 81 77 77 71 59 59 55 53 51 48 43 42 39 40 38 37 38 40
66 68 69 70 73 75 77 79 84 89 86 87 74 67 66 68 76 78 84 84 85 87 95 92 89 88 87 87 88 90 85 80 75 64 66 65 64 63 55 48 45 45 44 41 36 39 39
63 64 65 66 68 70 73 75 80 81 83 80 63 63 66 67 68 73 71 73 77 86 86 92 95 98 93 88 92 92 90 85 80 72 67 68 68 67 55 51 47 40 46 43 37 39 40
57 58 60 62 65 68 70 71 74 77 70 73 64 67 64 64 60 65 69 72 75 79 83 90 99 100 95 96 91 94 90 88 83 79 73 66 69 64 59 54 45 46 46 43 41 42 38
47 48 51 53 56 59 61 63 66 68 65 65 67 59 58 62 62 71 68 66 75 84 93 97 96 96 106 101 94 91 90 86 81 82 78 71 63 61 57 53 47 48 46 45 41 40 38
39 40 43 45 48 51 53 55 58 58 60 59 58 57 55 63 64 73 67 66 70 81 87 92 99 103 104 98 94 89 88 84 86 82 80 74 65 57 56 57 49 53 52 50 44 45 42
31 33 35 37 40 42 44 48 51 53 53 52 51 53 56 59 65 69 66 65 71 82 85 91 98 101 98 95 92 87 87 85 85 83 78 76 69 69 65 59 52 56 56 54 43 54 42
25 26 27 28 32 35 40 43 44 46 48 47 49 53 56 61 66 62 58 59 69 77 86 88 98 100 97 98 91 85 84 82 85 79 78 78 72 67 65 62 53 59 62 53 52 50 43
17 20 22 25 29 32 36 39 41 44 46 48 50 56 59 63 61 53 56 62 68 78 87 96 93 92 93 94 90 88 84 82 80 79 76 76 72 67 64 57 58 63 57 55 54 51 48

GFSGBSN_250_spd_048.txt.gz
Wind_Speed
82 75 69 69 70 70 66 66 65 66 67 64 61 61 57 55 51 53 49 44 45 42 39 36 37 37 30 38 37 36 31 31 35 40 33 39 43 42 44 46 49 54 49 39 30 16 16
83 71 68 68 73 67 69 67 63 65 68 68 64 64 61 57 55 54 54 52 43 42 38 39 35 38 34 33 34 31 27 32 38 33 32 37 39 40 39 45 49 52 45 34 23 17 16
80 70 70 70 72 70 68 68 69 66 70 72 71 68 66 61 57 54 54 52 47 44 44 34 34 37 37 33 30 27 27 30 32 30 29 32 35 35 37 41 47 48 42 30 19 23 23
77 68 74 76 72 79 71 69 70 70 67 72 72 70 71 68 62 58 53 53 48 47 45 38 35 29 28 29 29 25 24 27 26 27 30 30 33 34 33 39 45 45 41 25 13 15 22
72 76 76 79 79 76 76 73 75 75 71 67 70 68 69 69 65 61 57 55 54 51 46 45 36 29 27 25 21 21 17 20 22 24 28 31 33 33 31 39 43 43 39 24 14 5 20
77 81 78 81 86 81 78 80 79 80 78 76 71 68 69 68 65 62 64 59 55 52 46 48 36 25 24 23 20 17 18 22 23 26 27 33 33 32 30 33 40 40 37 28 16 4 8
80 80 89 82 86 82 84 82 85 82 79 81 78 74 73 71 70 64 61 60 58 53 47 48 40 36 27 27 20 20 19 20 26 24 30 31 29 29 28 31 39 40 41 33 16 9 11
86 89 85 92 89 86 81 82 85 88 83 79 78 71 74 77 75 72 67 62 57 55 51 52 45 45 36 33 28 24 18 24 23 28 27 27 27 27 26 34 38 40 39 32 20 9 7
83 93 93 89 91 91 91 92 93 89 87 87 86 80 76 76 77 76 72 71 65 64 51 58 55 51 50 38 37 28 21 22 24 26 26 26 23 25 24 33 36 40 37 35 26 16 9
90 87 96 98 95 93 94 96 98 96 98 90 92 85 81 80 81 75 74 73 71 72 65 56 59 54 52 48 40 37 32 25 26 26 24 26 26 23 27 28 34 37 36 36 31 20 12
90 89 88 91 95 94 95 98 99 97 94 96 93 88 85 86 81 84 84 78 79 75 66 58 60 55 58 46 46 39 38 33 32 32 28 29 26 27 31 27 32 35 37 36 34 29 21
99 97 97 95 94 94 94 94 91 93 99 95 96 87 90 87 89 89 85 86 86 80 68 65 54 57 58 55 54 52 41 38 38 35 30 35 29 34 28 29 30 37 38 37 32 33 29
94 96 99 101 103 103 100 100 97 96 96 97 92 90 95 88 93 93 89 90 90 77 66 63 56 60 59 60 59 54 51 42 39 39 34 35 39 35 31 30 29 36 38 39 36 34 33
88 89 92 98 100 104 110 111 107 105 104 100 104 99 94 92 95 94 96 96 93 66 68 67 63 65 66 64 62 63 50 49 41 36 36 37 33 39 33 35 26 31 35 37 38 37 35
83 84 85 87 91 96 103 106 110 118 114 110 113 107 102 95 101 102 100 96 78 82 76 79 77 69 73 75 67 61 61 54 46 42 37 38 35 43 38 39 29 33 33 33 35 38 37
80 79 80 82 86 89 92 96 99 106 110 110 107 106 112 111 114 114 111 103 75 79 83 90 85 79 74 80 81 74 60 54 49 47 42 38 38 40 41 41 32 36 31 32 34 34 37
76 79 81 83 84 85 86 88 92 96 100 102 105 104 109 113 119 118 116 101 89 91 92 95 94 93 89 87 86 83 69 61 56 50 46 41 39 45 41 41 36 30 35 33 35 37 34
70 72 73 76 80 83 85 87 89 91 93 95 98 98 105 109 111 109 110 107 105 102 102 103 100 94 93 91 92 80 74 68 63 58 53 46 46 46 44 45 42 43 39 37 37 37 36
67 69 71 74 77 80 82 84 85 86 89 91 91 95 100 103 98 98 101 103 102 107 108 108 106 100 98 95 93 85 75 74 72 63 56 52 49 50 48 46 42 43 42 39 37 36 38
62 64 66 68 72 72 74 77 80 83 86 88 90 91 91 90 91 90 95 94 97 98 103 113 114 111 106 101 97 89 84 79 77 68 64 59 53 51 53 52 56 49 43 38 38 36 39
60 62 64 66 68 71 72 74 74 77 81 85 84 80 82 81 80 83 89 89 93 94 94 105 113 112 110 107 104 98 94 87 83 74 70 69 57 57 51 45 56 56 48 43 39 37 40
61 64 65 68 70 72 73 73 74 77 81 82 74 64 71 70 76 77 78 81 82 86 88 93 100 103 110 111 110 103 102 95 90 77 73 75 60 63 65 53 53 58 53 45 39 43 41
63 65 67 68 68 69 69 69 73 76 81 77 67 58 55 57 62 67 64 70 74 80 82 87 92 101 109 108 113 114 110 106 96 88 81 74 65 67 65 54 51 52 54 51 45 47 42
63 64 66 67 67 68 69 70 73 77 80 80 64 67 61 57 61 55 65 69 68 72 77 85 93 97 92 101 111 107 106 102 97 96 87 75 72 71 66 58 49 52 57 61 54 49 46
59 60 61 63 64 66 66 68 70 73 77 81 64 59 62 55 59 67 65 63 70 68 68 79 84 76 88 105 105 109 102 97 100 91 81 78 77 74 64 61 50 50 61 64 57 52 48
53 54 55 55 57 60 62 64 66 68 71 72 62 65 59 55 54 64 73 73 67 69 67 68 73 80 93 102 106 112 111 106 94 85 82 81 80 76 72 67 57 51 58 63 60 46 53
44 44 45 47 49 52 55 56 59 62 66 66 62 61 55 55 58 63 65 70 71 64 65 70 72 82 91 92 98 96 98 101 97 90 83 84 84 81 76 72 66 51 61 63 51 54 58
36 37 39 39 40 43 45 46 50 55 57 57 59 57 54 54 65 60 62 69 64 64 67 64 76 83 89 94 94 96 99 100 91 85 81 84 84 86 80 77 69 68 56 53 59 62 56
28 29 29 30 33 35 37 39 43 45 47 51 53 55 56 60 56 58 65 63 60 65 69 74 67 77 87 78 86 88 89 92 85 83 80 80 78 82 82 78 71 73 65 62 64 64 63

GFSGBSN_250_spd_051.txt.gz
Wind_Speed
101 99 91 87 82 83 78 75 73 71 71 69 67 63 62 62 60 59 57 57 54 49 45 44 41 42 39 40 35 33 33 35 32 24 29 33 31 32 27 29 35 40 45 42 24 4 26
100 94 91 83 77 75 78 74 74 64 66 67 66 64 61 64 62 62 61 59 57 52 50 44 42 40 39 43 33 34 31 31 29 25 27 24 20 24 28 31 31 40 47 37 4 1 9
96 90 88 78 72 74 73 73 70 65 65 66 62 63 59 59 62 66 64 63 61 55 49 44 39 38 43 39 31 34 30 26 24 22 21 18 19 23 30 30 32 35 44 34 5 14 16
82 78 80 81 75 74 73 76 65 69 66 66 68 64 61 62 60 64 67 66 65 60 51 46 41 38 43 39 31 28 31 26 21 13 14 17 21 24 30 27 29 34 40 34 21 12 14
71 73 77 82 76 71 71 68 63 66 67 63 65 67 63 66 62 61 67 71 67 66 57 49 44 39 45 42 34 26 19 23 18 12 18 18 19 25 26 22 28 36 39 41 26 9 17
64 66 70 68 75 74 69 65 65 69 75 73 65 66 66 66 65 62 61 63 69 68 61 54 46 44 44 46 38 24 19 19 18 13 14 21 23 24 22 19 27 33 39 42 30 22 10
61 62 67 71 75 72 69 72 74 75 74 75 73 68 67 69 71 68 66 65 61 63 56 52 44 42 41 44 39 21 21 21 20 14 11 18 21 16 17 15 24 30 32 35 42 31 14
65 67 69 72 77 77 77 79 76 81 78 78 78 74 70 73 72 70 71 70 64 61 57 56 46 44 45 43 41 32 26 27 25 21 15 20 18 16 15 15 24 24 30 36 38 38 25
68 70 74 72 81 74 73 78 82 81 82 79 79 77 77 74 78 78 76 77 70 64 59 58 54 48 50 41 44 42 34 31 30 25 15 14 21 18 14 14 24 25 29 35 38 37 37
70 73 75 75 79 87 85 86 86 89 86 82 81 82 80 78 85 83 78 75 72 70 62 60 61 50 51 44 41 50 49 44 32 34 22 18 20 24 15 17 21 24 27 32 37 34 39
75 75 74 77 76 77 86 91 91 90 89 91 89 85 85 81 84 83 79 77 71 68 61 68 63 56 58 50 54 52 53 46 42 46 33 29 25 21 19 21 21 20 25 29 32 33 34
78 79 79 84 84 84 85 88 93 97 96 90 91 93 92 88 93 91 85 82 80 72 61 62 58 61 60 58 57 56 57 51 47 40 37 34 31 29 30 27 20 24 27 25 31 30 34
78 80 84 86 91 92 91 95 96 88 92 98 95 93 98 95 99 96 96 93 91 77 66 70 63 61 64 62 61 58 54 56 51 50 44 43 34 32 34 28 21 25 28 22 32 30 31
76 77 79 84 91 95 98 97 97 95 94 94 98 98 97 102 100 101 101 93 95 83 72 78 78 68 70 66 66 66 60 57 54 53 50 45 37 35 31 29 23 26 31 32 32 31 31
72 72 73 77 81 91 98 96 101 100 99 98 97 96 99 96 97 93 93 90 78 77 77 83 84 77 72 71 71 67 63 57 58 58 54 52 42 39 31 35 26 26 32 33 33 30 35
69 71 73 75 77 80 84 92 100 103 106 106 104 101 98 102 102 99 96 82 78 75 76 84 85 79 76 73 75 76 66 62 62 63 59 49 46 45 37 28 30 32 31 32 33 27 34
68 69 71 72 75 77 79 82 86 89 94 97 100 103 110 111 107 106 95 86 80 86 84 86 87 84 80 77 74 76 71 68 66 66 63 56 49 45 42 31 28 27 33 33 35 30 34
64 66 69 72 74 76 77 78 79 82 87 90 91 94 106 111 109 110 100 96 97 89 94 94 88 85 85 83 80 77 76 74 73 72 70 65 64 51 45 32 33 29 27 33 36 38 34
62 63 65 68 70 73 74 75 76 78 82 85 86 90 93 95 92 99 110 108 108 102 103 95 95 90 87 82 87 89 84 80 80 77 71 71 67 57 50 45 38 35 29 36 40 32 35
55 57 59 62 65 68 71 72 72 73 78 83 85 86 86 86 87 86 92 98 101 103 105 105 106 103 97 92 88 86 92 89 87 84 80 78 71 57 52 51 46 37 35 37 45 38 43
48 50 51 53 57 60 64 68 70 72 76 81 78 72 77 76 79 84 87 91 93 91 96 105 106 112 106 103 99 92 91 94 94 89 84 83 74 64 54 56 48 39 42 39 42 39 42
45 46 48 50 53 55 58 59 63 67 71 79 73 69 72 74 76 77 77 77 86 89 85 88 97 111 119 114 109 104 99 97 98 97 93 87 75 72 63 57 58 47 44 42 41 41 39
45 46 48 50 52 54 57 58 61 65 71 73 66 64 65 66 71 73 69 71 76 83 80 84 90 100 104 99 106 112 108 106 102 101 97 93 82 77 68 63 62 54 43 46 44 45 45
48 49 51 52 54 56 57 59 61 64 67 69 59 59 60 59 65 59 64 67 69 73 76 77 79 78 83 102 105 108 112 112 106 103 110 100 89 85 78 73 72 55 53 54 53 47 42
49 50 51 53 56 58 60 61 60 63 67 68 57 56 53 50 54 57 55 63 66 70 68 69 68 79 91 99 100 101 100 105 109 112 110 106 97 92 85 79 66 56 55 58 56 49 46
49 52 54 57 59 60 62 63 64 66 68 73 61 64 58 53 46 62 58 60 65 65 67 63 64 81 87 92 91 91 90 90 101 108 113 110 105 101 93 85 71 57 58 62 60 46 48
50 53 56 58 59 61 62 63 63 66 67 70 64 63 61 51 53 58 57 61 68 65 63 60 66 77 83 84 84 80 79 86 93 100 107 110 114 103 96 89 73 68 64 72 64 46 58
45 47 49 51 52 54 56 59 61 62 64 64 60 62 63 51 52 48 53 60 63 62 61 65 76 74 72 68 69 72 73 80 87 96 97 102 109 104 100 93 84 76 71 74 64 66 67
37 37 39 41 43 45 48 51 54 57 57 56 56 59 60 52 48 43 47 58 59 62 65 68 67 71 58 61 56 66 71 81 87 95 98 97 99 96 93 82 77 76 74 75 75 73 71

GFSGBSN_250_spd_054.txt.gz
Wind_Speed
108 109 108 107 106 101 104 100 103 100 99 91 80 79 72 71 69 67 67 61 58 54 53 49 47 40 39 40 38 40 39 35 29 26 27 28 27 26 22 23 25 22 29 36 37 25 20
114 114 117 112 114 107 108 102 98 91 97 88 82 77 73 70 68 65 64 60 58 55 50 48 46 44 43 45 35 39 37 35 29 29 26 27 26 18 18 25 24 19 27 32 33 20 10
125 122 119 113 113 106 101 109 102 95 87 85 77 73 73 69 65 63 61 58 58 57 51 49 51 45 50 44 33 39 33 36 29 27 21 21 13 16 18 22 21 18 27 30 36 27 21
123 127 121 114 109 104 100 95 88 84 83 75 71 70 63 64 61 61 58 59 52 52 54 50 51 51 52 45 35 37 37 33 30 27 20 14 11 14 16 20 20 19 24 26 36 33 23
116 109 109 103 86 79 73 70 71 73 69 65 62 65 64 60 61 60 59 59 57 49 48 51 53 53 53 45 39 35 36 35 28 25 21 18 19 18 18 19 16 19 22 25 33 35 17
91 89 83 79 72 65 61 60 65 64 64 66 71 69 71 60 63 58 61 61 58 51 48 49 53 54 55 52 42 38 32 34 31 22 22 23 21 16 16 13 13 20 21 26 29 37 29
79 76 73 69 65 61 59 62 62 64 66 66 64 69 73 63 61 62 59 59 57 51 54 40 40 44 56 53 47 39 30 33 31 26 23 22 24 15 16 16 13 21 22 26 31 27 35
76 71 68 64 61 60 60 64 64 67 70 71 72 69 62 65 63 66 62 61 57 48 47 47 44 45 51 49 44 37 30 34 33 29 25 27 26 16 16 15 14 17 21 22 28 26 29
72 69 66 63 62 61 60 62 68 68 68 69 73 72 66 67 67 69 67 66 60 48 50 53 52 46 53 44 44 43 36 34 36 33 32 28 26 19 19 19 16 17 18 20 25 28 31
74 72 68 67 66 66 65 67 68 74 74 73 77 74 73 74 74 70 70 67 61 55 53 58 55 51 50 49 43 50 41 40 36 44 32 33 29 24 18 22 18 13 16 19 25 25 27
73 74 72 72 70 70 73 74 74 76 82 77 81 79 79 79 76 78 75 70 68 65 56 62 60 57 56 53 54 54 49 41 39 43 42 44 36 37 29 24 19 17 16 19 23 24 30
73 74 74 75 73 73 75 77 77 80 80 86 84 85 80 84 83 78 80 73 70 68 55 62 63 61 60 59 61 58 52 50 49 42 43 47 40 41 44 31 25 23 20 18 21 26 30
77 77 76 75 75 75 77 79 79 83 82 79 88 79 77 83 84 79 81 78 75 67 61 64 64 62 57 59 59 60 58 55 55 50 45 53 48 38 44 37 30 26 31 20 17 23 28
79 78 77 76 75 74 75 77 82 83 85 84 82 90 89 92 87 87 82 82 75 65 67 71 68 66 62 59 61 60 59 59 59 57 51 51 49 45 50 45 42 27 25 24 16 22 25
77 76 74 72 73 73 74 76 78 83 85 88 85 80 88 97 94 93 87 81 76 77 77 83 76 71 69 65 62 64 62 59 60 59 52 51 48 49 48 48 44 44 30 32 23 24 25
72 70 69 70 70 71 71 73 75 78 84 89 91 89 92 88 87 89 89 86 80 80 84 88 84 79 78 71 73 73 67 65 62 62 60 52 55 56 53 50 45 44 36 34 26 25 22
68 68 67 67 68 69 70 71 73 76 80 86 90 94 101 98 94 91 78 71 78 87 90 89 88 87 85 82 78 73 71 70 65 68 67 60 57 60 57 49 46 45 42 34 31 27 24
62 62 63 65 66 66 69 70 72 74 79 84 85 87 101 100 94 92 84 86 85 84 85 88 88 87 88 77 76 76 72 77 76 74 68 63 60 60 58 55 53 50 41 42 33 25 27
56 56 58 61 63 65 66 68 69 72 77 81 84 84 88 90 85 90 93 92 92 90 92 87 83 76 81 80 77 72 72 80 81 75 73 72 64 62 62 59 52 46 46 41 33 31 26
51 53 55 56 58 59 61 63 66 71 75 79 77 77 79 77 80 91 94 96 95 97 95 93 90 90 90 85 84 78 72 79 76 75 75 74 68 63 64 66 63 59 54 51 49 48 40
47 49 51 54 56 58 60 60 62 65 71 75 70 66 69 72 76 84 88 91 99 106 106 107 102 98 101 97 93 80 77 79 80 76 80 80 71 68 68 67 69 66 56 53 48 44 40
41 44 47 50 53 55 58 60 62 65 69 68 57 59 66 69 75 76 79 80 88 86 88 96 99 111 108 100 96 98 94 82 84 83 80 83 78 76 72 73 71 68 65 56 54 53 37
40 41 43 45 47 49 51 53 56 60 67 64 56 61 62 63 66 66 67 81 82 79 81 87 91 94 97 109 111 107 102 100 91 88 84 85 79 80 74 75 78 76 62 59 56 50 42
41 42 44 45 46 47 49 51 53 57 59 58 55 59 60 61 63 61 68 70 71 76 78 81 84 83 96 101 103 108 109 102 99 96 92 90 83 83 79 82 87 69 68 62 59 55 50
40 41 41 43 44 46 48 50 52 54 57 58 56 57 55 54 59 63 67 68 69 71 70 72 77 87 93 91 93 94 94 95 97 101 98 97 94 91 85 86 84 80 72 68 65 61 58
41 41 42 43 44 46 48 50 51 53 55 55 52 53 52 54 51 62 63 64 63 67 68 68 73 82 86 86 88 89 87 83 89 93 98 104 105 98 96 95 92 78 81 76 73 65 63
37 39 40 42 44 46 47 49 51 53 54 54 50 50 45 46 54 56 55 58 62 63 61 66 71 72 77 80 79 78 77 79 80 83 91 99 105 100 104 105 99 92 89 85 83 65 71
42 43 44 47 49 51 52 54 54 56 57 55 49 49 46 47 53 50 53 51 56 59 57 63 69 65 68 68 71 72 71 70 73 78 85 87 96 101 106 111 105 99 97 93 84 77 77
37 39 42 45 48 51 53 55 56 57 57 54 47 47 49 49 47 47 50 54 61 61 64 63 61 67 65 65 67 66 62 67 69 73 80 87 86 90 98 103 106 104 102 99 93 88 82

GFSGBSN_250_spd_057.txt.gz
Wind_Speed
100 102 103 109 109 113 112 112 112 113 113 115 109 97 94 100 94 90 96 84 79 73 69 63 58 53 47 46 46 39 39 34 32 33 30 28 29 30 30 30 26 26 20 25 29 34 32
102 106 110 113 113 116 117 117 114 111 107 97 111 105 98 95 96 95 89 87 81 74 70 62 56 51 45 50 38 41 42 33 34 30 29 27 29 27 28 22 18 23 21 22 27 32 30
102 105 117 121 125 122 120 118 116 111 107 100 98 107 109 108 95 94 91 79 77 72 68 59 54 48 44 51 39 44 44 36 35 31 29 25 26 26 20 19 18 17 18 17 25 30 31
115 120 119 119 120 119 114 102 103 109 111 102 100 95 99 98 93 89 81 73 74 68 63 58 54 48 48 48 43 48 42 41 36 31 30 27 26 26 22 20 20 12 14 19 24 27 32
116 119 119 126 115 117 107 104 96 87 80 75 68 72 74 74 70 68 66 68 69 63 61 55 46 46 53 48 46 48 48 44 34 31 28 29 27 28 23 21 17 13 18 15 22 26 30
111 110 112 111 107 104 97 88 78 69 61 59 59 61 60 61 60 60 62 63 59 53 54 53 47 45 49 49 50 49 48 41 33 30 28 28 30 32 29 24 15 14 17 19 21 20 28
110 107 106 105 99 90 80 74 69 63 57 53 52 53 58 62 58 56 62 58 56 50 49 50 47 50 46 47 51 52 48 45 42 31 29 29 33 33 30 26 18 17 21 18 21 19 24
108 105 103 97 90 80 75 68 65 60 54 51 52 55 62 69 63 58 57 57 51 47 47 52 51 46 49 40 42 49 50 47 43 36 25 31 35 28 29 30 21 19 21 19 18 16 22
103 101 97 86 82 77 73 67 63 58 55 52 51 57 66 66 64 57 63 59 63 55 49 51 56 53 48 41 40 39 40 45 42 34 29 31 38 29 35 28 23 21 20 17 16 23 19
99 95 88 82 80 77 73 68 64 60 58 56 53 57 68 70 69 67 69 66 63 61 51 51 54 54 47 40 36 51 44 46 41 41 32 30 36 34 34 31 29 24 22 20 12 22 22
90 87 84 81 80 78 76 73 67 63 63 60 59 61 67 71 72 71 69 64 63 49 55 57 54 53 47 46 49 55 48 43 43 43 32 39 35 38 36 33 30 28 25 23 22 21 23
85 86 84 83 82 81 79 76 73 68 65 66 64 64 69 75 77 67 71 66 68 63 55 57 57 58 52 48 51 54 48 45 48 43 39 42 39 36 45 41 32 35 37 30 25 22 26
87 86 84 83 82 80 78 75 72 70 67 69 69 68 74 76 79 75 71 73 71 65 63 63 63 59 58 54 54 56 54 52 52 49 44 52 43 44 41 41 37 35 40 32 27 22 24
85 83 81 80 80 79 77 77 73 72 66 68 72 72 74 79 82 79 75 75 72 66 73 68 66 67 62 60 59 57 56 56 56 54 53 53 50 49 48 43 41 38 31 35 35 22 26
81 80 81 82 81 81 79 80 78 74 70 68 70 75 78 80 80 87 80 73 74 71 73 73 76 69 69 68 57 60 58 56 57 60 58 57 56 57 51 49 43 38 37 38 34 34 29
79 77 78 79 78 77 77 77 78 75 73 72 68 71 82 82 81 82 82 78 74 76 71 79 74 71 69 68 66 60 64 59 62 57 58 59 59 62 58 52 45 39 41 40 39 36 35
75 74 75 74 71 70 72 73 71 70 73 74 72 69 78 79 79 80 74 68 79 78 80 76 75 72 73 72 70 69 67 66 66 64 56 58 57 62 59 50 50 47 41 43 45 36 39
69 69 70 66 62 62 64 65 67 66 71 72 72 68 76 75 77 78 73 73 80 87 87 84 80 78 76 74 73 72 71 68 66 65 58 59 58 61 60 58 55 51 44 46 45 42 40
64 64 62 59 55 55 55 57 60 65 66 70 68 67 78 73 66 73 81 83 78 81 87 89 86 85 81 78 81 81 75 75 76 72 69 66 66 64 64 62 59 57 49 49 49 45 37
58 56 55 53 51 50 50 52 56 61 63 65 64 67 71 68 66 75 80 87 83 85 85 80 79 76 78 85 81 79 83 87 81 78 73 72 70 68 66 68 66 62 56 54 51 46 45
51 51 49 48 47 48 47 50 52 55 59 60 58 57 64 65 70 76 79 87 93 91 92 87 83 75 75 74 73 75 86 92 87 87 83 79 70 70 67 73 71 67 62 58 53 50 48
47 47 46 44 43 43 46 50 53 54 54 50 53 55 62 67 72 73 74 77 84 93 95 96 92 91 89 85 84 79 76 73 71 67 68 68 67 64 67 68 69 73 65 61 57 56 54
45 45 44 43 41 42 44 48 52 54 49 46 52 55 60 65 70 67 70 76 81 84 94 105 104 100 97 98 96 93 88 80 71 70 72 72 71 71 66 73 70 62 60 68 62 57 55
41 41 41 41 42 42 43 46 51 52 49 49 50 53 55 60 66 64 68 72 76 82 87 91 93 97 107 103 96 94 92 90 87 84 80 75 78 79 76 78 76 60 67 70 68 64 62
40 40 40 40 41 42 44 46 48 48 47 46 50 52 56 59 61 63 66 71 73 75 80 85 86 92 90 93 96 100 97 96 92 91 89 90 91 85 78 79 75 70 66 75 76 69 68
40 40 40 39 40 42 44 46 47 48 48 47 48 50 53 57 56 61 63 66 69 73 77 81 86 88 84 85 87 89 89 90 95 97 99 103 96 97 95 88 81 69 73 75 79 70 71
38 39 40 41 42 43 43 43 45 46 47 47 48 48 49 50 55 57 59 62 65 67 69 75 79 81 85 82 81 82 83 83 82 84 88 93 100 104 98 96 93 87 86 84 84 65 76
37 39 41 42 44 45 45 45 46 46 47 45 44 47 46 50 54 56 57 57 58 60 65 73 71 72 73 73 74 77 79 79 77 79 83 87 89 92 98 102 96 92 96 96 93 85 84
43 45 46 46 47 47 48 47 46 47 47 45 42 42 43 48 50 52 53 54 55 59 64 64 63 67 65 68 68 71 72 74 75 77 82 84 85 85 87 87 86 88 93 95 99 98 96

GFSGBSN_250_spd_060.txt.gz
Wind_Speed
93 95 96 94 94 95 95 97 104 109 109 109 107 112 111 105 109 97 96 90 83 81 88 75 78 71 68 69 70 59 55 48 44 38 34 31 30 31 26 27 30 27 17 20 23 26 28
88 90 94 98 98 99 100 105 109 108 113 110 116 110 112 105 91 84 82 84 79 78 78 83 84 78 71 70 67 59 53 48 44 38 35 31 30 31 25 25 26 24 15 18 19 22 26
98 97 101 103 104 108 110 113 118 121 120 118 111 102 95 94 81 84 87 79 86 83 76 79 78 72 70 70 63 59 51 48 41 38 37 33 30 28 25 24 24 19 16 14 15 21 24
102 105 104 108 110 116 117 121 121 123 118 115 106 104 89 87 75 74 70 71 81 82 76 79 73 72 63 67 60 58 47 46 41 42 34 35 32 25 26 27 25 21 19 14 15 19 21
101 105 106 104 108 112 116 121 122 120 112 107 96 87 81 70 60 60 57 62 68 72 73 73 71 69 60 63 61 54 46 47 43 43 38 36 35 27 28 29 28 19 17 14 15 15 17
102 101 102 107 111 111 108 116 109 108 101 94 86 78 64 59 54 52 48 51 58 62 68 62 62 59 60 62 57 51 48 50 46 43 39 38 35 31 30 27 31 26 19 17 15 15 15
96 101 108 111 114 113 113 110 107 100 90 83 77 68 56 54 47 46 43 45 52 59 60 58 58 58 58 60 56 50 48 49 45 42 41 37 32 32 28 27 31 29 22 19 13 11 16
105 106 114 115 113 108 106 100 98 96 92 79 72 61 54 50 46 42 42 40 57 59 59 59 57 54 59 59 56 52 48 49 49 48 43 36 38 32 27 27 34 34 25 21 15 11 16
113 115 120 108 108 105 103 98 96 90 84 71 66 58 52 47 47 41 40 48 61 60 59 56 55 52 59 53 55 53 46 45 48 48 44 41 43 31 29 30 33 34 27 20 17 12 13
119 114 108 105 104 100 98 93 89 81 75 68 63 57 53 48 49 44 44 56 58 55 54 56 52 52 58 56 50 53 44 42 42 47 46 43 44 32 30 36 34 36 29 24 21 14 12
112 111 111 103 98 96 92 86 82 79 74 70 64 58 56 51 50 47 51 59 62 60 54 58 55 53 58 57 54 51 49 50 40 46 44 47 46 36 24 37 33 34 31 30 24 17 19
111 109 106 99 93 90 85 83 81 79 77 72 66 60 58 56 56 49 57 60 68 57 50 55 57 56 56 58 60 58 51 49 48 44 39 45 46 36 34 35 35 40 25 30 25 24 26
107 101 95 91 88 86 84 83 80 79 76 72 68 65 58 61 61 55 59 65 63 56 57 58 62 64 59 58 61 59 56 49 48 44 41 52 50 46 41 37 36 35 39 31 26 30 29
96 93 89 88 86 84 82 80 77 76 74 72 68 63 59 61 62 61 61 68 65 67 66 65 63 66 60 61 60 61 57 57 52 47 48 50 48 48 45 44 43 34 32 30 31 30 28
91 88 85 84 82 80 78 78 75 74 75 73 69 65 60 63 62 65 64 64 71 76 74 67 64 59 56 54 66 61 59 57 50 49 50 55 53 52 50 50 45 40 36 36 28 30 28
85 82 80 78 77 75 73 74 73 73 74 73 69 68 64 65 63 64 63 65 69 74 71 67 73 72 68 63 60 62 62 56 59 53 58 58 55 55 55 52 48 46 44 38 33 29 32
82 80 77 76 75 74 72 72 72 71 69 67 62 61 67 69 65 62 59 69 72 76 82 77 72 73 77 74 71 65 68 65 61 60 55 56 58 57 58 52 53 51 48 45 44 36 32
79 77 76 75 71 68 69 69 68 67 65 61 57 54 64 67 64 60 61 70 81 82 80 86 80 79 78 81 76 74 72 71 64 64 62 61 57 55 58 55 54 52 51 49 40 40 34
73 75 73 69 66 67 65 64 63 61 58 55 49 50 59 60 57 62 63 75 80 84 83 87 82 83 86 81 79 83 77 72 72 69 61 64 59 61 64 58 51 47 49 50 48 46 41
70 69 67 64 64 63 61 59 57 55 52 48 44 46 53 49 55 64 67 76 78 83 80 87 86 85 83 82 83 80 80 78 75 71 71 70 63 66 67 67 64 57 53 52 52 47 45
63 61 60 60 59 57 54 53 52 50 46 40 38 42 48 44 56 66 71 73 79 83 81 79 80 91 89 81 76 77 77 75 73 71 68 68 66 69 67 67 63 54 57 59 51 53 50
56 56 55 55 53 51 49 48 44 42 37 33 36 41 46 52 61 65 69 70 75 82 83 81 79 82 82 81 84 82 79 74 71 72 72 73 72 65 69 64 60 56 61 60 57 56 51
52 51 50 49 48 46 43 40 37 35 32 37 39 40 45 54 57 57 65 72 75 80 82 86 87 81 81 78 84 83 80 80 77 75 77 77 78 78 75 72 70 71 71 70 63 62 59
46 46 45 43 42 41 39 37 33 30 35 39 40 41 45 52 51 57 66 71 76 78 86 86 83 88 84 79 76 79 81 77 76 77 79 82 80 80 79 77 75 78 76 73 64 64 64
40 40 39 39 40 39 37 34 32 31 34 38 41 39 45 50 52 56 62 68 73 75 79 81 84 87 85 84 83 81 79 74 71 72 70 71 72 68 71 77 71 68 73 64 63 61 65
35 37 38 39 39 39 38 36 33 33 35 39 41 43 44 47 50 57 61 65 68 73 77 80 79 77 78 82 86 87 87 85 82 79 77 75 72 69 66 67 60 62 66 66 68 59 68
37 37 38 38 37 37 37 36 34 33 36 38 43 45 45 45 50 55 59 62 65 68 73 77 74 74 74 74 78 82 88 90 90 90 90 90 89 89 84 89 81 74 72 74 75 73 77
35 36 37 38 39 38 37 36 35 35 37 39 42 41 44 48 53 55 57 58 63 66 71 75 69 70 72 73 74 76 78 83 88 95 102 101 98 95 91 90 85 88 89 90 88 81 77
35 36 37 38 38 39 39 39 38 37 38 40 40 42 45 47 48 50 53 58 61 65 70 69 69 68 69 69 70 74 76 79 79 81 84 87 89 91 90 90 90 93 95 97 99 98 94

GFSGBSN_250_spd_063.txt.gz
Wind_Speed
83 85 86 88 86 88 89 88 91 95 95 97 98 97 97 98 100 103 104 105 109 103 95 81 81 78 81 75 82 68 66 66 61 55 51 50 41 32 32 28 29 26 20 21 21 22 26
83 82 88 88 92 97 101 98 96 93 97 99 102 105 107 111 109 110 111 110 108 94 81 76 72 68 68 72 74 71 66 66 62 59 51 48 38 34 31 25 25 23 19 17 20 18 21
83 84 90 93 97 95 95 97 99 101 102 107 107 107 113 114 115 109 94 92 86 77 75 70 69 64 57 69 72 64 64 66 66 59 51 45 38 35 33 23 24 21 19 19 20 19 22
89 94 94 96 96 95 98 102 101 103 107 109 111 111 117 116 110 105 93 83 73 70 64 64 62 61 54 65 62 63 59 63 62 54 46 42 39 35 34 25 22 21 21 21 21 15 18
96 96 94 95 96 99 98 99 100 103 105 103 104 106 110 109 93 82 77 73 63 53 53 58 61 59 57 65 66 63 59 62 58 51 42 41 40 36 32 28 25 20 23 22 23 16 13
98 96 93 96 100 100 103 101 98 95 96 102 103 103 104 98 86 79 70 60 53 48 49 52 55 62 61 65 64 61 60 60 57 50 40 42 41 38 34 29 26 21 26 27 21 22 9
97 96 99 94 91 94 95 95 98 99 103 104 108 107 104 92 78 70 55 50 46 41 44 47 53 56 59 61 62 59 60 59 57 48 42 45 40 42 39 28 29 22 27 27 22 24 14
103 102 101 94 92 91 93 96 99 105 109 107 108 100 90 79 74 61 46 43 40 35 40 42 53 52 57 61 58 56 58 60 54 48 47 43 44 47 34 28 28 24 25 26 21 24 18
96 97 97 94 93 94 97 101 105 109 109 105 101 94 86 75 68 51 41 38 37 33 37 40 45 50 58 59 58 59 60 59 54 48 45 47 54 45 35 30 29 25 25 26 26 23 20
100 103 99 95 98 100 104 104 106 107 104 102 98 89 79 70 60 47 38 38 36 32 36 49 49 55 58 60 59 64 62 57 55 51 51 47 52 47 38 34 33 31 21 26 24 23 24
105 102 101 103 105 106 109 110 111 106 100 96 86 81 72 64 57 45 39 39 37 36 41 56 50 61 65 60 60 64 61 60 53 53 51 47 55 52 44 44 36 37 24 30 27 27 26
107 107 106 106 107 108 109 110 103 101 94 87 80 74 66 61 57 46 42 38 40 37 49 60 56 58 62 59 60 64 64 60 52 55 50 51 51 45 46 41 37 37 31 32 26 27 30
112 112 110 110 113 113 108 104 100 91 86 82 76 70 64 62 59 48 45 40 42 40 56 60 63 57 62 60 60 62 63 57 55 55 48 50 48 49 48 42 41 39 33 31 31 22 26
112 112 113 111 108 106 102 94 89 86 80 79 72 66 62 59 56 49 48 45 39 46 60 63 65 64 65 63 59 61 67 59 56 55 53 51 50 48 49 52 49 44 33 21 30 30 30
108 106 105 101 97 91 87 85 83 81 76 74 67 62 60 60 58 51 48 44 44 55 68 69 70 67 65 61 59 62 66 64 60 57 56 57 52 50 49 53 50 45 32 35 26 23 23
97 95 93 90 87 85 81 78 77 75 71 67 62 58 59 59 58 52 44 42 49 58 74 77 76 72 73 69 64 63 66 63 62 59 60 58 54 53 54 52 46 45 42 34 31 30 27
87 85 83 81 79 77 75 72 72 70 68 62 60 57 61 62 58 51 40 46 55 62 77 82 84 73 79 76 69 71 67 63 63 62 59 60 59 57 55 48 47 47 44 41 40 37 33
82 82 80 78 76 74 73 70 68 67 63 58 52 48 59 56 48 44 41 52 61 70 76 87 88 79 79 76 74 71 75 65 59 68 64 62 64 56 51 50 50 46 41 41 42 42 42
75 74 71 71 70 68 67 64 65 64 59 52 48 48 54 48 43 46 47 58 65 70 76 87 87 83 83 79 80 77 76 66 66 69 67 65 58 59 55 54 51 52 51 50 51 49 47
65 64 63 64 63 63 62 62 60 57 51 44 43 45 49 43 44 44 50 60 68 72 75 82 92 91 90 85 77 74 75 74 68 69 70 68 67 62 59 55 52 56 58 53 46 44 45
56 56 55 56 56 57 56 55 52 48 45 38 40 44 45 41 44 47 55 64 71 72 74 81 92 93 91 91 85 79 81 77 74 66 68 66 68 67 67 62 53 51 52 54 48 50 47
48 48 49 48 49 49 49 46 44 42 38 33 41 44 40 42 42 49 56 65 71 75 72 79 87 89 89 89 83 77 84 81 78 73 71 71 68 66 62 65 61 53 53 56 57 57 57
43 43 44 45 45 45 42 40 40 38 34 38 41 38 38 42 44 47 57 67 72 73 72 76 86 87 89 90 84 82 80 80 80 80 79 75 73 69 71 69 66 63 63 61 60 63 63
38 38 39 39 39 40 38 36 35 33 35 37 35 32 37 42 44 50 60 63 65 69 73 74 82 90 86 83 89 90 88 85 84 82 76 77 81 78 74 73 70 70 69 69 68 68 63
34 34 35 35 35 35 34 34 33 33 34 35 30 32 39 40 47 48 56 59 61 66 70 73 76 78 79 83 84 86 83 83 84 84 77 76 77 76 79 74 72 71 71 65 65 67 67
30 31 32 32 32 31 32 32 32 33 33 32 30 33 39 40 45 48 53 54 59 63 68 71 70 68 73 78 81 79 78 90 87 83 78 77 75 74 72 77 75 75 76 78 80 79 79
28 29 30 31 31 31 32 32 32 33 32 31 31 35 39 45 41 43 49 52 55 61 66 68 67 64 67 74 78 77 73 76 75 83 84 82 84 81 82 81 76 77 81 85 87 79 80
28 28 29 30 31 32 32 32 32 31 31 32 33 36 41 44 43 45 50 52 55 58 63 66 62 63 65 68 74 78 79 79 77 76 77 77 82 86 85 82 78 81 84 85 83 76 74
29 30 30 31 32 31 31 30 30 31 32 32 35 38 41 43 44 46 49 53 56 58 58 58 60 61 62 64 67 73 77 79 81 79 78 79 79 77 77 78 73 74 77 76 77 75 70

GFSGBSN_250_spd_066.txt.gz
Wind_Speed
78 80 81 84 82 81 81 82 82 83 86 89 91 89 89 90 90 85 88 92 94 97 100 100 102 104 100 97 88 88 83 81 77 78 67 59 56 48 42 44 37 39 32 33 27 24 20
70 76 82 82 84 78 79 82 80 80 82 82 84 87 93 93 94 95 99 100 99 101 108 110 109 101 96 84 85 73 70 75 70 67 62 56 50 46 46 43 37 37 30 29 25 19 20
75 76 77 78 78 87 87 88 92 90 91 89 91 91 95 98 100 102 105 105 107 109 111 106 90 80 68 66 71 66 66 68 64 61 58 53 50 49 48 43 37 35 30 28 22 17 22
78 78 81 83 83 84 87 89 89 91 92 93 94 94 97 99 100 104 108 105 105 107 100 99 89 72 63 67 61 64 66 61 59 60 57 47 49 48 50 41 37 35 32 27 22 18 20
85 88 83 84 89 93 91 95 96 95 96 97 97 95 96 100 103 105 105 105 101 92 92 81 69 62 59 63 64 63 63 61 57 55 53 47 46 48 46 38 40 38 33 30 24 20 21
94 93 95 93 93 89 93 97 98 97 96 98 98 98 100 100 97 100 99 100 96 92 80 74 61 52 55 60 63 63 62 59 55 53 45 44 44 45 43 40 45 37 33 33 24 22 21
92 99 93 92 89 88 94 93 97 94 95 98 100 98 99 98 99 95 95 96 91 80 72 68 54 47 49 53 57 58 60 57 57 50 40 45 44 42 50 41 39 32 34 34 24 27 23
98 97 99 97 91 89 91 96 98 99 99 101 99 97 97 94 95 96 93 86 79 72 57 58 51 44 45 50 52 60 57 57 57 49 48 46 39 51 45 42 42 37 35 34 24 27 26
105 96 96 97 96 97 97 91 96 100 96 96 98 98 95 94 94 94 90 84 71 59 45 59 44 41 41 43 53 62 64 59 55 52 47 48 52 54 48 44 43 39 37 30 27 26 29
91 94 90 89 89 90 95 92 95 97 98 98 98 98 96 92 93 91 84 77 64 48 41 49 41 36 37 41 49 60 53 54 54 49 51 50 54 52 49 45 44 41 38 28 27 27 29
102 106 98 100 94 96 96 97 96 99 103 103 100 95 95 92 93 89 78 69 52 40 40 46 43 36 38 44 54 55 62 52 53 53 53 48 54 53 52 54 49 48 34 30 26 28 32
99 97 97 98 101 100 99 99 98 99 101 103 101 98 94 93 91 84 74 60 44 38 41 43 44 41 47 50 57 61 55 52 54 57 55 50 54 53 55 55 50 46 35 32 31 28 31
99 98 98 100 101 104 103 102 102 101 101 102 100 95 92 89 84 76 67 55 41 39 43 43 49 48 56 60 64 65 62 58 59 54 54 58 55 55 57 55 51 46 41 40 36 33 37
101 101 100 100 101 102 102 103 103 103 102 100 96 91 86 83 75 69 59 50 39 43 47 49 52 54 62 68 68 69 67 60 60 60 58 56 54 57 56 55 54 54 52 44 42 37 37
94 95 97 98 100 102 102 102 101 100 98 94 89 83 77 75 70 63 53 42 40 46 51 55 58 59 66 71 69 69 62 60 61 62 61 58 54 59 57 58 57 56 48 49 43 38 35
84 86 88 89 89 91 92 92 92 90 88 84 79 74 75 69 64 54 43 39 44 51 57 62 64 64 69 73 78 71 70 66 63 67 65 61 57 58 59 60 58 53 52 46 40 34 34
79 81 80 81 82 82 83 84 83 81 78 74 71 69 68 63 57 47 43 45 46 55 61 65 67 68 75 73 82 75 77 75 72 68 68 63 57 60 57 56 53 51 50 48 47 44 42
70 74 77 78 78 77 77 75 73 73 69 65 64 63 64 61 53 48 48 51 50 59 63 69 71 71 79 79 78 81 76 70 67 69 67 63 62 61 59 56 53 52 51 50 50 46 42
64 66 69 68 71 71 71 70 69 67 63 62 62 58 58 56 51 51 52 55 58 62 65 71 74 74 81 83 79 82 79 69 66 68 72 67 63 63 61 58 55 56 52 51 51 53 48
54 54 59 59 60 62 61 62 63 62 59 55 53 53 54 52 54 52 53 54 55 64 67 70 76 79 81 87 81 78 75 72 69 69 72 68 64 63 62 61 58 56 58 57 56 53 51
45 44 48 50 50 52 53 54 54 55 51 48 50 51 53 55 54 52 48 52 57 61 65 69 74 80 82 90 85 81 81 76 72 65 66 69 69 67 61 59 62 63 62 62 60 59 57
39 39 41 41 42 44 46 48 49 49 45 43 45 50 53 52 49 44 45 54 60 63 64 69 73 78 82 90 90 87 83 82 76 71 70 72 72 65 62 63 62 65 66 69 65 59 56
35 35 35 36 37 38 40 41 41 41 35 38 44 49 44 46 42 41 47 54 60 61 64 68 75 75 82 87 91 89 84 85 82 76 72 77 70 68 67 67 64 64 67 67 69 65 60
31 31 31 32 33 34 36 37 36 34 35 39 43 41 39 41 37 41 45 52 56 59 63 68 73 72 76 83 93 94 87 88 86 79 75 72 75 72 73 72 71 69 70 70 68 66 64
27 27 28 28 29 30 30 30 31 32 34 37 36 37 36 35 38 39 46 52 53 55 60 66 71 72 72 82 89 95 88 92 87 86 80 80 80 71 69 68 74 76 74 72 72 73 72
24 24 25 25 26 27 27 28 29 29 32 34 34 32 34 36 42 38 41 44 49 56 58 62 67 70 67 79 91 90 92 90 89 90 85 84 88 82 77 74 72 75 74 74 76 75 70
21 22 22 22 23 25 26 27 28 29 31 30 31 32 36 36 32 37 41 44 48 52 55 60 64 66 68 75 79 88 89 94 91 91 89 84 87 85 84 83 79 79 79 78 79 77 76
20 20 20 21 22 23 25 26 27 28 29 30 31 33 33 31 34 37 38 42 46 50 53 58 59 65 69 70 77 81 89 95 90 87 85 87 86 90 90 86 84 84 83 84 85 85 84
23 24 23 23 23 23 25 27 28 28 28 28 31 32 29 33 34 37 39 41 44 46 47 48 54 62 67 69 73 78 81 83 87 87 86 88 87 86 85 86 83 86 88 85 84 84 85

GFSGBSN_250_spd_069.txt.gz
Wind_Speed
65 70 75 76 77 79 80 83 84 84 82 82 83 82 83 80 82 82 82 85 87 88 89 92 89 90 94 99 98 96 95 97 102 98 82 77 79 72 64 62 59 53 50 38 40 44 41
59 65 73 78 79 78 77 83 84 83 85 83 85 85 81 78 81 79 82 84 86 86 89 91 97 102 104 104 106 107 104 98 86 73 69 66 62 64 58 55 57 55 47 42 38 42 38
70 66 69 74 80 81 79 74 75 79 80 81 82 82 84 83 86 88 90 91 94 96 97 102 101 99 101 111 107 94 81 81 69 63 58 59 59 61 53 55 56 49 46 40 40 40 37
81 82 75 69 78 83 84 85 82 80 82 83 84 86 87 88 88 90 95 92 93 97 96 102 103 103 101 106 100 92 87 67 56 56 53 60 61 51 48 53 51 49 44 39 41 38 34
90 90 88 84 87 81 82 88 87 83 86 87 85 88 88 88 89 90 91 94 95 100 100 104 103 107 100 89 87 84 73 60 55 58 57 58 58 48 49 48 48 46 46 42 41 39 31
85 86 93 93 93 92 90 91 82 87 88 93 94 91 88 85 88 91 94 96 97 97 101 101 99 98 94 86 84 73 69 54 55 57 56 49 51 46 48 46 42 46 47 39 41 40 33
93 92 93 90 96 92 95 94 95 89 89 93 94 92 84 86 90 92 93 91 93 94 101 97 94 89 91 81 70 63 60 53 55 56 56 46 46 43 44 45 48 48 37 40 44 40 35
94 97 92 95 97 89 96 98 99 95 97 88 84 92 92 88 89 89 94 93 94 95 89 90 92 87 86 70 62 57 53 49 52 51 53 50 40 48 46 45 49 38 39 43 45 39 34
98 100 98 100 95 95 93 93 100 100 95 85 86 86 87 93 94 90 89 92 94 90 87 91 87 83 74 64 56 51 48 45 48 49 53 47 47 50 44 45 43 40 43 47 44 36 35
96 94 93 95 95 93 90 86 90 87 81 78 79 79 84 87 91 89 85 89 89 88 87 83 81 82 65 53 52 45 43 44 49 56 54 50 51 49 48 49 44 41 46 46 44 36 35
96 99 94 96 96 97 92 91 93 88 88 85 89 92 88 93 94 92 87 87 87 87 84 74 76 72 59 49 45 42 44 46 54 54 50 51 53 52 51 51 48 48 49 45 46 36 35
98 98 101 102 101 99 96 97 99 96 102 99 88 89 91 90 91 88 86 83 82 82 78 75 71 62 54 48 43 42 43 48 59 58 55 53 54 50 52 55 51 53 46 47 44 37 34
99 99 97 97 97 95 95 94 94 94 95 94 92 92 93 93 95 91 87 83 81 77 74 71 62 55 53 49 42 41 48 60 57 50 51 57 54 50 53 56 52 51 46 47 44 38 40
96 96 97 96 98 97 96 96 95 98 96 95 93 93 93 93 92 91 87 83 76 74 73 61 57 53 54 49 43 43 63 66 57 52 52 55 53 50 53 56 55 52 51 51 50 44 48
89 88 87 87 89 88 91 93 94 96 96 98 96 97 94 94 92 89 86 75 75 75 66 56 57 53 57 51 46 57 70 69 63 52 48 57 56 55 56 58 57 55 49 53 52 47 46
80 80 80 79 78 79 80 83 85 87 89 90 91 93 94 91 90 86 76 78 78 68 60 57 56 56 59 55 52 63 72 76 65 63 51 53 60 51 56 58 55 56 55 52 50 51 48
70 71 71 71 72 74 75 77 77 80 82 82 83 82 84 84 83 76 70 70 66 60 59 56 55 59 64 59 56 69 73 75 70 65 59 57 59 64 62 56 57 57 56 51 55 55 52
63 64 63 65 68 68 72 71 73 75 75 74 75 73 78 76 70 66 63 65 60 58 56 52 56 63 68 65 62 78 83 83 75 63 59 67 66 62 57 55 58 59 58 57 55 59 56
57 57 57 59 62 62 65 65 66 68 69 69 67 67 68 65 63 63 63 60 55 56 55 53 55 63 69 66 67 76 87 82 80 72 65 62 63 63 61 56 55 59 58 57 55 56 57
50 49 49 50 51 52 54 57 59 59 58 58 59 61 64 60 62 58 57 58 54 58 57 56 58 64 69 68 69 71 87 86 80 76 71 63 64 66 59 56 55 56 59 56 57 56 57
43 43 43 42 43 45 45 47 47 49 49 46 47 55 58 57 61 57 56 55 57 61 59 58 59 63 70 68 68 70 90 93 87 76 77 66 64 63 64 60 55 55 57 56 57 57 58
39 38 38 37 37 38 38 37 39 40 41 39 46 51 52 54 54 54 53 54 56 56 56 57 59 63 70 66 68 72 92 89 88 83 79 80 72 67 64 61 63 63 59 56 59 59 59
34 33 33 33 32 33 33 33 35 36 37 41 45 49 49 51 53 52 51 52 55 53 54 55 58 62 67 66 69 75 84 90 92 86 87 80 81 74 69 63 67 63 66 64 61 59 63
28 29 29 29 28 28 28 30 32 32 37 42 48 46 46 51 46 46 47 49 49 49 51 52 55 60 66 63 68 75 82 96 95 89 83 79 76 76 73 71 66 62 64 64 64 66 66
25 25 26 26 25 25 26 27 28 32 37 43 43 42 43 40 42 42 43 44 43 45 47 51 54 57 64 64 67 76 83 89 96 90 85 83 75 72 75 77 75 71 64 68 66 66 68
24 22 22 23 23 23 23 25 26 30 35 37 37 35 39 37 41 37 35 38 41 43 45 49 53 58 63 66 69 78 87 91 91 92 88 87 81 75 74 76 77 78 75 72 71 71 70
23 22 20 19 20 22 23 25 28 31 33 33 30 34 36 36 34 35 39 41 41 44 49 49 54 58 60 61 67 75 87 90 90 85 90 84 80 77 77 76 78 77 80 80 76 76 72
22 21 20 19 18 20 23 25 27 29 30 28 31 33 32 30 32 34 34 35 40 43 45 48 52 55 60 62 68 75 83 91 91 88 87 86 83 83 81 78 77 77 78 83 82 81 77
24 23 21 20 19 19 21 24 26 27 27 28 30 29 27 29 30 32 34 35 37 40 41 43 46 53 60 62 67 74 80 90 91 90 88 85 87 86 87 84 81 78 79 85 82 77 77

GFSGBSN_250_spd_072.txt.gz
Wind_Speed
65 56 55 60 63 65 67 68 72 76 75 76 78 79 79 79 80 80 80 77 78 79 82 82 82 84 86 85 88 90 88 89 90 86 90 91 92 96 91 91 90 80 61 60 60 54 53
75 72 66 64 69 71 70 73 72 74 78 79 81 84 87 85 86 87 87 87 87 87 85 84 78 79 81 85 91 92 94 94 91 95 98 97 97 87 73 69 68 60 59 56 57 52 49
81 76 82 73 76 74 76 75 72 71 72 76 79 82 83 87 86 88 85 85 83 86 87 89 86 84 87 94 94 98 99 103 105 105 103 101 79 65 67 61 59 57 55 53 50 47 45
77 84 84 87 84 86 87 82 84 78 76 73 74 82 82 84 85 90 87 85 83 82 85 88 88 88 88 94 96 94 100 98 102 102 96 75 56 59 60 58 59 53 49 48 45 46 44
97 97 96 90 94 96 88 90 88 88 91 88 87 83 85 87 88 88 90 88 87 87 88 90 91 90 93 98 99 98 103 108 106 102 78 67 58 58 59 55 54 50 42 40 44 41 40
97 94 91 91 89 96 94 98 95 90 89 89 91 93 90 87 85 90 93 91 92 89 89 85 89 94 98 97 97 101 106 109 107 87 59 57 55 53 54 50 38 43 42 42 41 40 37
96 93 87 84 83 85 91 87 91 99 99 98 91 95 95 97 95 92 90 94 90 88 88 90 89 88 94 97 101 110 111 103 91 66 57 57 52 45 46 44 45 46 46 43 39 38 36
100 92 92 87 86 88 90 91 93 95 98 94 92 93 93 95 95 97 96 98 98 95 84 92 89 89 91 96 102 101 93 84 77 59 56 53 38 40 47 43 46 47 45 41 37 34 37
92 91 89 90 89 92 93 94 96 96 97 97 97 96 94 96 90 101 99 95 96 89 83 89 91 89 96 93 91 92 83 75 69 59 52 47 40 48 50 46 47 46 41 38 35 36 39
86 86 86 84 84 84 87 89 90 94 96 96 96 95 94 95 91 94 89 93 93 93 83 86 89 92 94 92 86 80 73 66 64 50 48 40 43 45 50 47 47 48 36 41 37 39 37
89 91 91 92 92 92 90 92 90 89 87 86 82 86 83 88 81 81 82 86 80 74 77 78 79 86 86 84 78 74 68 62 55 46 43 39 43 47 56 49 49 37 44 45 41 39 40
93 95 95 95 94 93 94 93 91 92 93 92 91 88 87 86 85 85 82 82 81 82 81 88 84 86 85 78 74 59 61 56 53 42 40 45 47 50 51 53 47 44 49 44 40 38 39
91 91 92 92 90 90 89 89 87 88 88 89 90 89 93 92 97 91 94 94 93 90 93 89 85 81 79 77 69 53 56 51 48 41 38 47 50 51 53 54 44 42 49 46 38 37 38
88 88 87 86 86 87 87 86 86 85 87 88 88 84 88 90 91 92 96 96 89 84 94 89 79 79 80 72 61 51 50 48 43 40 49 55 53 55 50 54 48 46 50 45 39 40 44
85 81 78 78 78 79 81 80 80 82 82 85 82 84 87 90 91 91 91 86 81 85 88 85 80 79 73 68 51 51 47 47 45 46 61 59 57 56 59 58 52 49 48 45 47 46 48
77 74 73 72 73 74 75 75 75 74 72 76 79 80 80 88 90 91 86 83 86 89 85 82 78 75 69 66 44 50 48 46 50 50 67 65 59 55 61 62 49 49 50 54 52 47 44
70 68 67 67 66 66 66 67 68 69 69 70 73 70 78 81 84 80 78 84 87 86 82 79 77 73 64 61 46 50 48 47 51 56 74 70 66 62 58 63 60 52 52 53 51 49 45
66 64 62 60 59 59 59 60 61 62 65 63 64 64 73 77 76 73 73 78 78 76 73 71 69 66 59 55 46 48 52 51 56 67 68 62 59 55 60 59 60 55 52 52 53 49 48
63 58 56 55 53 54 55 57 54 57 60 58 54 60 66 71 65 65 70 71 70 69 65 63 59 56 53 51 47 52 55 56 70 77 70 64 54 55 58 57 58 58 56 56 51 55 53
58 53 52 49 48 49 49 49 48 49 51 49 48 52 59 59 62 63 62 62 63 63 60 57 53 53 51 48 47 55 58 59 78 83 76 68 57 59 57 64 57 56 60 52 56 55 55
52 49 47 46 44 45 42 41 43 44 44 40 42 49 53 53 56 58 58 57 55 56 58 56 53 52 50 47 50 56 60 62 79 84 83 75 67 56 63 62 63 57 58 60 59 53 54
48 45 42 40 40 39 38 38 37 36 35 36 42 46 47 47 48 49 51 53 54 55 53 50 48 50 49 47 51 55 61 63 73 80 86 77 68 63 63 60 68 70 66 63 57 57 53
44 41 38 36 36 35 34 33 31 31 34 39 41 40 40 43 43 42 48 53 53 53 50 49 47 48 50 52 51 52 59 66 75 81 84 81 75 69 69 71 67 62 60 57 55 53 52
39 38 34 31 31 30 28 28 29 30 34 37 37 34 38 41 41 45 46 46 47 49 46 45 44 48 50 50 55 54 61 67 74 78 88 82 79 67 72 69 68 67 62 58 55 49 53
36 34 30 28 26 25 25 25 26 28 31 33 32 35 38 37 40 42 41 43 45 45 45 42 42 45 50 51 53 54 59 64 73 83 85 93 86 78 64 68 61 65 68 64 58 55 62
33 31 28 25 24 22 22 23 24 26 27 28 29 30 33 33 39 35 35 38 38 39 40 42 46 50 49 51 50 52 58 66 74 78 91 96 89 78 80 70 73 71 56 58 59 60 70
30 28 25 23 21 21 20 21 23 24 24 24 24 24 25 27 32 34 36 34 34 36 39 40 44 46 47 49 49 53 60 70 77 77 86 95 91 83 86 76 70 72 70 68 65 72 69
28 25 24 22 19 19 20 19 21 21 21 20 20 24 25 26 29 29 29 33 35 35 39 44 45 45 45 46 50 53 61 69 75 77 80 96 95 86 83 88 76 76 77 70 74 74 70
27 24 22 24 21 18 19 19 18 18 17 19 22 22 23 28 26 29 31 32 34 37 39 39 41 44 45 49 53 55 63 68 75 79 75 95 96 98 88 85 82 87 84 84 80 81 76

GFSGBSN_250_spd_075.txt.gz
Wind_Speed
96 90 73 70 65 67 70 69 65 65 64 68 69 71 72 71 73 76 75 76 75 75 77 76 77 74 73 73 74 70 76 78 81 80 79 80 85 86 81 80 82 81 85 88 90 92 80
98 85 81 76 74 70 67 73 78 78 71 69 70 72 73 73 77 78 77 75 79 82 83 82 80 79 81 86 84 84 83 85 88 83 86 86 87 85 83 87 88 90 88 93 86 71 64
100 86 87 86 84 83 76 77 76 78 81 79 74 72 72 74 80 83 84 86 86 87 89 87 89 88 89 94 92 92 87 86 84 86 87 93 92 92 91 92 92 92 85 69 63 61 59
102 97 94 95 93 87 84 83 88 88 83 88 87 89 84 84 83 81 84 85 84 83 87 87 86 82 82 87 85 86 86 89 89 91 93 94 98 96 96 91 91 81 64 61 61 60 58
116 108 105 100 94 95 92 94 95 88 90 90 92 91 94 89 87 84 83 81 82 86 87 88 88 86 87 88 87 87 91 91 90 93 95 97 102 99 95 95 79 66 64 57 57 53 54
121 115 108 105 106 101 96 91 82 80 80 83 91 95 97 97 95 93 92 91 89 89 88 88 88 85 87 90 87 88 95 94 97 99 101 102 104 98 98 88 71 66 60 56 49 52 54
115 110 114 112 110 103 104 95 89 90 86 81 81 86 90 96 98 100 99 100 94 89 88 93 88 87 87 87 81 86 90 86 93 94 97 101 102 102 97 85 67 62 52 46 45 52 49
114 112 107 102 91 88 86 84 82 85 85 86 85 85 89 93 96 100 100 103 101 97 90 92 91 84 89 91 85 85 87 87 93 97 100 102 105 81 62 65 61 50 45 39 42 45 43
120 103 92 89 87 86 82 79 79 81 82 85 88 89 93 96 99 100 102 101 99 102 94 98 91 88 84 94 90 91 88 86 91 98 101 97 87 74 59 58 47 38 37 45 48 49 44
102 95 90 85 82 83 81 80 78 77 78 80 84 87 93 99 102 105 106 101 103 99 98 94 94 90 88 94 89 91 89 89 86 89 89 85 71 57 56 46 42 35 44 50 55 51 39
97 88 85 83 83 85 87 88 89 89 87 88 85 85 86 92 96 103 100 105 105 102 101 97 93 92 96 92 87 84 81 80 82 87 80 66 53 53 52 41 41 42 45 51 49 41 44
89 85 84 85 87 88 90 90 89 88 87 88 87 88 89 93 90 95 95 98 99 94 86 96 86 87 84 83 80 76 76 75 78 74 64 54 51 49 43 40 42 50 49 51 48 47 39
87 85 83 84 85 85 86 85 85 84 84 84 84 83 83 90 93 93 95 96 93 84 78 84 78 74 74 73 77 74 72 76 75 70 52 50 52 42 35 43 46 55 54 53 50 45 29
85 85 83 82 82 83 81 80 79 80 81 82 81 79 81 83 89 88 91 93 90 80 83 88 85 74 72 76 83 78 72 81 72 55 52 48 47 38 36 46 52 57 55 56 46 42 35
86 84 82 79 77 76 73 72 75 77 78 77 75 76 75 82 86 84 87 86 77 85 92 95 90 80 78 88 88 83 68 70 65 51 51 48 41 36 44 52 51 52 48 49 46 41 37
86 82 79 77 75 69 69 69 70 72 73 71 69 69 73 77 80 80 79 73 76 83 85 86 90 81 84 88 84 76 59 52 51 45 48 45 40 41 50 53 57 55 51 47 47 38 37
81 78 76 75 67 66 66 65 65 66 66 63 61 60 74 68 73 66 61 68 76 84 81 83 81 76 75 77 71 67 56 52 46 46 46 43 42 47 56 56 62 56 52 47 46 41 41
78 76 75 69 65 62 59 59 59 59 58 58 54 53 70 60 63 61 60 67 71 79 75 75 78 76 75 75 71 61 51 49 47 46 47 42 48 55 59 60 68 59 52 47 47 43 39
77 74 70 65 61 56 55 54 54 53 52 50 47 51 56 56 51 53 59 63 65 67 68 69 68 71 72 70 63 57 50 47 48 47 47 43 61 59 59 64 68 62 56 49 47 42 39
74 71 66 62 57 52 50 49 48 47 45 43 39 43 47 49 45 47 52 58 61 63 64 63 63 63 61 61 55 51 49 45 47 48 50 47 71 69 65 70 68 65 57 52 51 46 42
69 67 60 55 54 49 45 44 43 41 39 37 33 41 43 44 40 44 50 52 56 60 58 55 58 57 57 54 52 43 46 46 44 48 54 52 77 70 69 70 74 66 62 61 51 46 46
66 60 54 51 47 42 41 39 39 37 33 34 35 37 36 36 35 41 43 47 48 53 56 51 51 50 49 47 45 37 43 43 47 55 60 61 81 74 74 70 72 73 67 64 56 54 50
61 54 49 46 42 37 36 35 34 33 32 31 30 31 32 32 35 38 40 42 47 48 48 48 47 44 44 45 44 41 45 42 50 55 61 62 78 79 77 75 72 68 73 63 61 58 53
53 49 45 41 37 33 33 33 30 30 27 26 25 27 28 28 33 37 38 38 41 42 43 44 41 41 42 46 45 44 43 45 50 58 66 66 81 79 76 77 66 67 73 64 65 62 58
47 44 39 36 33 30 29 29 28 25 23 22 22 23 22 27 31 33 35 35 37 38 40 42 41 43 43 42 43 42 42 44 50 59 68 78 85 81 76 67 62 69 71 67 62 58 58
43 39 35 31 29 26 26 25 24 22 18 18 18 20 20 25 27 25 30 35 36 35 37 39 42 44 43 41 38 39 42 46 50 62 68 80 83 84 80 74 67 68 71 72 68 64 59
38 34 31 27 26 24 22 21 20 18 16 15 16 17 19 19 22 26 28 31 33 33 36 38 42 42 41 38 41 45 46 48 52 60 66 74 90 86 87 78 70 61 67 69 75 73 70
32 30 28 25 24 24 19 18 16 15 13 15 17 17 17 21 24 26 28 31 32 34 35 37 37 41 42 41 45 45 45 52 55 61 68 75 90 91 88 80 73 67 66 67 67 68 71
28 28 25 23 22 24 19 16 13 12 14 14 16 17 20 22 23 26 28 31 34 34 36 37 41 34 36 38 44 44 45 51 56 57 66 74 87 92 90 91 79 71 71 70 69 74 75

GFSGBSN_250_spd_078.txt.gz
Wind_Speed
65 72 75 75 76 81 84 86 83 76 67 66 65 64 60 59 67 67 71 72 72 73 74 72 72 70 72 72 75 70 73 75 76 76 78 76 77 78 77 79 82 79 81 80 81 82 77
73 73 75 79 81 87 92 96 94 91 77 74 74 76 73 70 70 70 72 78 76 76 74 73 74 74 76 77 75 73 76 79 79 78 80 82 82 82 82 87 89 88 85 82 83 78 79
75 77 84 88 93 96 97 96 100 92 83 75 78 72 77 77 77 78 73 80 79 77 77 78 76 76 78 81 82 81 81 82 83 83 86 88 88 88 90 91 88 86 84 83 82 83 84
84 89 91 93 101 99 109 111 104 97 94 88 82 82 75 83 82 84 83 84 84 81 77 75 78 76 81 83 81 81 83 87 89 91 88 90 90 88 91 90 88 89 90 89 89 88 86
93 94 99 103 108 110 115 112 113 106 98 86 79 76 73 82 91 91 92 88 89 88 84 82 80 78 81 82 85 85 87 88 88 86 85 86 90 89 89 91 93 95 93 89 87 93 95
96 103 107 112 109 117 120 112 114 112 97 85 82 78 80 86 81 81 86 91 95 93 88 90 89 84 79 82 81 83 86 87 82 85 88 89 91 93 95 97 94 95 92 92 88 91 77
102 103 112 114 117 117 119 122 117 98 85 81 84 83 82 84 87 79 81 85 95 97 94 93 91 90 88 87 85 87 87 82 83 81 82 84 85 89 95 95 93 91 92 85 83 77 71
107 110 114 116 121 127 127 119 108 89 81 77 75 81 81 90 89 86 84 88 86 88 89 94 94 89 96 92 85 90 87 84 89 87 85 85 82 87 90 96 98 92 83 79 70 63 62
112 114 119 128 127 126 119 111 99 85 77 74 73 74 76 80 83 84 87 87 89 92 89 91 92 87 94 93 90 94 93 91 89 89 89 84 84 88 90 96 91 88 83 70 55 57 53
117 121 124 131 129 121 113 102 94 85 82 80 79 77 76 77 81 83 82 87 91 95 94 85 95 91 94 94 91 91 88 90 90 89 88 86 85 85 89 89 88 64 60 51 50 53 37
124 128 137 130 127 114 107 98 91 88 84 84 80 81 80 81 83 81 78 82 89 92 89 91 92 94 95 95 94 95 91 93 93 90 87 87 85 86 88 85 71 56 52 48 44 44 27
127 137 131 129 118 108 102 96 88 83 81 81 81 79 77 80 82 83 80 81 85 86 81 88 89 93 96 99 98 100 94 92 91 88 86 86 84 85 82 67 53 55 47 45 40 33 37
135 127 127 118 110 100 96 92 86 82 81 81 79 77 77 81 83 79 80 83 84 79 79 85 86 94 96 97 95 91 93 94 92 86 82 80 78 73 64 54 47 49 45 40 33 31 46
125 124 115 107 99 95 93 88 84 77 74 74 74 74 75 80 80 76 77 78 75 72 84 89 89 86 82 84 84 87 87 84 82 75 73 70 70 61 51 46 41 39 42 37 36 40 53
120 115 108 98 94 93 89 85 78 73 70 70 70 71 74 75 72 70 69 66 67 71 77 86 89 87 86 83 84 79 77 74 71 70 67 65 65 57 46 44 41 36 40 43 42 48 54
114 105 99 94 93 90 85 79 74 68 67 66 67 67 74 68 65 63 59 58 63 69 74 81 87 83 86 84 83 83 78 71 68 69 69 65 62 52 43 44 40 38 47 45 47 53 54
105 97 94 92 90 84 80 75 71 67 64 62 58 61 68 60 58 53 54 55 63 69 72 74 78 84 74 78 82 81 79 72 70 71 70 64 52 50 43 42 40 44 51 50 53 59 49
96 92 91 89 84 78 76 70 69 64 58 55 52 57 60 53 50 47 51 55 59 65 66 67 74 76 71 72 74 75 71 66 69 72 69 63 54 47 45 41 43 49 56 56 54 60 50
90 89 88 83 78 76 71 68 65 58 52 50 49 54 50 46 45 46 50 50 54 61 57 62 64 66 67 71 73 70 65 61 63 62 57 51 46 48 46 45 49 54 61 57 59 62 53
86 88 82 76 75 72 67 64 58 51 48 44 45 47 43 40 42 42 44 46 49 54 50 56 60 59 63 68 65 63 59 60 59 55 49 47 46 50 45 50 55 62 66 62 63 64 56
85 79 73 73 74 68 64 59 52 47 45 40 40 39 36 37 35 37 41 42 46 45 48 52 54 55 57 59 59 57 53 50 51 50 48 49 51 53 50 55 62 65 69 63 62 65 57
78 72 70 70 67 62 58 54 49 45 40 37 33 30 30 27 27 33 37 40 44 44 46 46 51 54 53 53 48 48 45 43 45 46 49 51 54 53 54 58 65 67 70 63 59 59 56
71 69 68 66 61 58 52 48 43 39 36 34 29 25 26 24 25 31 37 36 41 40 41 44 46 47 44 43 43 45 46 42 43 44 47 51 53 55 57 62 68 69 71 65 56 58 55
67 67 63 58 56 50 48 44 38 34 32 28 24 22 21 21 25 30 28 32 33 34 33 34 35 40 41 40 40 42 42 38 41 44 49 51 55 60 61 65 69 71 69 71 63 61 57
66 61 56 53 49 46 44 38 32 30 27 24 20 19 19 20 21 22 22 26 27 31 32 35 35 36 42 44 41 39 37 37 41 42 48 52 56 61 66 70 70 72 67 68 63 63 60
58 54 51 46 44 41 38 32 26 25 22 19 17 17 17 16 17 22 23 25 30 32 34 36 38 40 39 36 35 36 37 39 43 46 50 52 57 60 70 75 72 71 75 73 69 70 71
50 49 45 42 39 36 33 26 21 21 19 18 14 16 14 15 18 20 23 26 29 30 30 34 36 39 40 39 37 37 38 39 45 46 48 53 58 63 69 79 76 71 72 75 76 69 67
46 44 41 38 34 32 28 21 17 18 17 15 15 15 16 18 18 21 25 27 28 31 34 35 36 38 39 39 38 39 40 42 46 50 50 54 59 65 62 82 77 75 76 77 78 78 75
43 40 37 34 31 28 24 18 16 17 16 16 16 16 15 15 18 22 24 25 25 28 32 31 32 31 34 35 38 41 41 44 46 48 49 57 62 69 71 78 84 78 80 81 79 77 81

GFSGBSN_250_spd_081.txt.gz
Wind_Speed
70 70 68 71 70 70 75 78 77 76 74 74 71 80 82 76 76 67 67 67 64 66 64 69 69 70 72 70 75 67 67 69 70 75 75 77 73 72 71 72 75 70 76 75 75 76 77
78 73 73 74 72 74 79 80 82 85 82 83 82 84 90 89 86 78 69 69 70 67 68 67 68 77 73 74 75 75 79 76 68 71 72 77 79 76 75 75 79 80 77 77 78 78 82
83 79 83 79 78 81 87 89 89 89 89 86 89 96 96 95 84 78 70 71 76 74 71 70 71 72 77 84 77 76 76 78 77 80 80 79 78 79 79 81 81 79 77 78 82 86 87
89 86 87 88 85 87 88 92 92 89 90 94 98 105 107 94 86 75 67 72 73 75 77 77 75 74 73 83 78 79 77 78 77 74 79 81 82 81 81 84 83 85 85 84 85 86 88
93 89 94 94 95 95 95 94 96 97 98 101 105 111 104 90 79 69 67 76 73 76 74 76 80 80 78 80 83 80 82 83 80 79 80 82 84 85 84 84 88 89 88 84 82 86 92
96 95 95 96 100 102 100 100 98 101 106 107 117 110 102 87 74 64 64 71 71 79 73 78 84 88 86 85 85 86 83 83 81 81 80 83 84 84 84 89 89 93 91 88 87 86 89
100 100 98 100 101 104 108 104 105 108 108 116 114 105 97 82 71 66 67 72 73 70 80 85 88 90 94 96 91 88 88 89 86 83 84 84 80 80 82 84 85 88 93 91 90 93 88
103 102 101 104 104 107 108 110 109 112 114 119 110 100 92 81 70 64 64 74 75 74 74 87 88 87 88 97 94 93 92 88 90 88 88 83 80 84 85 85 85 87 88 84 90 92 85
103 102 102 105 107 110 113 112 111 113 117 116 106 97 84 78 72 68 63 68 74 81 75 81 86 85 82 85 80 89 94 91 91 93 93 90 86 88 86 86 85 83 76 84 84 80 76
102 102 104 111 106 108 110 112 117 115 116 111 101 87 78 76 75 68 65 68 69 74 71 77 93 83 86 89 82 89 88 88 87 88 90 88 88 89 89 86 88 86 86 85 86 80 67
106 108 108 108 111 109 114 121 120 113 111 106 92 80 76 73 75 69 69 68 66 67 64 76 81 87 84 91 89 90 86 86 86 87 88 87 88 90 89 90 88 85 86 86 85 72 58
106 107 112 112 113 114 120 121 114 112 106 94 85 79 76 77 74 74 72 70 69 67 50 71 75 83 87 90 91 90 88 87 86 85 86 86 83 85 86 88 86 81 82 83 75 55 43
109 104 109 115 117 120 119 116 114 108 97 86 83 79 76 75 72 71 71 69 65 59 62 72 73 76 83 89 90 92 94 93 90 87 87 84 81 81 82 83 84 79 79 72 57 45 38
112 108 112 119 118 119 113 110 108 100 89 83 81 76 74 72 70 69 67 65 62 62 66 70 72 76 79 82 84 88 90 88 89 89 87 84 82 81 81 81 80 79 70 58 48 37 37
117 119 117 119 117 111 107 106 101 92 86 81 77 74 75 68 66 65 62 57 60 62 60 65 71 74 75 77 79 79 81 85 84 81 78 78 78 78 76 75 69 63 57 45 42 36 34
115 112 114 109 106 105 102 98 92 88 84 78 74 73 72 68 62 60 55 55 59 56 56 61 67 65 70 72 78 79 81 76 72 70 73 70 69 68 67 64 60 54 48 42 35 37 37
111 108 104 100 99 99 96 91 88 85 79 74 72 70 67 62 58 53 49 50 51 51 53 55 60 59 67 73 76 72 75 74 73 72 71 67 62 60 57 56 53 48 41 40 33 36 45
106 101 97 97 96 94 90 87 85 80 73 71 67 66 61 55 50 48 45 45 44 45 45 51 57 61 62 64 71 62 67 75 78 75 72 68 65 63 60 55 52 47 37 37 34 39 47
100 95 93 92 90 88 87 84 80 75 71 65 63 62 54 49 43 43 42 39 39 43 36 44 51 57 57 58 64 54 66 70 75 76 76 73 68 65 66 58 49 39 36 38 38 46 48
90 89 88 86 84 84 83 79 74 73 65 61 57 55 49 43 38 39 36 36 39 40 31 39 46 53 55 53 55 51 60 66 66 70 73 72 69 66 67 54 46 39 41 39 41 47 56
84 84 81 81 83 82 79 73 72 67 61 55 49 46 43 37 33 33 33 34 36 34 30 38 43 49 52 49 47 52 53 59 58 61 62 64 62 59 61 46 43 41 45 42 44 50 62
80 78 78 80 80 77 70 70 68 62 56 48 44 38 37 33 30 29 31 32 32 29 26 36 42 44 45 43 46 46 42 46 56 57 59 55 53 51 52 47 45 45 47 46 47 53 66
75 75 77 77 74 69 68 66 62 56 48 44 36 34 33 28 26 26 27 31 28 25 23 34 37 38 38 43 44 43 43 46 49 53 54 54 54 51 51 48 48 50 47 48 52 64 65
73 74 74 71 67 66 64 61 55 47 42 37 33 31 28 25 24 26 25 27 23 22 23 29 33 35 36 38 40 41 43 43 46 49 49 51 53 51 51 51 49 52 49 53 58 69 66
70 71 69 66 63 62 60 55 46 40 37 32 29 25 26 24 22 22 22 22 22 21 23 28 26 29 32 35 38 40 40 39 43 45 45 46 47 48 50 47 50 52 52 61 61 72 69
68 65 63 62 59 57 54 46 40 34 33 28 26 23 21 21 19 20 21 23 22 21 27 29 30 31 33 36 38 39 39 40 40 41 41 42 43 46 48 46 52 54 58 67 68 74 71
62 61 59 57 55 52 46 40 33 31 30 24 23 20 19 17 18 21 22 22 22 24 26 27 31 34 35 34 35 36 37 39 40 41 40 42 44 46 47 49 57 58 70 70 73 72 74
59 57 54 52 51 46 40 33 29 29 28 21 21 17 17 16 18 19 19 18 20 22 24 27 31 34 35 36 38 39 38 39 39 39 40 40 41 44 46 54 59 62 72 74 77 76 79
55 53 49 49 46 40 33 29 26 26 25 20 17 15 13 12 14 14 15 16 20 23 26 28 30 32 34 35 37 38 39 41 43 43 43 41 42 41 44 56 60 64 75 80 79 80 79

GFSGBSN_250_spd_084.txt.gz
Wind_Speed
74 71 73 72 73 75 78 74 77 76 74 73 78 79 79 82 82 79 75 77 75 81 74 64 59 68 69 65 78 70 74 79 79 78 75 72 73 70 70 70 73 69 72 73 72 72 73
75 74 78 77 80 80 80 81 84 85 81 82 81 83 86 86 89 86 84 87 82 84 76 69 64 65 68 68 74 75 73 77 77 78 79 76 75 73 69 73 74 75 72 75 77 75 77
75 80 83 83 85 85 87 88 84 81 84 85 84 86 88 89 86 91 88 90 90 85 80 71 63 65 74 75 76 76 75 78 77 77 82 80 79 74 73 72 72 73 72 71 75 77 73
83 83 84 88 88 86 91 90 90 88 85 89 89 90 91 97 95 94 92 93 88 84 75 68 64 68 70 79 78 79 77 80 81 79 81 85 86 81 79 77 73 72 72 73 78 81 82
87 87 85 86 89 93 94 93 90 89 90 95 93 97 106 101 100 97 97 92 86 76 66 62 64 72 75 82 87 82 77 81 81 80 82 81 81 80 81 81 86 84 81 81 80 81 81
92 89 90 92 93 93 92 93 91 93 94 96 99 105 102 109 105 102 102 90 81 62 55 57 62 72 82 84 87 85 83 76 80 81 79 84 78 81 79 78 75 78 79 77 78 81 86
98 94 94 95 93 95 94 96 97 97 96 98 103 114 109 110 106 106 92 84 66 51 48 53 60 68 84 85 89 86 87 81 80 78 81 83 80 76 82 84 80 76 80 78 78 82 86
100 98 96 97 94 96 96 97 97 99 100 104 105 115 111 114 109 97 87 69 59 50 40 50 57 63 82 90 88 88 87 86 86 85 89 86 82 81 83 84 86 88 82 75 76 79 84
102 101 101 96 97 92 96 102 104 104 105 109 111 112 115 114 106 92 77 67 60 55 41 42 56 60 74 85 88 92 89 90 86 87 89 91 88 86 85 86 85 86 84 80 80 81 87
108 102 100 96 97 94 97 102 105 105 110 114 117 113 110 108 97 86 74 66 62 57 44 45 61 61 71 78 80 96 94 93 89 88 93 91 90 92 88 86 86 85 86 86 85 80 83
110 102 98 99 101 100 99 104 107 108 112 115 112 108 106 98 88 79 72 66 64 60 47 57 62 63 65 73 80 88 97 95 92 90 95 94 89 82 87 90 87 83 84 83 80 82 84
108 102 99 98 99 101 101 108 110 114 115 117 111 105 101 92 79 77 74 68 64 60 54 58 60 63 66 68 72 84 88 89 93 93 89 85 78 83 83 80 79 78 77 77 77 77 74
106 104 100 98 101 101 106 109 112 114 116 119 107 100 95 83 79 77 73 64 59 60 58 56 55 59 66 70 68 75 87 87 87 91 92 89 82 81 77 79 79 77 74 76 75 74 68
104 98 98 101 104 109 110 113 115 116 116 108 100 97 87 80 78 76 68 61 58 56 54 52 54 55 62 67 68 71 77 82 84 90 90 86 83 80 79 76 75 74 72 72 72 68 66
95 95 99 100 104 108 115 113 113 114 113 104 96 89 82 80 76 70 65 60 57 52 49 51 49 52 54 59 67 69 71 77 80 84 89 86 81 81 80 77 75 72 72 73 71 68 62
99 97 105 108 109 110 110 113 115 116 105 96 88 82 80 78 71 67 62 57 53 47 43 44 44 46 48 56 60 64 69 71 74 77 79 80 84 83 82 83 82 79 74 72 70 63 53
104 105 105 107 111 112 115 115 119 106 97 88 79 80 79 72 69 65 60 53 48 42 36 39 40 40 48 54 57 58 65 71 73 73 71 75 76 80 82 80 75 70 70 66 60 53 37
105 106 105 109 112 114 117 115 106 97 89 79 78 79 72 69 67 60 52 47 43 40 33 36 37 39 45 51 54 56 61 68 71 72 70 69 64 66 66 62 58 56 55 51 47 41 30
105 110 109 110 114 113 110 102 94 87 78 76 76 73 68 65 60 50 45 43 40 38 29 35 36 38 42 48 53 54 58 61 67 70 70 68 67 65 62 58 53 48 47 43 39 32 30
106 106 109 109 108 102 96 91 83 77 75 74 69 70 66 59 49 42 39 40 34 32 28 32 33 38 44 45 50 53 57 56 63 63 67 69 71 68 65 59 54 51 49 45 39 32 31
98 99 101 95 92 89 85 79 75 74 73 69 67 63 57 46 39 37 34 34 29 28 27 30 32 40 41 42 46 52 52 51 54 60 65 64 65 69 67 62 58 54 52 45 36 34 30
92 89 88 83 81 77 74 72 72 72 68 65 61 55 47 41 37 32 29 30 26 25 24 29 29 33 34 38 41 45 47 46 52 54 53 57 55 59 64 60 56 55 48 39 33 37 31
84 82 79 76 73 70 69 69 70 65 64 60 54 48 42 34 32 28 27 25 23 23 23 29 25 30 31 33 35 40 43 38 44 42 43 48 53 54 54 49 47 47 42 37 36 40 40
74 72 71 69 67 67 67 67 63 62 60 53 47 41 36 31 28 25 22 21 21 21 22 25 24 27 27 29 32 36 38 39 42 44 46 47 45 45 49 44 43 42 41 37 43 41 52
67 66 65 64 63 64 64 62 60 56 55 46 41 35 30 28 25 22 19 19 20 15 20 22 23 24 25 27 33 38 42 43 47 50 44 42 44 46 47 46 42 43 41 42 44 41 57
63 62 61 61 61 60 57 57 55 51 48 40 35 30 26 24 22 19 17 19 16 18 24 26 28 25 26 28 32 36 39 42 43 44 44 39 39 43 46 45 44 47 43 43 44 42 64
61 59 58 58 58 54 54 52 50 47 41 33 30 28 23 22 17 14 14 14 16 22 24 24 27 32 33 31 33 35 39 40 42 43 37 37 40 42 44 44 46 46 45 45 44 52 66
59 57 56 54 54 51 51 48 45 41 36 28 26 25 22 18 12 9 12 14 16 18 20 24 28 27 30 34 35 36 38 39 40 38 36 39 40 41 41 41 45 45 48 47 50 62 69
56 53 51 51 50 49 47 43 41 36 31 23 24 22 20 15 12 11 11 12 15 17 20 23 23 24 27 29 31 34 37 41 40 39 40 38 38 38 40 42 48 49 52 54 58 71 71

GFSGBSN_250_spd_087.txt.gz
Wind_Speed
70 68 66 67 70 71 70 70 74 79 83 83 82 82 79 77 79 80 77 78 79 78 78 80 82 79 71 71 79 77 73 70 68 76 77 77 76 72 67 68 70 68 67 65 66 68 64
71 69 69 71 73 74 75 75 79 80 84 86 83 82 80 81 80 80 81 82 78 73 74 83 79 77 77 75 80 78 79 75 74 73 80 77 79 77 72 71 74 72 70 71 70 70 72
77 74 70 75 77 75 75 80 80 79 81 79 82 85 82 80 77 81 83 84 81 82 85 84 77 77 77 77 76 76 77 75 78 77 76 84 79 76 76 75 73 73 73 72 74 77 74
81 80 78 78 78 78 78 80 82 88 87 87 85 88 87 86 84 84 85 88 90 91 92 86 79 76 72 75 77 78 77 79 81 80 83 80 82 78 76 79 77 77 76 73 74 74 76
86 86 82 84 83 82 86 84 92 92 93 91 91 90 91 91 90 88 92 96 91 91 85 81 78 75 72 74 75 76 77 84 84 86 86 85 79 78 79 73 73 77 77 76 77 78 75
84 79 83 86 87 87 90 95 95 97 98 99 95 91 95 96 95 98 96 96 93 85 79 74 71 72 68 67 70 75 80 87 87 88 88 86 82 81 79 78 73 74 74 78 78 80 79
89 89 95 90 92 94 99 100 100 101 104 102 102 95 97 101 102 99 100 98 97 87 75 72 67 61 63 64 65 76 84 90 92 90 83 87 81 78 81 83 84 76 71 70 74 78 81
91 93 94 91 97 100 103 103 106 107 109 106 101 98 101 102 104 103 103 100 95 83 66 78 65 58 59 61 58 78 83 91 95 94 91 86 82 85 87 80 79 77 73 73 76 78 73
93 92 95 100 105 106 107 108 108 106 110 105 99 103 103 106 105 108 106 101 88 76 65 66 63 62 59 61 62 75 78 91 95 98 95 92 88 91 86 82 79 76 76 77 77 77 78
97 97 100 102 106 106 108 111 113 117 106 105 103 103 105 107 108 109 103 96 86 71 61 61 56 61 64 59 64 69 79 87 95 98 97 94 89 86 87 89 84 76 77 78 76 76 78
105 103 105 110 110 110 109 112 114 109 101 102 109 105 106 109 110 106 102 93 79 69 61 59 59 56 63 62 60 65 73 79 93 97 100 93 96 92 87 85 85 78 80 80 79 79 77
105 105 107 110 112 111 112 113 106 104 110 105 104 107 111 110 106 106 103 87 76 70 63 61 57 55 54 58 58 62 69 73 84 95 101 98 92 89 87 88 85 79 81 82 82 81 81
108 107 108 112 114 114 115 114 111 113 112 109 111 114 112 112 109 107 95 83 75 69 66 54 55 51 49 55 56 59 64 68 75 86 93 99 95 94 91 86 83 81 82 81 81 80 81
108 106 105 109 113 115 117 109 111 110 112 111 113 110 111 112 109 99 87 80 75 66 58 56 52 47 47 51 51 56 59 64 67 78 88 90 92 94 93 90 87 83 80 78 77 71 66
113 114 113 112 115 112 114 111 108 109 109 114 114 113 109 103 96 88 80 76 74 61 54 51 50 43 43 49 49 54 58 61 65 70 80 84 84 86 87 87 84 80 77 75 74 69 61
112 115 116 119 116 113 107 108 106 111 106 109 111 108 103 96 88 80 77 74 66 58 49 48 48 41 42 47 48 49 54 55 61 63 69 76 79 81 84 85 81 76 79 76 74 66 59
114 114 111 110 105 110 103 105 103 106 106 106 104 101 93 88 80 76 72 65 62 55 45 43 40 37 40 42 46 48 53 56 58 62 64 69 72 76 81 80 76 76 77 75 73 66 60
105 109 108 105 99 102 103 106 105 106 106 101 99 91 84 79 75 70 65 60 56 48 39 37 36 34 35 37 43 49 49 53 56 59 60 64 70 72 73 76 76 73 75 74 67 63 59
99 99 99 94 97 102 106 102 101 100 95 94 87 83 76 72 67 63 59 52 47 41 34 32 33 32 33 40 43 46 48 51 62 61 62 65 65 66 66 66 67 67 64 62 64 62 57
90 90 91 90 92 97 96 97 90 91 88 82 79 74 72 63 61 57 51 44 39 36 32 29 29 32 35 39 40 44 48 57 62 57 59 63 66 66 64 61 60 59 58 54 49 41 38
83 84 83 86 86 85 86 85 83 81 76 74 69 67 64 61 57 48 42 38 34 31 28 28 28 28 33 37 39 42 50 56 61 57 57 60 64 63 61 60 57 53 50 45 40 38 31
77 78 78 80 81 82 83 79 76 75 71 67 65 61 59 56 49 42 36 30 30 28 27 25 24 26 30 37 40 43 49 58 55 47 54 56 59 60 57 56 56 53 51 45 39 35 35
76 75 77 79 78 78 75 73 68 67 63 62 58 58 55 48 42 36 31 28 25 24 24 20 22 22 28 32 36 38 40 44 40 44 45 49 48 50 51 50 55 55 52 48 45 38 37
74 74 75 73 74 71 68 66 61 59 60 57 56 53 48 43 37 31 27 23 20 20 20 18 19 21 27 33 33 34 34 31 34 38 37 45 43 44 47 51 53 53 53 53 50 44 37
72 73 71 69 67 66 64 59 55 56 57 53 53 47 41 35 31 26 22 17 14 18 18 18 18 19 28 30 31 32 30 31 36 39 38 39 39 40 43 48 51 52 54 49 52 46 43
70 68 66 66 63 59 54 53 54 53 53 52 48 43 36 29 25 21 19 12 15 17 17 18 18 20 27 31 33 34 36 38 41 44 46 48 47 46 45 47 48 51 49 45 45 43 40
65 65 64 59 55 52 51 51 50 50 50 46 44 37 32 26 22 19 17 13 15 13 13 15 16 20 27 31 34 36 38 39 42 45 44 45 47 47 46 44 47 49 47 43 43 42 44
62 59 55 53 52 51 50 49 48 47 47 41 40 33 26 21 19 17 16 15 12 9 11 14 20 23 27 33 34 36 37 37 39 42 41 40 42 41 41 43 46 47 45 43 41 41 44
55 52 51 51 51 50 48 48 46 44 41 38 35 28 22 17 16 14 13 13 9 11 12 14 16 19 23 29 32 34 36 36 38 40 39 40 38 37 41 45 45 45 44 45 44 46 48

GFSGBSN_250_spd_090.txt.gz
Wind_Speed
80 77 76 75 68 67 67 70 69 72 73 76 79 74 78 80 79 84 79 76 78 80 77 76 73 67 71 78 80 77 78 79 78 77 74 67 71 73 76 82 77 70 71 68 65 63 62
76 75 74 68 68 68 73 75 76 74 73 76 82 78 81 79 81 78 79 77 77 77 77 74 74 73 73 79 81 86 87 88 83 77 78 75 74 76 75 76 80 77 73 71 68 68 66
82 72 71 71 71 70 73 77 83 82 82 79 82 81 75 77 80 86 85 89 90 82 78 78 75 78 81 86 81 87 89 89 81 80 82 80 77 78 73 79 74 76 77 76 73 72 73
75 74 74 73 72 66 79 79 81 83 81 84 82 88 82 82 90 92 93 91 95 91 86 81 82 81 82 82 84 82 80 80 81 80 82 83 79 78 77 79 77 75 74 75 72 76 78
70 75 77 75 66 68 80 85 86 83 82 83 90 92 87 93 93 97 99 96 102 93 89 90 88 88 80 80 80 80 77 75 78 79 78 82 81 81 79 81 80 77 73 73 74 75 75
83 80 80 81 81 80 80 86 83 83 85 89 95 96 96 97 102 103 106 104 97 94 93 92 90 88 84 81 79 75 76 75 71 74 74 77 81 83 83 83 79 79 78 76 76 74 73
87 87 89 79 82 85 88 85 82 87 90 97 97 95 100 102 106 106 104 104 102 95 97 92 94 86 82 83 78 71 72 73 67 69 73 77 80 84 87 86 87 82 79 74 73 72 72
94 88 87 85 89 88 94 91 93 90 91 95 98 103 106 109 108 106 109 108 105 100 93 104 96 85 85 79 75 70 66 67 68 65 71 74 79 90 92 87 84 85 81 77 74 74 71
97 91 93 90 91 91 94 91 92 97 102 104 105 106 107 108 112 113 109 104 104 105 98 101 92 83 81 74 67 65 65 61 64 66 67 73 82 90 94 92 88 85 82 83 81 79 76
98 91 90 95 94 99 101 102 96 101 105 105 104 107 111 111 112 113 111 108 104 102 92 87 92 82 75 67 64 58 60 62 59 65 65 65 78 86 91 93 91 83 85 86 82 80 79
97 98 100 101 101 101 103 104 105 104 101 105 109 110 106 111 115 116 109 108 107 103 91 82 80 78 69 60 57 64 60 61 62 61 62 64 78 83 91 94 90 88 79 81 82 80 76
101 100 103 102 101 99 105 104 103 101 105 109 111 113 112 116 118 122 118 109 103 99 89 80 75 71 62 56 58 58 64 57 63 61 62 64 74 79 89 94 92 87 84 80 79 81 76
95 93 89 96 103 103 102 100 102 105 108 110 111 114 113 116 118 116 113 110 104 96 81 70 71 65 62 56 57 53 59 54 60 60 61 63 69 79 86 91 93 90 87 86 83 78 74
99 106 104 100 100 101 106 106 106 108 109 113 106 109 114 109 113 111 107 108 101 86 76 70 65 66 60 51 54 53 54 52 55 58 62 61 64 78 85 85 90 91 91 91 85 77 80
94 103 108 107 105 104 104 104 109 108 111 113 108 111 108 110 109 107 106 98 90 80 74 68 67 59 57 52 51 49 49 51 52 57 58 62 64 72 83 85 82 89 90 88 83 79 75
109 106 108 110 107 108 111 110 111 113 111 116 116 111 106 106 106 103 96 87 83 75 72 68 61 57 54 48 49 46 47 49 52 57 56 61 60 67 79 86 86 80 84 80 84 87 84
111 113 110 105 101 104 107 111 109 110 112 106 105 106 103 101 97 91 86 79 77 71 68 66 57 53 47 44 45 41 46 51 47 52 54 55 59 65 75 82 83 82 81 87 84 78 75
101 106 101 100 109 110 108 112 109 109 108 107 102 101 97 91 89 85 79 73 72 66 62 58 51 46 39 40 37 36 42 43 44 49 53 56 60 62 72 77 75 72 71 77 81 75 73
96 98 100 100 101 103 100 105 103 97 96 95 95 90 87 86 83 76 70 69 65 61 53 48 46 41 36 36 34 35 38 42 44 47 52 55 60 61 65 71 71 72 71 72 70 68 66
91 94 96 95 94 95 95 95 91 91 89 86 84 85 84 80 74 69 68 63 57 49 46 41 38 34 33 32 32 33 37 41 45 49 53 55 59 60 62 64 69 71 71 70 68 66 63
87 87 87 86 88 88 84 82 83 81 79 79 80 80 78 73 68 67 61 56 49 42 37 33 30 28 30 31 33 32 37 43 48 52 56 59 60 58 58 59 62 63 64 63 62 62 59
72 73 75 77 79 77 73 72 74 75 75 77 78 76 69 65 64 60 55 49 41 35 31 28 25 25 29 29 31 30 37 41 44 49 51 54 56 56 58 60 61 59 58 58 56 53 49
63 64 67 68 66 67 67 69 71 72 71 71 70 67 64 62 56 53 47 41 36 32 27 22 21 21 24 28 29 30 32 37 41 44 47 51 53 51 53 55 55 55 55 54 49 44 39
57 58 57 60 63 65 66 70 71 69 66 63 63 60 59 55 52 46 41 34 32 28 24 18 17 19 21 25 28 28 31 36 38 39 36 44 45 47 48 51 54 55 55 51 47 42 42
57 58 61 64 64 66 67 66 66 63 60 58 57 54 51 50 48 41 34 32 28 24 19 13 15 17 19 24 27 26 29 29 31 33 27 33 42 47 47 47 52 57 55 54 52 48 46
62 63 65 66 65 64 63 63 61 59 55 51 53 49 49 46 42 33 32 28 22 19 16 13 14 17 20 21 23 24 27 28 31 33 34 36 40 46 47 45 48 54 55 55 53 52 48
66 66 66 64 62 60 60 58 55 54 50 48 48 47 45 43 35 30 28 23 15 14 12 12 15 18 21 21 23 27 29 33 37 39 43 44 44 44 48 47 46 51 52 53 53 53 51
66 64 61 61 60 58 54 53 51 47 45 44 44 45 40 40 30 25 24 20 11 12 12 12 14 19 22 24 26 28 31 36 39 42 44 47 47 49 50 50 50 47 49 51 50 51 49
61 60 58 58 55 54 53 48 45 43 41 41 42 42 34 34 27 23 21 18 10 13 15 13 14 17 23 26 29 31 34 35 39 41 42 42 43 47 51 48 45 42 43 45 46 43 43

GFSGBSN_250_spd_093.txt.gz
Wind_Speed
70 71 72 73 71 67 70 70 71 72 70 66 72 79 77 77 77 77 74 81 80 80 78 77 75 70 76 76 71 65 69 71 74 78 78 77 80 83 81 80 76 65 66 68 69 72 67
71 73 74 74 73 72 69 69 68 69 77 75 72 77 82 82 86 86 87 87 82 84 75 73 79 85 86 82 74 65 63 67 73 76 78 84 88 89 87 83 85 75 70 66 67 75 70
75 78 81 77 75 75 74 75 75 71 70 75 74 75 78 86 88 85 87 91 82 85 89 81 86 90 93 89 76 70 70 70 71 74 78 87 93 95 94 94 89 83 74 70 70 73 76
84 84 83 81 82 77 78 78 71 74 71 77 68 75 81 88 89 90 90 86 87 92 92 87 91 94 90 89 84 78 76 78 75 79 84 83 85 91 92 91 89 88 81 73 74 76 71
88 91 87 88 84 81 80 75 73 73 75 80 76 78 85 94 95 90 86 88 89 89 91 95 96 95 97 95 90 84 83 83 86 84 83 84 80 83 87 88 85 87 82 79 77 77 73
93 92 88 83 85 79 80 80 79 78 82 81 82 84 86 90 87 87 91 98 91 95 97 96 99 103 97 92 84 83 85 85 82 84 85 82 77 74 76 82 79 89 89 83 78 79 76
91 93 93 89 91 87 85 83 79 80 84 84 82 87 88 94 96 96 92 94 96 97 102 102 104 99 104 93 91 86 83 82 83 82 83 82 74 64 76 79 79 85 87 84 79 85 77
98 95 94 94 90 91 89 87 88 88 89 92 93 97 95 92 98 96 97 99 101 100 99 108 108 102 101 98 94 86 82 82 81 80 81 80 65 68 72 74 76 79 85 81 82 84 80
103 101 100 92 95 90 93 91 93 94 92 95 93 94 95 97 98 99 103 104 107 103 104 105 104 100 100 98 92 86 83 80 80 77 76 74 64 66 67 67 71 74 79 82 82 86 78
109 105 100 99 100 94 89 92 94 93 100 98 99 100 96 102 104 102 108 104 106 107 106 102 98 99 99 98 90 86 82 78 73 72 71 64 64 60 62 59 66 69 78 82 82 84 79
108 101 99 98 98 89 92 96 95 99 101 97 98 104 105 106 103 108 105 106 105 109 105 99 97 103 101 93 87 81 72 73 68 67 65 55 62 58 55 57 61 66 78 79 81 84 81
110 101 101 95 95 90 88 91 95 95 97 103 105 101 101 100 105 107 106 105 110 112 107 105 105 102 97 91 78 68 69 64 66 61 62 58 62 56 51 57 55 64 70 79 82 82 77
98 98 102 108 101 98 96 95 95 93 96 97 97 99 100 105 108 113 112 113 114 110 107 106 109 100 91 81 71 65 61 62 61 60 61 59 59 55 53 52 54 61 66 77 83 81 73
97 98 98 100 97 102 97 95 92 96 94 94 97 104 103 108 109 111 114 116 110 108 107 108 102 94 88 74 67 60 60 56 51 55 57 53 52 51 51 52 54 58 63 71 78 80 71
88 94 98 104 105 103 102 100 101 98 101 102 104 101 109 109 110 108 110 116 109 105 103 100 95 89 81 69 60 56 55 50 47 49 51 46 46 47 51 55 56 56 58 64 76 79 81
94 94 99 101 102 102 105 100 102 98 103 108 107 109 109 111 108 109 113 108 107 104 100 93 87 78 75 64 60 54 48 47 44 45 44 43 46 44 50 54 53 54 59 61 66 78 79
90 91 95 97 99 99 105 106 108 105 107 111 114 114 112 109 105 108 108 107 105 98 89 83 77 73 69 63 57 47 41 39 39 38 41 41 44 44 50 48 53 57 61 63 63 66 79
68 73 88 91 93 93 99 101 100 105 109 116 116 112 112 110 107 105 103 101 97 89 80 71 69 67 64 58 48 37 35 31 32 33 36 39 42 46 49 53 57 61 65 66 67 62 67
77 76 79 81 86 93 99 100 100 100 102 104 102 108 106 103 105 101 96 93 86 78 70 66 62 60 55 49 40 30 31 29 27 28 35 40 43 47 49 56 60 64 69 65 60 56 55
83 74 72 77 84 89 91 91 90 92 98 99 100 100 97 97 96 92 89 84 75 67 65 60 56 50 45 40 32 25 32 28 25 29 38 45 49 54 54 58 61 64 67 70 67 65 62
73 67 70 76 78 79 81 81 88 89 90 89 89 92 91 89 86 82 79 72 66 63 59 54 44 40 35 34 26 26 32 28 23 32 41 43 45 50 53 57 60 62 65 70 72 71 63
66 67 66 66 67 69 74 79 82 78 79 79 81 81 82 78 76 75 69 66 63 59 51 43 35 31 28 28 26 26 28 24 24 33 42 50 54 53 52 50 54 58 62 66 66 63 62
61 62 59 58 60 66 67 69 68 67 70 73 75 74 71 69 71 66 61 62 58 50 38 35 29 26 26 24 24 20 22 23 25 31 38 44 48 48 49 51 57 59 62 63 61 59 62
57 56 55 56 57 60 60 59 61 66 67 67 65 64 65 67 65 61 62 56 50 41 30 29 25 23 23 23 21 19 20 22 24 27 32 40 45 46 50 54 58 60 60 60 59 59 56
54 56 57 59 58 59 59 60 60 60 60 61 61 61 63 62 60 58 56 49 43 33 26 24 21 22 22 21 17 16 19 23 25 26 30 36 42 44 49 48 50 54 57 57 57 54 52
55 54 54 53 55 56 54 54 57 57 59 60 58 58 57 55 55 54 50 43 34 27 23 21 19 20 20 16 16 17 20 23 24 27 30 33 38 41 43 45 47 50 55 57 57 53 47
50 51 51 51 51 52 53 56 59 57 57 57 53 53 54 53 52 46 43 37 27 24 21 20 18 18 19 16 16 18 21 24 26 26 25 23 28 36 40 42 44 45 50 55 55 51 49
53 55 55 53 54 56 58 59 58 56 55 54 50 51 52 50 47 39 38 31 25 24 20 20 18 19 18 15 15 19 24 26 27 27 28 29 32 37 38 40 44 47 47 48 51 52 52
56 57 58 57 57 56 56 57 55 52 51 48 47 48 47 45 40 33 33 27 25 22 20 18 19 19 15 15 18 22 26 30 32 34 33 34 40 42 45 48 50 53 50 48 49 51 53

GFSGBSN_250_spd_096.txt.gz
Wind_Speed
67 63 62 62 68 65 67 65 66 66 67 65 65 66 67 70 70 70 80 81 78 80 78 79 83 85 85 86 82 78 81 77 77 82 77 65 63 69 71 72 74 73 73 75 75 78 75
70 66 62 64 65 69 75 72 74 72 69 69 72 71 72 71 73 76 73 78 83 74 78 82 85 82 81 81 78 75 79 78 83 81 81 75 67 66 67 70 74 79 80 81 81 80 81
68 69 67 67 68 67 72 80 79 80 79 75 76 72 76 74 76 75 80 82 82 82 78 85 86 91 95 86 82 86 83 86 85 83 79 77 71 71 72 73 79 81 85 89 88 86 88
74 73 74 73 74 71 76 76 78 82 82 79 79 76 75 76 74 77 82 80 87 84 84 89 91 89 82 88 88 87 89 92 89 89 86 82 79 79 80 80 81 86 94 94 91 96 90
84 77 78 76 79 77 79 80 86 85 78 80 78 78 78 76 76 81 82 85 87 85 90 87 89 88 89 93 87 92 96 96 93 92 86 84 83 81 79 84 86 88 98 100 95 94 89
89 85 83 84 84 86 88 87 85 87 85 83 83 81 82 84 84 83 87 86 87 93 90 90 92 91 93 91 93 99 100 96 94 94 86 84 85 80 76 86 89 91 99 92 84 86 91
97 95 94 92 90 89 93 94 93 86 89 86 84 87 82 83 80 83 87 93 94 91 98 96 95 89 95 97 100 104 98 94 95 89 89 88 85 76 85 89 86 87 87 83 78 82 88
102 101 100 100 100 94 98 97 94 92 89 90 88 84 85 86 90 92 95 95 97 97 88 92 95 101 104 107 104 102 93 97 90 87 90 92 84 79 87 88 83 76 78 73 75 75 82
108 111 103 107 106 97 100 99 97 92 87 91 91 88 86 90 84 90 93 93 96 100 100 102 98 105 106 102 105 103 100 95 91 90 91 92 80 83 84 78 77 70 65 66 67 72 71
112 108 112 107 108 103 101 100 102 96 95 95 96 95 98 101 97 100 104 101 104 105 103 102 100 99 103 105 107 99 101 96 89 90 87 86 79 80 79 68 70 61 59 61 62 66 62
115 115 112 111 109 105 107 109 104 104 102 92 97 102 100 96 94 92 95 97 104 106 105 98 95 99 105 100 99 99 96 92 87 83 82 72 74 74 70 62 60 51 57 55 59 61 60
119 114 115 114 116 113 112 113 108 105 104 95 97 92 91 92 98 93 97 103 104 105 106 104 103 105 100 102 100 97 95 92 85 76 69 66 67 66 62 56 51 49 50 52 53 56 51
113 114 110 111 110 112 111 108 105 104 106 103 104 106 98 96 97 102 106 103 105 105 110 112 111 104 103 101 100 97 91 83 79 74 61 59 62 63 57 50 48 46 47 45 48 46 45
101 101 103 107 104 100 99 102 103 103 102 101 89 100 111 111 107 105 108 106 109 111 114 119 111 108 105 106 101 92 82 74 71 65 57 55 53 54 50 47 47 49 45 43 41 41 44
80 80 88 88 85 91 94 95 97 97 100 102 103 88 92 104 105 109 108 107 110 114 120 119 117 115 109 106 97 87 78 69 62 59 52 49 48 43 43 41 41 43 39 41 43 39 44
63 65 72 75 73 73 82 85 89 89 98 101 98 98 95 93 100 107 108 113 115 114 118 121 117 107 104 98 91 84 73 64 58 50 43 40 35 37 40 34 38 40 47 43 39 43 47
60 60 54 58 63 69 74 76 85 84 89 93 94 93 100 104 108 110 112 113 115 116 115 115 110 103 97 86 78 75 68 57 49 41 36 33 34 35 35 30 34 38 44 38 41 44 48
53 59 56 59 68 74 76 81 81 79 86 86 89 95 100 105 109 113 110 109 109 112 110 108 98 93 84 73 71 67 58 47 40 33 30 30 30 29 33 35 37 41 44 43 44 45 49
50 57 59 59 67 78 78 77 79 79 73 78 87 88 96 100 104 106 105 108 107 105 103 95 87 80 71 65 61 54 47 37 30 23 23 23 25 27 29 30 33 36 41 44 45 44 48
64 65 67 68 71 69 73 70 68 60 65 70 76 83 93 97 97 99 99 99 99 95 89 81 76 69 62 54 48 45 38 26 22 17 18 24 30 30 30 36 39 45 48 49 51 49 55
67 70 70 68 73 71 68 67 69 69 67 68 73 78 82 86 88 90 91 89 87 80 74 70 66 59 52 45 38 39 30 18 17 16 23 29 34 35 34 40 44 55 57 57 59 57 60
71 73 72 71 69 69 57 60 69 73 66 68 69 72 75 78 80 80 81 78 73 72 65 61 57 51 42 36 32 30 20 13 19 19 26 31 37 40 45 47 54 62 70 69 66 57 55
71 75 73 77 77 74 71 70 75 69 65 68 70 72 70 73 74 74 71 69 68 61 58 55 49 43 35 29 24 22 16 14 18 21 28 31 35 39 45 50 55 62 67 64 59 59 59
62 60 58 66 69 66 65 70 64 61 60 63 64 68 70 69 68 69 66 65 58 55 52 50 44 37 29 23 19 18 16 15 19 21 26 30 32 42 41 39 51 55 57 62 65 64 62
55 53 48 50 51 54 56 53 55 55 56 57 60 65 66 67 64 62 59 57 53 50 50 46 38 32 25 20 17 15 16 16 17 21 24 27 27 33 36 40 43 48 53 60 60 61 59
49 50 45 43 44 48 49 49 51 53 56 58 61 63 64 60 57 55 53 51 48 46 45 39 34 29 21 18 15 14 12 15 20 23 26 29 32 35 37 39 45 50 52 60 60 58 56
42 42 42 43 45 45 46 47 50 52 55 57 59 59 57 54 51 50 49 47 45 42 38 32 29 24 19 15 13 14 15 16 19 23 28 28 28 31 36 39 43 47 51 59 57 57 57
46 45 44 43 43 45 49 50 50 51 53 52 53 53 51 49 47 45 45 45 42 38 32 27 25 20 15 15 13 12 15 17 19 23 28 26 28 30 35 39 42 45 49 52 56 60 59
48 49 48 46 47 47 49 48 49 49 49 50 50 49 48 45 44 43 44 41 38 34 26 22 21 18 12 16 17 17 18 21 23 26 26 29 26 28 36 38 40 44 46 49 53 58 62

GFSGBSN_250_spd_099.txt.gz
Wind_Speed
76 78 78 73 68 65 64 65 62 62 60 68 64 61 65 72 71 71 65 70 66 72 68 68 66 70 73 71 78 77 78 77 80 81 84 75 75 77 75 78 76 73 66 66 69 72 75
74 72 74 72 71 69 67 64 65 64 62 58 61 65 74 79 78 73 72 75 71 67 71 69 71 69 78 79 77 75 80 85 86 80 82 79 79 77 81 85 84 75 69 66 67 74 78
78 73 76 71 73 69 69 69 66 66 66 64 62 63 64 70 78 78 78 73 72 69 68 71 75 77 77 79 78 83 86 81 82 83 86 85 86 85 90 91 85 82 73 70 67 73 84
77 78 78 76 74 74 72 71 69 68 70 67 67 67 68 72 76 80 75 75 73 71 71 75 74 71 80 81 82 83 84 90 86 85 84 89 90 90 96 93 90 84 83 77 69 80 79
81 78 76 79 75 74 75 75 74 71 72 70 72 73 74 76 77 80 78 77 75 74 77 78 78 81 83 82 85 86 88 87 84 80 84 90 96 99 94 95 91 85 87 83 75 79 85
84 84 80 77 79 80 82 81 79 76 77 79 80 78 78 82 84 83 81 81 79 81 83 80 80 81 79 82 87 92 91 81 83 89 95 98 97 89 95 97 92 89 90 86 83 71 89
93 89 88 82 82 86 87 86 84 86 86 82 84 83 87 87 87 87 84 88 80 88 87 86 81 82 88 88 87 90 84 91 99 97 97 98 88 86 92 96 95 91 90 90 82 82 92
100 98 93 92 85 90 94 95 91 90 93 91 89 89 91 91 92 92 90 90 84 84 85 87 87 86 89 91 90 91 95 102 97 93 90 93 85 91 89 91 94 91 89 85 83 82 89
107 106 101 99 97 95 98 100 94 96 103 102 94 96 95 96 97 90 94 83 87 92 94 96 91 97 93 94 91 96 96 96 94 91 94 92 88 90 94 92 92 90 88 82 81 78 80
115 111 109 107 103 102 104 105 105 103 106 109 104 99 100 98 92 87 91 91 98 101 93 91 98 93 92 93 94 94 103 101 98 96 98 88 94 94 90 87 89 87 79 78 67 64 58
121 121 117 112 109 111 111 110 112 110 112 110 111 104 105 98 97 93 97 102 106 108 102 96 86 89 89 94 101 106 108 113 103 101 93 81 89 89 86 80 79 73 71 67 61 50 47
123 122 121 119 113 116 120 119 120 118 119 115 112 109 107 101 105 92 101 106 108 107 108 104 102 104 102 103 109 112 117 119 112 103 92 88 83 81 78 69 68 66 61 55 52 42 36
119 117 114 114 115 117 123 119 115 117 113 109 109 107 106 106 105 104 109 108 102 93 102 103 105 105 111 115 109 107 105 106 106 105 89 85 76 70 67 58 63 59 55 49 40 34 33
101 102 103 103 102 113 110 107 105 106 106 103 105 101 100 102 104 107 109 110 111 117 92 96 97 97 104 113 108 104 102 101 104 100 85 70 64 62 59 53 54 49 47 42 39 32 35
82 80 88 85 86 86 96 93 92 97 100 98 99 97 94 103 103 101 107 107 111 110 107 109 111 115 116 113 108 102 99 99 98 91 75 64 59 51 51 49 45 40 36 43 37 31 28
72 70 69 70 68 71 78 82 83 85 85 86 86 84 81 86 87 92 91 97 101 103 103 109 113 116 116 117 111 104 100 95 84 72 62 57 54 45 43 38 33 36 37 33 31 28 31
60 58 56 58 55 56 59 61 62 64 68 67 63 64 70 68 69 75 79 86 93 97 100 105 113 114 111 109 103 95 91 80 71 63 57 52 42 34 31 30 31 30 28 26 29 33 39
47 51 42 43 44 43 40 42 48 53 54 56 59 61 63 65 69 77 81 85 87 91 97 101 105 106 105 97 94 83 75 66 61 55 46 41 31 26 25 25 28 29 33 35 41 42 44
47 44 47 43 40 47 48 47 45 48 51 54 60 64 67 70 70 74 76 75 83 90 94 94 94 95 91 86 72 66 63 57 48 41 35 31 26 22 21 25 27 26 29 38 42 47 49
47 48 50 51 53 50 54 52 47 51 54 56 58 63 65 69 70 60 66 72 76 79 81 85 86 82 72 65 60 58 53 42 38 34 29 24 25 24 27 28 32 33 38 40 44 48 56
54 55 54 58 53 54 53 52 53 51 52 55 59 63 66 67 65 67 68 69 71 74 76 76 72 64 58 55 52 45 37 34 32 29 26 23 23 26 30 30 32 34 38 44 48 53 61
49 51 55 52 57 53 50 53 52 55 56 57 60 56 60 61 60 64 66 69 70 70 68 66 62 57 53 49 40 32 28 28 27 26 22 20 23 32 35 36 38 39 43 49 56 58 59
52 49 51 53 56 52 50 53 50 54 59 61 59 51 56 61 63 66 69 69 69 64 61 61 57 52 47 40 28 24 21 22 22 24 20 21 26 30 37 41 43 46 53 56 58 56 56
54 54 53 55 56 55 57 57 58 61 61 58 58 63 66 65 65 65 66 64 62 57 62 58 50 43 38 29 23 18 17 20 21 22 21 21 25 27 40 43 48 50 56 56 56 53 50
54 56 56 56 56 58 57 60 61 62 66 62 61 60 60 58 61 60 59 58 56 56 55 50 41 37 30 23 18 13 16 20 23 22 23 24 24 26 36 40 41 51 55 54 53 53 51
54 52 51 54 57 53 55 53 51 48 46 46 49 50 53 53 53 55 56 55 53 47 44 44 35 34 25 19 13 12 14 18 22 25 26 26 26 26 25 31 44 48 55 58 53 53 54
54 53 51 51 48 47 47 42 39 38 38 40 44 46 47 49 50 51 51 50 45 38 40 39 34 28 20 13 12 14 16 22 26 27 27 28 26 27 27 23 26 45 52 54 57 58 56
53 50 50 49 44 45 41 39 38 37 37 39 41 44 46 48 48 48 44 41 37 36 36 37 31 23 17 13 13 15 19 24 25 26 27 26 29 29 28 30 32 33 42 49 54 60 59
53 51 48 44 41 38 38 41 39 39 40 42 44 45 44 46 44 41 38 36 35 35 34 34 25 20 15 13 16 17 21 23 26 29 31 31 30 34 33 34 33 34 40 45 50 57 63

GFSGBSN_250_spd_102.txt.gz
Wind_Speed
89 80 80 76 75 86 83 75 71 68 69 67 67 66 66 67 68 71 73 70 65 63 67 70 69 65 63 66 64 63 66 67 65 69 71 75 71 68 76 77 80 72 73 70 73 76 80
82 81 78 76 78 81 79 74 73 68 69 69 68 66 66 68 69 69 67 70 72 68 70 69 70 70 69 68 66 65 65 67 64 68 72 73 78 75 78 80 81 77 76 79 77 83 87
82 77 76 76 75 81 73 73 76 73 73 70 68 69 68 70 71 67 64 63 64 65 64 70 69 73 71 73 67 66 65 67 74 74 72 75 81 81 79 78 77 77 77 77 83 89 85
86 83 79 80 80 77 77 73 74 73 75 75 73 72 69 70 70 67 67 59 63 65 66 70 73 75 76 74 69 68 70 73 75 68 79 81 80 78 79 75 75 80 84 86 84 86 81
91 89 86 83 86 81 81 78 79 75 77 75 72 70 67 70 72 70 66 64 67 71 68 73 75 79 77 74 75 74 77 78 71 76 72 79 83 83 83 82 84 91 92 87 71 86 88
94 94 93 89 87 87 90 86 84 81 80 81 79 76 72 71 73 73 69 73 70 73 78 77 74 79 80 82 81 79 79 78 75 77 79 80 81 82 84 91 89 90 88 85 81 83 97
104 99 100 97 93 94 92 93 91 86 83 83 82 82 80 82 78 77 77 77 77 79 83 84 85 84 86 87 87 82 81 77 83 88 85 88 83 80 86 89 93 93 95 88 89 92 102
112 112 110 108 105 99 97 95 97 93 91 87 87 86 88 92 88 86 83 85 83 83 86 90 88 90 92 91 85 83 81 89 96 85 86 88 77 85 89 91 98 104 100 99 97 92 98
123 121 118 116 109 107 102 102 104 100 96 96 94 91 91 94 97 92 91 90 88 93 92 97 95 96 94 89 86 86 93 94 99 98 88 86 81 87 96 102 99 97 106 100 97 92 94
128 129 127 122 119 114 111 112 109 110 107 108 102 97 98 96 97 101 99 96 99 97 97 101 99 93 98 94 95 100 103 102 99 99 96 92 96 102 100 98 104 108 105 100 97 93 88
137 131 134 129 125 122 121 118 117 119 118 116 112 111 108 105 102 102 102 101 102 104 104 104 101 103 106 105 102 104 105 106 107 94 101 90 97 96 100 101 104 101 96 92 92 83 75
137 137 139 133 129 127 127 126 127 125 126 123 118 116 112 111 109 107 106 108 106 108 110 103 100 106 107 110 104 105 108 111 109 99 109 108 102 103 103 101 94 91 87 83 74 66 51
122 116 115 116 117 117 117 121 123 121 122 121 118 116 110 106 109 109 110 112 114 104 105 102 104 107 107 111 109 108 110 107 109 114 115 110 105 103 108 94 79 84 75 65 57 54 50
102 99 99 95 98 100 103 105 105 110 108 112 114 112 111 108 107 108 109 106 100 96 103 106 107 108 105 108 106 109 106 107 111 114 109 98 94 99 98 80 67 71 61 55 50 46 38
88 85 83 84 86 90 89 91 94 95 97 100 97 100 102 99 101 98 98 98 94 95 100 103 100 100 102 102 104 102 103 108 105 101 96 90 73 77 68 67 59 60 51 46 40 37 31
67 68 69 68 71 73 74 77 79 79 81 82 83 84 87 88 86 88 86 86 88 91 90 91 92 91 89 92 96 98 95 92 87 86 84 74 63 59 59 56 52 46 39 34 31 28 32
56 57 58 61 63 63 63 63 60 59 62 66 69 70 72 73 73 77 77 76 74 75 73 70 71 76 81 84 87 88 85 82 78 78 72 62 57 54 54 44 40 32 29 27 26 31 33
46 46 47 49 52 53 52 52 49 50 50 56 55 55 56 57 55 56 56 57 60 61 63 67 71 74 76 80 79 77 72 68 68 64 61 56 52 48 43 35 28 23 22 27 32 35 37
44 39 36 39 40 44 46 41 42 43 43 42 43 46 45 47 46 48 51 54 57 60 63 69 72 75 74 73 67 66 63 61 59 55 52 46 42 38 32 26 25 26 32 40 44 44 46
40 36 36 42 41 43 43 42 42 41 40 39 40 39 39 37 43 49 50 53 55 60 64 67 68 70 71 65 57 57 56 54 50 47 43 36 31 27 23 22 23 26 38 43 42 47 51
45 45 44 44 44 44 43 43 40 39 39 40 38 37 41 44 45 46 47 51 54 58 60 64 66 68 61 53 50 48 47 46 43 37 31 26 23 20 19 21 26 33 37 44 44 48 54
46 46 45 46 45 44 43 45 43 43 45 44 43 42 38 40 42 45 49 52 51 53 58 62 64 55 48 45 44 46 44 38 32 28 25 22 19 20 24 29 35 36 40 46 49 55 62
40 40 42 46 45 43 41 44 41 38 42 42 44 43 42 42 45 48 52 48 51 60 62 58 54 48 44 40 40 42 37 28 25 25 22 20 21 25 29 33 37 41 46 55 58 58 63
40 41 42 43 43 44 42 40 37 38 39 39 37 38 41 43 45 45 49 53 62 63 58 55 50 42 36 37 36 34 27 22 22 22 21 19 22 26 32 35 38 43 49 56 60 60 59
37 38 38 42 42 38 40 40 34 39 37 38 39 40 42 45 50 55 62 59 59 55 51 48 45 36 32 30 28 28 23 21 20 20 21 19 23 27 36 39 45 48 52 57 61 63 61
41 40 40 42 38 38 37 37 37 40 41 41 42 43 47 53 55 57 56 51 50 49 46 43 40 35 27 27 23 25 24 18 19 21 23 21 28 28 36 42 46 48 51 53 57 62 63
45 44 44 44 43 43 41 42 44 47 45 45 45 45 45 42 42 43 43 44 43 45 44 38 34 30 22 23 20 23 24 21 21 23 25 25 27 28 27 37 44 44 48 50 53 53 55
50 48 46 46 47 43 41 40 39 37 35 32 34 34 32 34 37 38 40 42 43 39 38 33 28 24 22 20 21 21 27 23 23 26 27 23 25 26 26 26 37 44 48 50 49 49 50
50 53 49 48 42 40 39 35 34 32 30 31 32 32 34 35 38 39 40 38 36 34 31 30 27 21 19 19 18 22 26 22 27 27 29 29 29 29 30 29 31 32 41 48 49 51 52

GFSGBSN_250_spd_105.txt.gz
Wind_Speed
81 81 89 90 96 94 87 80 78 79 75 77 79 84 83 75 70 68 69 68 67 70 72 73 72 74 69 68 66 67 68 67 66 65 65 68 65 60 58 64 66 57 63 69 67 73 71
87 90 92 94 91 86 79 78 74 74 73 76 80 80 82 74 72 72 72 71 68 71 70 72 70 71 75 75 68 68 73 72 69 68 70 69 69 66 61 64 67 71 67 70 73 70 73
97 96 98 101 87 85 85 80 79 79 75 73 75 81 78 74 72 73 71 72 71 69 70 69 70 68 67 70 67 72 73 74 74 73 77 76 73 66 65 67 71 68 69 72 74 78 75
104 105 96 97 91 90 88 84 81 80 77 75 74 76 78 78 72 71 71 69 71 72 70 69 69 69 68 69 70 72 75 76 76 78 78 75 72 68 67 68 70 69 65 69 77 75 75
112 111 103 101 99 93 91 88 86 85 80 75 76 78 78 78 80 74 70 69 70 73 72 70 67 67 71 71 74 74 77 77 77 80 81 82 77 79 75 73 72 75 73 73 78 78 86
120 118 109 103 101 98 96 90 92 88 89 85 81 82 84 80 82 82 79 76 75 73 72 72 74 74 75 76 79 80 80 81 81 81 83 85 85 81 78 77 77 86 86 75 76 78 81
116 111 111 108 105 102 98 95 93 93 95 96 92 88 89 87 83 83 84 84 79 73 71 78 77 79 81 83 80 85 88 84 84 85 86 84 83 78 77 81 86 90 89 81 80 80 83
121 113 113 112 106 104 103 101 97 98 99 98 104 99 98 95 91 89 87 85 82 81 79 81 82 81 84 83 87 91 90 90 93 91 89 89 86 84 85 89 95 97 97 89 81 84 92
119 117 116 112 111 108 109 110 104 104 108 106 110 108 108 105 102 99 96 92 90 90 88 93 90 86 88 88 88 92 94 95 97 96 94 88 93 95 91 93 97 98 99 93 90 88 93
123 119 119 119 119 117 112 116 115 117 115 114 116 112 115 112 108 111 109 100 97 96 96 95 100 98 97 102 101 97 97 100 101 103 102 99 100 99 99 97 99 96 104 99 99 103 97
128 129 128 126 124 126 124 121 123 126 123 123 125 126 121 121 120 121 119 113 107 104 105 103 97 100 103 106 101 94 99 99 101 104 104 106 106 109 113 107 103 101 104 104 105 103 93
135 136 138 135 135 136 134 132 133 133 135 133 137 134 129 128 128 126 125 118 115 113 110 109 107 105 107 103 104 107 106 106 107 107 107 105 107 108 107 106 107 107 104 101 94 90 83
143 144 142 140 140 138 135 137 136 136 141 141 138 136 134 136 133 132 127 121 120 116 111 110 108 109 107 102 102 106 109 110 108 105 103 104 106 103 105 107 104 99 92 87 82 81 76
143 140 135 126 121 116 112 111 110 112 110 109 109 110 108 110 114 115 121 121 122 113 111 103 102 104 103 101 101 104 107 109 107 106 101 101 103 102 100 101 94 88 85 81 77 69 66
127 122 117 108 103 92 88 89 89 91 89 88 89 90 92 96 100 99 100 99 100 100 97 95 97 100 96 96 99 99 97 98 99 99 101 99 90 85 87 81 78 73 71 69 61 59 56
109 101 93 84 77 73 73 75 76 75 75 76 78 80 80 81 83 86 86 85 87 88 90 89 88 87 87 86 85 85 86 90 91 88 83 78 73 80 75 66 68 57 55 57 53 50 45
82 77 71 68 65 64 62 61 62 64 64 65 68 67 67 68 70 72 73 74 76 79 76 75 75 73 75 75 73 72 71 71 73 72 73 75 72 66 58 57 53 51 49 46 41 36 36
68 66 61 58 55 54 54 54 54 54 54 53 54 53 53 56 57 58 57 58 62 63 62 60 58 56 53 55 58 63 68 68 70 69 74 71 60 52 52 50 47 44 38 35 35 34 33
61 58 54 48 47 45 45 47 46 46 45 47 45 44 46 46 46 46 47 48 50 48 46 45 45 47 51 57 61 66 66 65 65 69 65 54 48 47 45 41 36 31 31 33 36 37 38
53 51 48 43 41 41 39 39 38 39 39 36 39 39 44 42 41 43 40 38 37 37 40 43 45 49 52 56 59 60 60 61 59 56 52 48 44 41 33 29 27 28 32 35 37 40 41
49 45 41 41 39 37 38 39 37 37 36 39 40 41 41 41 41 34 34 33 35 39 40 42 47 49 52 52 53 56 53 52 50 47 44 40 35 30 25 24 26 28 34 38 43 42 47
44 47 44 40 36 37 33 34 34 38 37 39 40 39 39 37 35 31 30 34 39 41 40 43 48 48 48 52 47 50 47 46 42 39 36 31 27 23 18 20 23 27 28 33 39 46 48
43 41 42 42 37 41 40 38 38 39 40 44 42 36 34 32 30 31 34 37 41 41 43 46 47 48 49 49 46 45 41 39 37 35 30 25 21 17 16 24 30 31 39 39 47 49 49
37 40 39 41 38 43 45 43 45 41 40 35 34 34 34 34 35 37 39 38 39 41 42 45 50 49 44 42 41 40 37 34 34 30 24 19 17 15 20 27 37 43 45 48 49 50 50
38 39 41 37 38 46 46 46 44 37 40 36 32 27 32 33 32 32 32 36 37 44 50 52 44 41 38 36 35 35 36 31 29 25 19 18 14 18 23 31 39 47 49 55 51 51 53
38 37 36 36 40 43 44 43 40 30 27 25 25 26 28 28 29 32 35 40 46 50 48 44 38 35 33 35 32 33 32 26 24 22 19 16 16 20 25 32 42 47 54 56 55 52 52
37 35 33 35 37 34 34 33 30 28 25 27 27 30 30 31 34 39 43 44 43 40 39 38 37 33 29 31 31 31 25 24 20 21 22 18 18 22 25 32 39 45 56 57 58 57 55
41 37 35 31 30 31 31 29 28 28 29 32 32 32 38 40 36 34 35 34 35 37 39 38 35 29 27 31 27 27 23 24 20 21 23 20 17 18 23 23 36 40 49 58 59 59 57
42 41 39 36 33 35 32 31 29 32 32 31 30 30 28 24 25 29 29 31 34 37 37 34 29 27 26 27 23 23 23 22 23 25 25 21 19 19 21 23 27 37 45 53 58 58 55

GFSGBSN_250_spd_108.txt.gz
Wind_Speed
87 91 87 78 83 85 85 84 83 83 84 80 77 76 82 84 74 73 74 75 80 81 82 75 66 67 69 73 73 73 75 77 75 76 70 68 69 69 68 66 63 63 60 62 64 66 64
97 90 86 81 84 87 88 89 92 96 91 88 88 81 86 88 83 77 73 69 72 75 76 75 69 70 71 73 71 74 76 75 77 71 77 74 73 72 76 73 72 70 67 68 66 66 67
100 90 87 85 90 91 94 97 96 93 89 88 85 82 88 85 84 82 79 73 68 72 73 70 71 69 69 76 71 71 73 71 70 70 69 72 73 74 76 78 75 72 71 70 69 70 71
103 89 93 92 97 98 99 101 99 95 92 88 90 90 89 86 84 84 83 78 71 67 64 69 69 69 70 72 73 72 72 77 73 73 73 75 78 79 78 74 75 77 76 74 77 77 76
99 90 94 94 96 102 100 104 104 103 101 103 96 100 102 91 85 86 82 83 75 72 73 68 67 67 69 71 73 73 77 75 75 76 78 78 79 80 80 82 81 80 80 77 76 75 76
96 89 95 98 101 102 108 108 110 112 112 111 106 105 105 99 94 87 86 85 82 80 78 75 73 67 71 73 75 75 77 79 82 80 82 85 83 82 83 88 84 85 83 81 76 75 75
99 102 107 109 113 112 114 117 116 112 114 117 117 108 103 103 97 91 90 91 82 83 84 86 78 77 74 72 74 77 79 81 82 85 86 86 88 88 91 90 92 89 80 71 81 79 79
112 111 110 115 117 116 117 118 118 116 114 117 117 108 104 103 100 93 93 94 91 89 87 88 89 90 87 83 78 81 79 82 84 85 87 87 87 91 91 91 89 82 82 86 85 87 92
117 117 118 119 120 121 121 119 120 118 116 115 110 108 104 103 103 101 99 101 102 99 98 94 93 94 95 94 93 91 93 93 91 93 92 90 92 92 92 94 87 89 94 96 91 96 93
117 115 116 117 116 119 120 122 121 121 118 114 111 110 110 118 108 113 109 111 108 111 113 103 103 102 99 100 103 100 100 99 98 97 99 99 102 101 97 96 94 101 104 102 101 97 93
118 121 125 124 126 124 125 124 123 120 119 118 120 118 117 116 118 118 119 119 120 119 125 117 113 113 112 110 111 109 105 104 104 103 102 106 104 104 105 104 106 103 104 106 105 102 101
129 130 130 130 128 130 129 126 124 123 125 125 125 125 125 122 125 124 130 130 133 131 128 131 123 119 118 122 121 119 112 109 107 105 105 106 103 104 106 103 105 105 107 107 102 99 99
137 137 137 135 137 139 137 135 133 133 129 133 131 129 127 128 133 133 136 142 137 136 134 124 126 123 123 120 119 118 117 115 111 106 102 101 97 99 101 102 104 104 100 99 97 94 90
141 143 142 142 140 136 132 131 130 130 132 126 125 124 127 130 130 126 121 120 117 115 114 106 108 100 98 98 96 97 98 99 99 97 94 92 95 97 97 100 97 96 96 93 86 79 75
142 141 140 132 129 129 131 130 129 124 123 119 116 114 113 114 111 107 102 96 94 91 94 89 89 88 87 89 90 91 89 90 90 88 87 85 85 85 89 90 87 82 85 81 75 73 66
128 125 126 123 123 123 121 120 122 120 112 107 101 95 92 91 90 87 83 78 76 74 76 76 76 78 80 82 82 81 79 77 76 75 73 75 75 78 81 74 73 70 76 74 71 66 64
116 118 116 116 116 114 113 110 104 96 90 84 82 80 76 75 75 71 63 62 61 62 63 65 67 69 70 69 67 65 63 64 63 63 66 69 68 66 67 69 73 71 67 64 58 58 57
94 94 95 97 96 94 92 86 80 72 70 71 71 68 67 62 60 55 52 52 52 52 55 57 59 59 55 52 49 49 53 54 50 56 57 57 59 63 67 66 63 60 56 52 50 50 49
70 73 75 75 74 70 68 64 62 61 62 62 61 58 52 47 43 41 40 41 43 44 44 45 45 42 40 41 39 42 45 48 50 52 55 59 58 59 59 53 52 49 49 47 44 42 40
61 62 61 60 59 57 54 53 53 54 53 51 49 45 43 38 36 33 33 33 34 36 35 33 31 32 33 34 39 44 48 49 49 50 56 56 53 51 49 47 45 44 41 39 39 38 34
57 55 55 55 53 48 48 47 49 46 44 43 40 38 39 33 33 34 34 34 32 33 31 29 29 31 33 38 44 48 46 45 49 54 51 46 44 44 42 40 37 36 35 35 33 27 27
51 51 51 50 46 44 43 43 41 39 39 40 39 36 36 34 35 33 33 34 29 29 30 30 30 34 38 43 46 45 47 45 45 42 37 37 37 36 32 31 31 30 30 30 26 24 34
46 48 47 44 43 41 36 33 34 35 37 34 35 34 31 30 32 32 34 31 30 28 27 32 35 39 43 45 43 44 38 40 40 34 34 31 28 26 24 23 24 27 28 23 20 31 35
51 45 43 41 37 34 31 32 33 30 30 30 30 30 30 31 28 26 26 28 28 28 30 34 38 41 40 42 38 35 35 38 35 31 30 25 22 20 18 17 22 25 25 25 26 35 40
40 38 39 36 31 29 31 31 32 30 28 29 29 28 28 29 30 29 28 29 31 31 32 34 35 37 38 35 32 33 34 34 31 29 26 21 19 16 14 18 23 28 28 31 34 36 44
41 41 38 35 33 35 36 35 37 32 31 31 29 28 33 32 30 33 30 29 29 27 31 34 38 39 34 32 30 32 31 30 29 25 23 16 17 14 14 18 27 32 36 38 45 42 41
41 39 35 36 38 38 37 34 35 38 32 30 27 35 33 34 29 26 24 24 27 33 36 39 36 33 31 31 27 29 30 27 29 25 20 16 15 12 14 21 29 35 41 45 53 50 49
39 36 34 36 40 36 33 40 35 36 36 37 35 30 26 23 23 24 28 29 37 39 35 32 32 31 27 27 26 28 29 26 27 23 20 15 14 11 9 18 27 33 42 51 54 51 50
37 36 34 36 39 37 37 39 35 35 30 26 21 24 27 27 28 29 36 34 29 28 30 31 30 28 25 23 25 26 26 26 24 22 20 18 12 14 14 14 26 32 40 49 56 51 52

GFSGBSN_250_spd_111.txt.gz
Wind_Speed
89 89 84 83 86 84 85 85 84 80 82 75 79 77 85 85 83 78 79 76 72 75 67 68 74 81 81 74 73 67 64 64 63 65 69 71 69 69 70 70 68 67 68 69 68 70 69
95 93 92 93 93 88 91 89 87 91 83 83 79 82 84 89 85 85 76 71 72 77 76 73 77 85 81 81 72 70 66 64 65 68 69 71 70 68 68 69 71 71 73 73 73 72 67
95 95 92 93 96 94 93 94 91 91 92 90 84 83 88 90 94 97 90 78 80 82 83 81 79 83 77 80 76 69 64 65 63 65 68 70 69 69 66 65 66 70 71 70 70 74 71
102 100 99 100 99 101 99 98 94 93 94 91 87 87 90 93 95 99 98 96 90 82 83 84 85 82 81 82 76 71 64 61 64 66 68 67 69 72 69 70 72 76 77 76 75 75 72
107 104 103 102 104 100 100 99 98 95 95 95 91 93 93 95 99 100 104 101 97 98 88 88 85 87 87 81 79 74 75 68 64 64 66 69 73 72 75 78 75 75 77 79 79 79 80
100 102 101 103 104 99 100 99 97 98 97 88 90 93 95 98 101 101 105 110 110 103 99 98 98 102 88 86 77 75 77 73 70 68 66 71 73 75 78 80 80 82 82 83 84 87 88
102 100 101 103 101 99 101 91 96 94 96 86 94 99 102 107 110 105 108 112 110 110 102 103 102 102 89 86 85 83 80 78 80 79 78 71 71 75 80 81 82 83 85 88 88 91 91
104 102 96 101 106 101 102 100 94 93 97 95 101 104 104 111 112 110 110 111 117 116 108 102 100 95 89 87 83 85 86 86 85 84 85 85 81 81 80 84 86 86 87 88 89 92 94
108 104 105 101 106 109 107 100 101 96 103 108 111 114 111 112 109 111 110 109 113 116 113 108 107 100 97 93 91 91 92 95 94 94 95 95 91 90 91 86 85 88 88 90 92 91 88
125 115 109 113 107 108 111 110 107 110 116 115 118 112 113 110 115 110 113 113 117 118 113 110 108 108 108 102 98 98 104 103 101 100 104 103 102 101 102 102 104 100 98 92 95 96 93
118 125 122 118 111 113 109 111 115 113 112 114 115 119 115 113 112 116 114 117 120 119 122 115 111 114 114 111 109 109 109 111 113 111 112 113 111 111 110 108 109 107 105 102 99 100 98
136 129 129 124 120 121 119 115 113 117 113 115 119 118 118 117 120 119 118 120 121 125 120 121 118 113 115 116 113 112 114 113 116 116 113 115 116 115 110 110 111 106 104 103 100 100 97
138 135 133 130 129 125 125 120 121 121 121 121 122 122 123 124 124 124 122 124 126 123 120 121 115 116 115 110 110 111 102 95 87 89 92 96 98 95 97 95 93 97 96 94 94 92 90
133 136 139 141 136 132 133 133 133 133 132 128 130 130 131 127 127 126 125 126 124 117 119 116 119 114 112 105 100 98 91 84 77 76 75 76 77 77 79 83 84 83 83 85 85 86 84
129 125 126 125 133 139 136 137 132 133 131 131 132 130 131 129 131 128 124 116 111 110 114 117 113 106 98 94 87 86 81 74 68 64 66 65 67 70 75 77 77 77 79 79 76 76 76
126 125 121 124 122 123 124 124 123 123 124 126 130 128 130 126 124 117 112 112 113 108 104 94 83 77 73 71 71 69 64 59 59 57 58 61 63 66 69 67 68 69 69 69 69 72 69
119 122 119 120 120 122 124 121 119 118 120 122 121 119 116 111 108 106 106 102 96 86 81 77 71 64 59 58 58 56 51 52 51 51 53 55 56 59 59 59 58 60 64 65 63 62 56
100 101 102 103 109 115 117 115 115 115 112 112 110 111 106 105 100 92 87 79 74 69 66 60 56 54 53 50 49 43 43 42 43 46 46 49 51 50 49 50 54 57 56 54 51 51 49
84 84 83 85 91 93 93 97 103 104 104 103 100 99 92 85 78 72 70 65 60 57 53 51 49 46 43 38 32 33 36 36 38 41 41 41 43 46 50 53 54 52 49 45 43 46 47
71 69 71 71 73 71 73 79 82 80 78 76 73 70 63 62 60 61 57 50 46 43 43 37 33 32 27 23 27 30 33 37 40 39 38 39 46 50 51 52 50 45 41 40 40 42 41
65 66 62 60 59 59 63 62 57 54 53 54 53 51 53 50 52 50 47 44 41 42 38 33 26 21 22 26 31 35 38 39 38 38 41 44 47 52 50 47 43 40 38 37 35 31 30
54 52 53 54 54 53 47 43 44 45 45 45 43 45 46 46 47 44 43 43 39 36 30 20 19 24 27 31 34 36 36 38 40 44 46 44 42 42 38 37 37 34 32 30 25 24 23
48 46 47 49 47 44 41 41 41 40 40 38 39 41 40 42 40 35 35 34 32 29 20 20 26 28 31 33 34 36 38 41 44 46 41 34 31 32 33 31 28 28 25 23 19 19 20
43 43 43 43 42 40 38 37 36 32 31 34 34 35 34 35 32 31 29 23 22 20 24 27 27 29 31 33 35 38 41 44 42 36 29 28 28 28 25 21 23 24 21 18 17 20 21
44 42 41 39 38 36 34 31 31 29 28 28 31 26 25 28 26 24 20 17 19 23 24 27 30 32 35 35 36 39 36 33 33 30 25 23 24 22 20 19 18 19 17 18 18 20 22
42 40 39 36 33 30 27 26 26 24 23 27 26 27 24 22 19 15 17 21 23 22 28 32 32 32 34 36 37 33 31 30 30 28 21 19 19 19 18 18 17 20 19 22 21 25 26
43 39 35 33 28 24 25 24 26 24 26 24 25 25 21 18 21 23 22 21 25 30 33 32 32 33 35 39 32 30 29 27 26 24 20 18 18 17 17 18 20 22 21 26 26 31 29
36 34 33 32 28 26 27 28 24 24 23 21 23 22 23 24 22 21 25 29 29 31 29 30 33 35 33 33 30 27 26 24 23 23 20 15 16 17 17 18 20 25 25 27 32 33 31
35 36 34 33 32 32 29 26 29 29 29 26 26 23 22 25 29 30 31 27 26 27 30 37 33 32 32 28 28 25 24 24 24 22 20 14 14 20 20 19 22 21 28 32 36 36 36

GFSGBSN_250_spd_114.txt.gz
Wind_Speed
92 90 86 87 87 88 88 89 88 86 83 83 82 79 80 81 81 72 74 75 72 74 80 83 76 74 72 79 74 68 68 66 67 68 70 69 70 62 62 63 65 64 62 59 58 65 68
97 97 90 92 89 93 94 91 90 91 88 85 86 85 83 82 81 78 78 82 79 78 81 89 87 82 80 82 78 76 74 72 70 71 69 71 72 66 63 64 63 65 66 65 63 65 67
100 97 97 96 100 95 95 95 95 95 96 90 91 90 86 85 91 84 83 83 81 80 84 85 90 87 90 92 88 88 81 77 73 73 73 73 73 69 66 64 64 63 66 65 64 66 69
102 105 100 103 100 98 99 96 96 99 96 93 90 90 89 88 91 88 87 85 84 84 86 87 89 89 91 93 93 88 88 81 74 74 72 72 73 72 66 67 66 68 67 69 70 71 71
100 102 102 102 96 98 99 101 99 99 98 99 100 96 96 93 93 92 90 91 87 88 91 92 90 91 91 92 94 90 83 85 81 81 77 77 74 76 74 72 71 70 71 70 71 74 76
105 103 102 100 105 102 104 104 104 105 107 99 93 93 95 95 92 89 88 91 92 91 87 91 93 92 94 98 96 93 92 91 85 80 77 80 78 80 78 78 71 73 73 77 77 76 78
106 102 99 100 97 97 97 103 105 100 101 95 96 94 94 93 92 96 89 88 90 84 86 91 94 94 100 100 101 98 100 98 96 94 88 83 83 81 84 84 81 80 76 79 81 81 83
105 104 101 98 97 99 103 95 96 96 99 98 95 94 92 97 97 98 95 90 86 87 93 95 97 100 98 100 98 99 100 100 99 99 100 98 92 91 91 88 87 87 88 84 82 85 86
106 109 108 103 102 101 100 104 101 101 100 100 97 94 96 96 100 101 103 94 95 97 97 95 106 104 106 104 105 106 102 102 103 103 104 102 100 96 93 92 93 91 90 90 92 93 89
117 116 114 112 108 104 109 106 109 107 109 106 100 104 100 102 100 99 100 96 97 104 112 107 108 108 106 106 107 107 109 112 113 111 105 101 100 102 101 98 98 100 99 98 97 97 94
125 126 122 117 114 114 110 111 116 119 115 113 112 104 99 105 103 102 103 108 106 110 116 108 100 102 104 106 110 113 116 117 119 115 107 106 97 97 100 103 103 103 104 106 108 105 100
140 136 132 128 123 120 118 116 117 120 121 118 110 103 106 109 117 109 109 108 111 113 108 111 109 108 108 110 114 117 118 120 120 112 107 102 96 89 87 89 90 96 100 104 107 104 99
147 147 139 134 133 132 126 125 121 122 124 124 119 118 118 119 118 116 114 114 117 110 111 111 114 114 117 119 118 122 122 122 112 108 106 99 91 82 79 78 76 79 81 85 87 93 92
132 141 144 144 143 137 133 134 129 129 130 129 129 129 128 127 124 125 122 121 119 114 118 122 123 123 124 124 125 124 119 111 110 102 91 80 75 68 68 67 67 68 70 73 73 76 75
133 132 133 136 141 140 145 140 140 139 135 133 130 133 132 129 130 130 129 122 122 122 121 124 127 123 121 120 115 107 105 103 95 85 79 69 64 60 58 56 57 55 59 62 65 66 67
132 130 130 129 128 133 135 139 141 139 134 131 128 129 128 128 131 133 132 128 127 124 123 118 114 111 106 106 105 102 96 83 78 76 68 61 55 51 51 51 52 53 53 55 58 60 62
117 124 128 126 124 125 129 125 131 128 120 121 127 127 124 119 127 122 125 115 112 113 112 107 106 101 103 101 96 82 76 72 67 62 58 50 48 47 48 47 48 48 50 51 54 56 59
100 102 106 110 117 125 127 122 121 118 119 120 121 121 121 118 116 109 106 109 109 107 107 104 97 94 91 84 76 69 63 55 50 49 44 42 43 44 43 42 43 44 47 50 52 52 48
89 92 92 95 97 101 103 108 108 112 114 119 117 114 116 115 110 103 106 109 109 106 99 93 86 79 72 69 59 52 47 44 42 39 37 38 39 39 40 40 43 47 49 47 43 42 43
75 78 83 85 86 88 85 84 87 94 102 108 109 109 105 103 103 102 105 101 93 90 82 72 65 64 60 50 46 42 39 38 36 35 34 36 39 39 40 44 48 46 41 39 38 39 36
67 70 73 76 75 70 68 67 71 80 84 86 86 81 80 81 82 83 77 73 70 63 58 58 57 52 45 41 37 34 34 34 32 35 35 36 37 41 44 46 45 40 35 31 32 31 30
56 62 64 65 63 66 64 62 66 70 68 68 61 57 58 61 61 60 54 51 51 51 51 46 42 38 34 35 35 34 30 32 34 34 36 37 43 44 43 43 36 35 34 32 29 29 25
47 53 56 59 62 63 62 62 60 57 53 45 44 46 50 45 44 44 46 48 46 43 35 32 31 32 32 31 29 29 31 30 32 37 39 42 42 42 40 36 34 33 31 29 25 22 17
40 45 49 52 56 57 57 55 49 45 44 43 44 45 39 40 40 43 40 36 34 30 30 30 31 30 26 24 26 28 30 33 36 40 40 42 38 35 32 31 32 29 27 22 19 16 16
34 40 45 47 49 49 48 47 44 45 40 37 36 36 38 37 35 28 28 27 27 27 28 28 29 25 25 28 29 32 35 36 38 41 37 30 32 30 26 27 29 25 21 18 18 16 18
33 36 40 41 42 44 46 47 43 37 35 35 35 35 33 30 30 26 22 21 25 25 26 27 27 29 30 31 34 36 36 38 40 35 29 25 28 25 24 22 25 21 19 20 20 20 21
37 39 39 40 43 43 42 39 34 33 33 33 29 27 25 28 24 21 24 28 23 21 21 23 26 29 32 36 37 38 39 35 33 29 26 20 25 23 22 22 22 21 21 22 22 22 24
36 37 37 38 39 39 36 36 34 33 32 29 28 29 30 29 27 28 25 21 17 21 24 27 30 33 37 40 38 39 34 30 30 26 24 18 23 23 21 22 24 24 23 23 25 23 24
39 38 38 39 39 38 37 34 33 30 30 26 27 32 33 31 29 25 22 20 21 25 28 31 32 34 36 38 40 33 30 28 28 25 23 19 22 23 23 24 24 25 26 26 25 24 23

GFSGBSN_250_spd_117.txt.gz
Wind_Speed
90 90 92 92 90 95 90 88 91 86 84 82 85 84 83 80 83 83 81 76 74 71 73 77 69 70 69 67 67 71 74 79 74 71 69 66 69 73 62 62 64 64 63 68 58 57 64
93 96 96 96 92 91 93 93 94 87 90 88 88 86 82 85 88 85 82 78 78 77 75 76 76 71 72 73 73 73 74 82 84 82 78 75 72 68 64 63 67 63 65 63 58 61 59
101 101 100 97 96 93 95 98 96 92 92 94 92 91 88 91 89 90 85 84 83 79 79 78 77 75 72 73 74 77 80 80 84 86 85 82 76 69 69 68 66 69 65 62 65 66 63
97 96 98 97 96 97 93 94 98 98 97 96 94 94 95 96 92 94 92 89 87 83 80 78 79 78 75 75 77 77 79 80 84 88 86 82 78 75 79 76 71 69 69 69 72 69 70
92 90 88 90 91 95 99 100 98 98 98 98 97 97 99 97 96 95 92 90 88 88 88 83 82 83 81 83 80 80 84 84 86 88 87 87 88 86 86 79 75 76 76 74 74 74 75
102 100 92 89 89 88 89 93 93 92 93 95 91 92 93 94 97 96 95 93 92 89 86 85 82 84 79 76 80 84 82 87 88 87 89 92 93 94 94 90 83 80 81 80 76 79 79
103 102 100 99 97 94 93 96 97 96 98 97 93 92 94 94 96 97 93 89 87 84 80 81 81 85 85 83 86 79 83 89 89 93 94 93 93 99 101 100 97 96 94 92 95 95 89
109 107 110 110 114 103 97 97 99 98 98 100 98 97 95 96 97 92 89 84 87 89 85 83 81 86 89 86 85 81 84 92 96 99 100 99 100 107 103 103 103 104 104 103 103 102 100
114 111 111 114 112 109 104 97 99 99 102 101 102 97 97 98 98 96 93 88 87 89 84 81 81 86 85 88 88 87 88 97 98 99 105 101 104 105 104 106 108 109 108 110 113 103 99
115 114 118 114 115 115 108 107 105 105 106 107 102 100 98 101 100 102 99 97 99 101 97 89 84 84 92 90 89 90 92 95 102 105 106 106 108 107 111 108 112 108 118 116 110 99 99
125 125 122 121 121 119 117 114 108 106 107 104 102 103 103 102 103 105 103 104 103 105 108 93 88 87 87 94 94 93 101 104 103 107 108 106 109 112 116 121 120 120 116 105 103 101 100
136 132 130 129 126 128 125 121 118 116 114 112 113 108 115 107 112 106 104 108 113 114 115 105 102 94 97 99 102 103 105 108 110 111 114 112 117 120 121 118 115 110 102 102 99 92 87
142 142 140 138 138 137 135 133 131 126 126 123 120 120 120 119 115 112 114 113 118 115 110 107 102 106 108 107 109 113 115 113 114 115 116 120 124 123 104 101 98 95 96 90 85 83 72
145 145 145 146 146 146 144 144 141 138 136 134 129 133 132 124 124 120 119 119 119 112 114 111 109 115 119 118 118 118 120 123 120 121 123 126 124 110 97 102 91 87 75 75 71 68 64
139 139 138 137 139 139 142 146 149 147 146 142 140 138 136 132 132 125 125 128 119 118 118 120 120 121 124 122 121 120 122 120 124 119 120 115 106 94 95 93 83 75 68 61 56 54 52
131 133 136 138 139 136 135 137 138 137 137 129 132 134 132 129 132 132 134 129 125 125 123 122 122 125 124 122 120 117 118 111 108 105 105 102 97 90 81 72 70 63 58 53 51 49 51
114 117 119 120 125 128 135 138 137 135 131 123 124 121 121 125 125 132 129 129 131 130 127 127 127 127 123 121 115 115 107 99 101 97 96 90 80 74 66 61 54 53 54 49 49 49 52
103 104 108 109 110 110 111 118 123 127 130 127 124 122 118 117 128 125 126 124 126 125 121 123 121 119 115 110 108 107 101 97 96 89 79 69 65 60 52 49 48 48 45 46 48 49 48
87 90 93 99 102 102 102 104 111 111 117 122 122 125 121 123 120 115 118 116 114 113 114 110 109 108 105 101 101 98 97 87 78 67 64 58 52 48 47 47 43 43 44 45 45 46 44
78 80 82 86 89 94 96 98 101 97 99 105 111 117 115 114 112 110 111 111 108 110 105 104 106 102 100 97 93 86 77 64 60 56 50 46 44 44 45 43 44 41 44 44 42 42 40
70 73 73 76 81 84 86 91 95 88 88 92 99 98 103 105 104 106 109 108 108 104 102 96 92 90 86 80 72 62 55 52 47 42 40 40 40 42 42 41 40 43 42 40 40 38 33
58 61 65 67 70 73 78 83 84 79 81 84 76 73 74 79 80 83 84 86 87 84 82 77 73 70 66 57 49 47 42 40 36 37 36 39 40 38 37 41 43 44 41 39 33 28 23
49 52 56 59 62 67 70 72 72 72 74 66 59 60 62 60 61 60 60 64 65 61 62 58 56 50 43 39 38 34 33 34 34 36 37 35 35 36 41 43 42 39 32 29 26 24 20
40 45 49 52 55 58 63 60 58 64 63 54 50 55 56 50 50 51 53 53 53 52 48 45 38 35 33 31 28 31 32 33 33 32 32 33 37 41 41 39 34 31 27 26 25 21 17
35 39 44 45 47 52 55 57 61 64 58 49 53 49 45 44 46 44 43 45 42 38 37 32 31 26 26 27 30 31 29 29 29 32 35 39 41 41 37 33 31 27 27 25 23 18 16
28 33 37 38 43 49 54 56 56 53 47 50 47 42 41 41 39 42 38 35 30 28 27 26 24 24 27 31 32 30 29 30 32 36 38 39 41 36 33 29 29 25 23 20 20 17 19
27 29 31 33 37 40 44 44 46 49 52 51 45 40 40 38 38 33 30 30 29 25 26 22 24 28 32 33 31 31 32 33 36 39 42 39 35 31 30 27 26 24 21 20 21 20 21
27 30 34 38 40 43 47 50 52 51 48 43 39 40 37 34 32 30 29 27 26 25 24 25 28 28 28 28 30 32 35 38 41 43 40 31 30 28 27 25 25 24 23 23 22 21 24
31 35 37 38 40 42 45 48 49 45 43 41 37 35 34 30 30 31 27 27 26 24 24 23 24 24 27 31 34 37 40 41 40 38 34 29 27 26 25 25 26 26 26 24 24 24 27

GFSGBSN_250_spd_123.txt.gz
Wind_Speed
89 87 86 86 90 89 88 86 83 85 87 84 84 84 79 81 82 80 76 73 76 72 73 73 73 72 68 70 70 65 65 67 67 66 69 67 60 62 66 66 70 68 66 58 59 64 65
89 88 89 90 92 89 87 87 84 85 87 88 82 81 81 79 83 82 81 78 76 79 78 76 76 73 74 71 70 70 68 70 70 70 73 69 65 62 62 63 65 70 61 65 70 69 68
86 91 92 91 90 91 90 87 88 88 89 84 80 81 80 82 87 88 80 79 80 82 82 79 77 75 76 74 73 75 76 76 75 75 75 70 68 65 63 65 69 70 67 69 73 70 69
95 88 86 83 84 85 83 85 84 85 85 84 81 82 83 83 86 88 83 80 81 79 80 81 79 77 76 74 75 76 77 79 79 79 71 70 66 66 70 70 70 67 74 74 74 78 77
93 97 95 97 94 95 93 94 88 86 86 84 83 82 84 82 83 87 87 80 80 80 78 77 78 79 76 76 77 76 78 78 79 75 71 73 73 69 70 70 74 78 77 72 76 86 81
102 103 104 103 99 99 98 97 96 93 90 88 84 84 82 79 79 81 85 84 80 79 80 80 80 76 76 72 72 71 73 73 73 70 72 74 71 71 74 72 72 75 77 76 82 88 86
96 96 96 93 96 96 100 99 97 90 91 88 84 82 83 83 82 80 81 83 82 78 79 79 79 78 79 81 77 73 78 75 78 77 77 76 73 75 76 78 81 84 88 87 84 87 89
100 98 97 97 93 91 92 93 99 95 90 86 89 86 87 89 92 90 90 92 88 87 79 76 72 72 75 75 74 78 81 81 82 84 83 82 80 82 80 83 83 84 86 87 88 93 95
106 106 104 103 103 100 97 96 96 96 91 91 89 90 89 90 94 92 93 97 97 90 83 79 82 78 76 81 82 85 83 83 85 89 90 88 82 84 84 85 88 90 92 93 93 95 94
114 112 113 111 110 106 103 102 103 104 104 102 99 98 96 99 97 98 98 101 100 98 97 87 86 83 86 87 83 85 90 93 89 90 90 85 87 87 89 91 95 91 98 99 100 100 101
119 117 118 115 114 114 109 109 107 106 110 108 109 108 109 103 100 102 106 108 106 104 104 93 91 88 91 94 90 86 93 96 98 97 95 94 94 94 91 93 98 98 103 101 100 101 107
126 124 119 122 118 119 122 117 114 111 112 114 112 112 115 112 110 109 109 111 112 111 102 102 99 95 95 96 98 94 96 96 97 96 99 96 98 99 98 98 101 101 107 114 114 116 114
134 133 130 129 126 125 124 126 122 119 119 119 121 119 118 117 115 110 114 115 116 105 100 104 105 103 100 100 103 100 102 99 100 99 98 100 98 104 106 105 109 114 117 117 120 123 118
143 138 134 135 134 132 129 129 133 130 128 125 124 124 123 118 119 118 119 116 118 103 104 108 114 108 103 104 103 108 104 105 107 106 107 104 104 112 110 113 116 117 123 127 126 112 112
147 142 141 140 140 139 137 135 136 136 133 132 132 129 127 122 121 123 122 125 112 108 107 114 121 113 110 109 115 111 110 111 114 116 114 113 111 115 116 121 121 123 118 116 113 106 104
142 142 143 143 142 141 139 139 138 138 136 133 132 131 131 131 128 128 129 124 117 115 117 121 124 121 120 119 120 118 117 116 116 120 121 121 118 118 118 114 107 101 101 102 108 98 90
136 137 139 140 140 138 138 139 138 136 136 137 136 137 132 133 134 134 132 126 123 120 123 127 125 127 124 124 126 123 123 120 118 118 115 115 114 102 102 100 97 94 93 90 94 94 84
125 130 132 134 134 133 132 136 136 138 140 142 138 137 130 134 137 138 134 128 127 127 125 128 128 125 126 125 125 128 125 121 112 111 108 105 102 100 97 97 99 93 89 89 80 71 68
111 112 116 120 120 121 122 129 132 132 135 136 136 135 136 136 137 130 125 127 128 127 125 127 126 122 121 121 122 120 122 119 112 108 106 103 102 95 95 98 95 90 85 72 66 61 56
93 97 100 104 105 107 110 113 120 125 130 132 133 133 132 132 128 125 124 122 124 123 123 121 119 119 115 115 119 116 114 111 108 106 103 99 93 94 90 87 80 72 61 57 54 51 46
83 85 86 89 93 92 95 98 104 108 113 116 117 118 114 116 116 120 120 119 118 116 114 115 115 114 115 114 111 108 106 101 99 95 91 83 84 81 81 69 58 52 50 45 42 43 42
72 75 77 80 82 83 83 85 89 95 101 104 104 101 95 100 101 100 100 101 103 105 104 101 100 98 97 95 93 89 87 82 79 77 79 72 73 65 55 46 44 40 38 36 41 44 41
60 64 66 67 69 70 73 75 79 85 90 87 86 85 81 82 83 82 82 86 84 88 86 84 83 83 79 79 78 75 71 69 62 63 61 55 51 45 42 34 31 34 35 37 41 40 41
50 52 55 57 58 60 63 66 70 75 75 75 69 71 69 68 65 65 69 71 73 77 75 73 67 70 67 64 63 60 56 53 47 45 42 40 37 33 33 27 27 33 34 38 39 38 32
44 45 46 47 49 51 53 56 60 65 62 61 56 60 57 53 55 60 62 62 64 62 62 59 60 58 59 56 48 44 43 39 38 34 34 30 27 26 28 25 30 33 35 38 35 27 27
37 39 41 42 44 46 47 49 51 51 52 54 54 52 48 53 48 56 61 62 60 55 55 54 53 50 45 43 36 33 31 31 29 30 26 25 23 26 27 28 29 35 34 36 28 22 24
32 35 37 38 40 42 43 45 44 44 45 49 49 47 47 45 51 55 56 53 51 48 46 43 42 41 37 33 26 27 28 29 27 27 24 24 26 29 28 28 32 35 35 29 26 21 22
27 29 31 32 34 35 38 39 39 41 44 45 47 47 46 50 54 53 50 44 41 35 37 38 36 34 30 26 30 30 29 28 26 24 24 27 28 30 30 31 32 36 31 25 23 20 21
22 24 26 29 31 32 33 35 37 41 45 47 47 49 52 53 52 53 46 40 39 40 32 32 29 27 27 28 30 27 27 23 22 24 27 27 28 31 34 34 33 31 29 24 21 20 20

GFSGBSN_250_spd_126.txt.gz
Wind_Speed
94 86 91 87 87 86 82 82 79 79 80 78 80 81 81 80 78 74 75 77 76 74 69 66 66 65 67 67 65 65 66 64 67 66 63 64 64 63 63 63 62 59 59 58 57 60 58
86 87 88 89 86 88 81 78 80 80 79 78 79 81 80 78 79 76 78 79 76 73 68 65 65 67 70 69 70 70 69 68 69 68 68 68 68 68 67 67 65 63 61 58 60 61 61
85 88 90 88 85 83 85 83 83 85 85 84 84 84 83 82 81 81 80 81 76 73 70 64 67 69 69 68 70 70 69 67 67 66 66 65 66 68 68 69 68 69 62 64 66 66 65
92 92 86 86 85 84 86 86 83 85 84 88 91 89 84 81 82 82 83 79 77 75 71 67 65 66 67 66 67 69 70 67 68 68 69 66 64 66 69 66 64 64 61 64 70 68 68
96 96 96 94 92 91 90 86 82 78 78 80 81 80 82 83 83 82 83 83 82 79 75 73 71 69 69 67 68 70 68 68 69 69 66 64 63 65 67 67 66 64 62 68 71 69 65
98 97 99 98 97 96 95 92 91 92 88 83 85 86 82 83 82 86 86 82 80 80 78 79 77 76 72 69 69 72 70 71 73 69 68 68 66 67 69 68 66 66 66 69 73 72 72
101 97 100 101 94 98 100 98 96 98 96 94 91 92 89 89 87 86 85 86 82 77 72 74 76 77 77 74 70 74 76 73 73 68 69 69 67 74 74 75 75 73 74 76 79 80 83
106 104 100 97 97 95 93 93 92 91 89 88 89 88 86 87 87 90 87 82 80 80 75 73 74 72 75 75 70 76 77 74 72 73 76 76 72 76 77 80 81 83 82 84 87 89 85
111 111 107 104 102 100 98 94 92 93 94 89 89 89 88 85 86 82 81 83 83 79 78 73 77 78 80 82 79 83 78 79 80 82 83 80 78 81 82 83 85 89 90 88 88 86 88
117 113 112 108 106 106 99 99 98 97 94 92 92 92 92 93 89 88 87 90 88 86 83 71 76 77 83 83 83 87 87 86 82 81 84 83 88 87 88 86 88 87 92 94 95 97 96
122 115 114 113 109 110 109 106 101 103 99 100 98 96 102 98 96 96 96 96 97 97 94 84 79 80 86 88 89 89 92 92 91 91 89 87 91 93 90 92 95 96 96 96 96 97 98
127 123 119 116 113 111 113 113 110 106 107 104 103 104 103 104 104 104 104 103 102 103 95 96 91 91 94 93 91 91 94 96 96 94 94 95 97 95 95 98 98 101 100 100 100 100 98
134 128 128 122 118 117 117 117 116 114 112 112 112 112 107 108 108 109 109 110 109 102 97 102 99 100 102 101 99 100 101 101 101 102 99 98 98 99 102 104 107 107 107 109 107 107 106
140 136 134 129 127 123 124 123 122 122 120 118 119 116 115 117 114 115 117 120 117 101 100 108 109 111 107 106 104 104 104 108 108 107 106 106 107 108 110 108 110 111 112 115 116 113 109
150 147 144 142 139 137 136 133 131 129 129 126 126 123 120 120 120 121 124 125 118 109 109 113 117 114 110 109 110 113 111 108 110 109 106 107 109 111 114 114 114 115 116 117 119 112 109
155 153 151 150 148 143 140 138 137 136 134 133 132 133 128 127 128 130 131 129 122 113 116 119 122 123 117 116 114 113 114 110 112 113 113 113 114 113 113 116 119 119 115 114 109 101 96
154 154 155 151 148 147 147 147 146 144 141 141 140 139 131 132 132 134 134 130 124 123 125 123 124 123 123 119 120 118 117 117 116 115 116 115 116 114 118 118 117 115 107 104 105 103 97
136 137 138 140 140 143 146 143 143 143 145 144 141 140 137 136 139 138 134 129 127 129 129 128 127 128 125 121 123 121 121 119 119 118 117 121 119 115 115 114 110 106 107 105 101 91 87
120 122 124 128 134 131 133 135 134 136 141 140 141 141 139 142 142 135 132 131 129 130 131 131 129 129 124 123 123 123 118 118 121 121 121 120 118 110 105 108 107 108 103 96 90 79 74
104 107 110 115 116 120 125 125 126 128 132 132 134 128 129 134 132 127 130 128 127 126 126 127 129 127 125 123 123 121 120 121 115 110 110 110 107 105 102 99 100 93 86 80 73 68 64
89 93 94 98 101 103 109 113 116 121 125 126 126 120 120 123 118 120 125 124 125 123 126 128 124 122 124 120 122 124 121 113 107 106 102 100 99 93 89 87 82 70 65 63 56 53 48
75 79 84 86 87 92 95 99 103 106 114 116 111 108 105 108 113 113 114 115 114 119 120 120 116 118 117 118 118 116 109 107 101 98 97 92 82 74 69 70 58 55 51 44 45 43 41
65 68 71 74 78 81 84 87 89 92 100 95 94 91 92 92 93 94 95 99 101 104 104 105 105 108 108 106 103 98 94 90 85 81 76 73 68 61 56 52 41 40 35 35 36 38 38
56 59 62 65 68 72 76 79 82 85 86 82 82 86 78 78 79 77 85 86 86 87 88 88 88 88 87 82 82 78 73 69 68 65 63 63 57 47 43 33 30 31 31 32 33 34 36
50 52 54 56 59 62 64 68 71 73 74 70 70 74 68 66 69 69 69 73 76 78 77 76 74 73 70 69 64 62 60 59 58 52 55 50 39 35 31 24 26 29 28 29 32 33 35
41 43 46 49 52 55 57 59 62 63 62 60 62 64 61 58 56 66 64 66 66 66 66 62 59 60 56 55 54 50 49 49 48 44 44 37 29 27 25 23 25 28 27 29 33 32 32
34 36 39 41 43 44 47 50 53 54 52 54 56 59 56 53 57 57 59 60 63 60 55 54 55 51 49 47 43 41 42 42 38 38 34 29 26 27 25 23 27 29 28 30 32 32 27
29 31 34 36 38 40 42 44 46 46 47 47 53 53 49 50 55 56 57 54 52 46 45 49 47 44 43 39 38 39 39 36 32 32 27 26 27 28 23 24 30 28 29 30 32 31 25
27 28 31 32 33 35 36 38 39 40 43 48 46 46 51 54 52 52 53 48 44 45 45 44 43 38 33 34 36 37 34 30 28 27 29 29 28 24 25 28 28 29 29 30 29 27 24